GFSCGP_925_thetae_000.txt.gz
Theta_e
322 323 324 323 322 322 323 324 324 324 325 323 322 322 322 323 321 320 319 319 318 317 317 314 310 307 307 306 306 306 305 305 304 304 303 303 303 302 303 303 302 302 302 302
324 323 323 323 324 323 324 323 322 323 323 323 324 323 322 321 322 320 319 319 319 318 316 314 310 307 306 306 305 305 305 304 303 303 302 302 302 302 302 302 302 302 302 301
324 324 322 323 324 323 324 323 322 322 323 322 322 322 321 320 320 322 321 319 319 318 317 314 310 308 306 305 306 305 305 304 303 302 302 302 302 302 302 301 301 301 301 301
324 322 321 321 321 321 322 323 322 322 322 322 321 324 321 321 321 320 321 320 319 318 318 315 310 308 306 305 305 305 304 303 303 302 302 302 302 302 301 301 301 300 301 301
323 321 320 321 320 321 321 321 321 323 322 322 322 323 322 323 323 321 320 320 319 318 317 316 312 309 307 305 305 304 304 303 303 302 302 302 302 301 301 301 300 300 300 300
321 319 320 320 321 321 321 321 321 322 323 325 322 323 323 323 323 322 321 319 319 318 316 315 314 312 308 306 305 305 304 303 302 302 302 301 301 301 301 301 300 300 300 300
321 321 319 320 321 319 321 322 325 330 330 328 323 322 322 323 322 321 321 320 318 317 316 314 311 311 309 306 306 304 304 304 303 302 301 300 300 300 300 300 300 300 300 300
323 323 320 319 320 321 321 321 323 325 327 327 321 323 322 321 319 319 318 319 317 316 314 313 311 311 309 307 306 304 304 304 303 302 301 300 300 300 300 300 299 299 299 299
322 322 322 319 319 320 323 322 321 323 322 322 322 322 321 320 316 317 317 316 317 315 314 312 311 311 311 308 307 306 305 304 303 302 301 300 299 299 299 299 299 299 299 300
321 323 323 321 319 319 320 322 323 322 322 321 321 320 323 321 318 315 314 314 316 316 314 312 310 311 311 309 308 307 306 304 303 302 301 300 299 299 299 299 299 299 299 300
321 322 324 319 320 320 320 321 322 322 320 320 320 321 320 318 318 316 313 313 315 315 314 312 310 310 310 309 308 307 305 304 303 302 300 299 299 299 299 299 299 299 299 299
322 323 324 322 321 320 320 320 321 321 321 321 321 322 320 321 316 315 314 314 314 314 313 311 309 310 309 308 307 306 304 303 302 301 300 299 299 299 298 299 299 299 299 299
323 324 324 324 322 320 321 321 319 320 320 321 322 322 318 316 317 314 314 313 313 313 313 311 309 308 308 307 306 305 303 302 302 300 299 299 299 298 298 299 299 299 299 299
325 323 323 324 324 323 321 321 321 321 321 321 321 321 320 316 315 314 314 314 312 313 313 311 308 307 308 307 305 304 303 302 301 300 299 299 299 298 298 299 298 298 299 299
323 323 322 322 323 324 324 322 321 321 321 322 321 322 322 321 320 314 314 313 313 312 312 311 309 307 307 306 305 303 302 302 300 299 299 299 299 299 298 298 298 298 299 299
320 326 324 322 322 322 323 323 324 321 321 321 321 321 321 320 319 319 315 315 314 313 312 311 310 308 307 306 305 304 302 301 300 299 299 299 299 298 298 298 298 299 298 299
313 318 324 329 323 323 325 323 324 324 322 321 321 321 320 320 320 320 318 316 314 313 312 311 310 308 308 306 305 303 302 300 300 299 299 298 298 298 298 298 298 298 298 298
314 316 316 323 327 331 324 322 323 324 324 321 321 321 321 320 321 319 317 315 312 312 311 310 308 308 307 306 304 302 301 300 299 299 299 298 298 298 298 298 298 298 298 298
316 318 321 325 327 328 325 324 324 323 323 323 321 321 320 320 320 318 315 312 312 311 309 308 309 308 307 305 303 301 300 299 299 299 298 298 298 298 298 298 298 298 298 298
318 320 323 323 328 333 327 323 321 320 322 321 321 321 321 320 322 321 314 311 310 309 308 308 308 307 305 302 301 300 299 299 299 299 299 298 298 298 298 298 298 298 298 297
315 317 317 316 316 323 323 322 320 322 323 320 319 319 319 320 319 316 312 310 308 308 308 308 306 303 302 301 300 300 299 299 299 299 298 298 298 298 298 298 298 298 297 297
314 315 316 317 318 321 317 318 321 317 314 314 315 317 317 316 312 310 309 308 308 306 305 304 302 301 301 301 300 299 299 299 299 298 298 298 298 298 298 298 298 297 297 298
311 316 316 317 319 314 313 317 313 312 315 312 313 313 315 312 310 309 308 307 306 304 303 302 301 301 300 300 300 299 299 299 298 298 298 298 298 298 298 298 297 297 297 298
307 309 313 312 313 312 313 311 311 313 313 312 310 312 312 313 309 307 306 305 305 303 302 302 301 300 300 300 299 299 299 298 298 298 298 298 298 298 298 298 297 297 297 297
307 308 309 309 308 310 311 311 311 313 314 313 311 310 312 312 310 307 306 305 304 303 302 301 301 300 300 300 299 299 299 298 298 298 298 298 298 298 298 297 297 297 297 297
306 308 311 312 311 310 310 309 312 313 314 314 312 312 310 310 310 307 306 304 303 302 302 301 301 301 300 299 299 299 298 298 298 298 298 298 298 297 298 297 297 297 297 296

GFSCGP_925_thetae_003.txt.gz
Theta_e
318 317 318 317 316 318 319 320 320 318 321 319 320 319 318 319 318 316 314 313 314 314 313 313 311 310 308 308 306 305 305 304 304 304 303 302 302 301 301 302 302 301 301 301
319 319 318 319 319 319 319 319 319 318 321 319 319 320 319 317 320 318 317 315 315 314 311 310 309 308 307 307 306 305 305 304 303 303 302 302 301 301 301 301 301 301 301 301
318 320 320 320 321 321 319 320 320 319 321 320 320 319 318 318 317 319 318 317 315 315 313 310 306 305 306 305 305 305 304 304 303 303 302 301 301 301 301 301 301 300 301 300
318 319 320 320 319 320 320 320 321 320 319 317 318 320 318 317 317 316 319 316 315 315 314 311 307 304 305 305 305 304 304 303 303 302 302 301 301 301 301 301 300 300 300 300
319 319 319 319 319 317 318 320 320 320 319 320 319 319 317 316 317 316 315 317 316 315 314 311 308 306 305 305 305 304 304 303 303 302 301 301 301 301 301 301 300 300 300 300
317 318 318 318 319 319 319 319 320 320 318 320 318 319 318 316 318 317 316 315 317 315 314 312 309 307 305 306 305 304 304 303 303 302 302 302 301 301 301 301 301 300 300 300
319 319 317 318 319 318 319 317 319 323 324 321 317 318 318 316 316 316 317 314 315 315 313 311 308 306 304 304 304 304 304 303 302 302 302 301 301 301 301 301 300 300 300 299
317 317 318 316 318 317 317 316 318 321 325 321 322 321 320 317 318 316 315 315 313 314 313 312 309 307 305 304 304 304 304 303 303 302 302 301 300 300 300 300 300 299 299 299
318 319 318 317 317 318 318 319 317 318 317 318 318 317 316 317 317 315 315 314 314 314 312 311 309 309 306 304 304 305 304 304 303 303 302 301 300 299 299 299 299 299 299 299
317 319 318 318 317 317 317 317 319 318 322 320 317 317 317 316 317 314 313 314 314 313 311 310 309 308 307 306 305 305 304 304 304 303 302 301 300 299 299 299 299 299 299 299
318 317 319 318 318 318 318 320 319 317 316 316 317 314 313 316 315 313 314 311 313 313 311 310 308 308 308 307 306 305 305 304 304 303 303 302 300 299 299 299 299 298 298 299
319 318 320 320 317 317 317 318 319 321 319 317 319 319 315 312 313 312 311 311 310 313 311 309 306 306 307 307 306 305 305 305 305 304 303 301 299 299 299 299 298 298 298 299
325 324 322 321 319 318 318 318 317 319 315 319 320 320 316 317 315 311 311 310 311 312 311 308 305 306 307 306 305 305 305 305 304 303 302 300 299 299 298 298 298 298 298 298
321 325 325 323 321 320 319 319 318 318 320 321 320 319 317 314 313 311 310 310 310 312 313 309 307 306 306 306 305 305 305 304 303 302 301 299 299 299 298 298 298 298 298 298
316 325 324 320 318 321 322 321 320 319 319 319 320 319 318 317 314 310 310 310 309 310 311 310 308 306 304 304 304 304 304 303 302 301 300 299 299 299 298 298 298 298 298 298
313 315 313 312 315 317 319 320 321 319 320 319 319 319 316 316 314 314 310 310 310 311 311 310 309 306 304 304 302 302 302 302 302 301 300 299 299 298 298 298 298 298 298 298
313 313 313 313 313 314 315 319 323 324 320 319 320 320 317 318 318 318 315 309 310 310 310 310 309 307 306 304 302 301 301 302 301 300 299 299 299 298 298 298 298 298 298 298
313 311 314 314 314 318 313 322 323 325 324 321 320 319 317 318 318 316 314 312 311 311 309 309 308 307 306 304 303 302 302 301 300 299 299 299 298 298 298 298 298 298 297 297
308 312 316 318 318 317 316 320 319 322 322 320 320 320 317 317 317 317 315 311 310 309 307 308 308 306 305 304 304 302 301 300 299 299 298 298 298 298 298 298 298 297 297 298
310 310 314 315 319 318 314 317 318 316 326 317 315 314 312 316 319 320 313 311 308 307 305 305 306 306 305 303 303 301 299 298 298 298 298 298 298 298 298 298 298 297 297 297
307 309 312 313 315 315 313 313 315 320 320 313 312 312 312 312 316 317 315 308 306 306 305 305 305 303 302 302 301 298 298 298 298 298 298 298 298 298 298 298 298 297 297 297
309 309 310 309 313 313 314 317 319 317 310 311 310 310 311 312 310 310 310 307 306 305 305 303 301 300 300 301 300 298 298 299 299 299 298 298 298 298 298 298 297 297 297 296
306 307 306 309 308 307 305 308 314 313 312 311 310 310 312 311 310 306 306 305 305 303 301 301 300 298 299 300 300 298 299 299 299 298 298 298 298 298 298 297 297 297 297 296
305 303 307 307 306 307 307 307 307 309 311 310 312 312 315 312 310 306 305 304 303 301 299 299 299 298 297 300 300 299 299 299 298 298 298 298 298 298 297 297 297 297 297 296
304 304 305 304 304 303 305 308 309 309 309 311 313 314 314 313 312 307 306 304 302 300 300 300 299 298 298 299 299 299 299 298 298 298 298 298 298 297 297 297 297 297 297 297
303 304 303 304 302 303 305 305 305 306 307 308 309 312 314 315 314 311 305 303 301 301 300 299 299 299 299 299 299 299 298 298 298 298 298 298 297 297 297 297 297 297 297 297

GFSCGP_925_thetae_006.txt.gz
Theta_e
317 315 317 316 315 314 314 316 317 317 317 318 318 318 318 316 317 318 315 314 313 313 314 313 313 313 311 308 307 306 305 304 304 303 303 303 302 302 302 301 301 301 301 301
317 317 315 316 316 317 316 316 315 316 318 317 317 318 318 316 317 317 317 315 313 313 311 310 311 311 309 307 306 306 305 304 304 304 304 303 302 301 301 301 301 301 300 301
316 318 318 318 319 319 318 317 316 317 318 317 318 319 317 316 316 318 317 316 315 314 313 311 310 308 307 307 306 305 305 304 304 304 303 302 301 301 301 301 301 300 300 300
317 318 319 319 319 318 319 318 318 319 318 318 317 320 315 315 315 314 317 317 316 315 314 312 310 308 305 306 308 306 305 304 304 304 303 302 302 301 301 301 300 300 300 300
317 319 318 320 319 316 318 318 319 319 317 317 317 317 317 315 315 315 313 314 316 316 314 312 310 308 305 306 307 306 305 304 303 303 303 302 301 301 301 301 300 300 300 300
315 316 317 317 318 316 317 319 318 317 316 318 317 317 319 315 316 316 315 312 312 315 313 313 311 308 305 304 306 305 304 303 303 303 302 302 301 301 301 301 301 300 300 300
313 314 316 317 317 318 318 316 317 319 320 320 316 317 319 312 312 312 314 314 310 313 313 312 308 306 304 303 303 304 303 303 303 302 302 301 301 301 301 301 301 300 300 299
316 315 316 315 318 317 317 316 318 320 320 318 316 318 317 313 315 316 314 312 311 312 312 310 309 307 304 303 303 303 302 302 302 302 302 302 302 301 301 300 300 300 300 299
315 317 315 316 317 317 317 318 316 315 314 315 316 316 314 314 313 312 311 311 312 312 312 311 309 307 305 304 303 303 302 302 303 302 302 302 301 301 300 300 299 300 299 299
314 317 316 316 315 316 316 315 318 315 320 319 316 314 316 314 316 314 312 312 312 312 311 310 308 307 305 304 304 303 303 302 303 302 302 302 302 301 300 299 299 299 299 299
315 315 319 317 316 316 317 318 317 315 316 319 319 318 312 315 314 312 311 312 313 312 311 310 309 308 305 304 303 303 303 302 303 303 302 303 301 301 300 299 299 299 298 298
323 326 323 320 317 316 316 318 318 320 320 314 318 319 314 311 311 311 313 310 310 311 310 309 307 306 305 303 303 302 302 302 303 303 303 303 302 301 299 299 299 298 298 298
322 326 329 326 321 316 317 317 317 316 318 320 321 321 315 315 315 311 310 309 309 311 310 307 304 305 306 305 303 303 302 302 303 304 304 303 301 300 299 299 298 298 298 298
317 321 326 328 325 316 318 314 318 317 321 320 320 319 318 315 312 311 310 308 308 310 312 309 307 306 306 306 305 304 303 303 304 304 303 303 302 300 299 299 298 298 298 298
316 317 316 315 314 314 313 313 312 316 315 317 319 321 319 318 317 316 313 308 307 308 310 310 308 306 305 305 305 304 304 303 304 303 303 303 301 299 299 298 298 298 298 297
311 311 312 314 312 311 310 310 313 314 312 315 320 321 319 317 314 314 314 309 308 308 310 311 310 307 305 305 304 304 303 303 303 302 302 301 300 299 298 298 298 298 297 297
308 310 309 310 309 309 311 310 312 312 312 315 319 321 315 312 314 316 313 312 311 310 309 310 310 308 306 305 305 302 301 302 302 301 301 300 299 298 298 298 298 297 297 297
309 309 308 309 308 311 310 310 311 312 312 317 318 316 313 312 311 311 313 316 314 309 309 309 309 308 307 305 304 303 301 301 300 299 300 299 299 298 298 298 297 297 297 297
306 311 314 314 310 311 311 311 318 319 318 313 313 312 310 308 309 311 313 311 312 310 309 309 309 309 305 303 302 301 299 299 299 298 299 299 298 298 297 297 297 297 297 297
304 308 310 307 304 307 305 310 313 315 315 313 313 312 310 308 310 311 311 311 311 308 310 307 307 306 303 302 301 299 298 298 297 298 299 298 298 298 297 297 297 297 297 297
306 307 309 310 310 311 311 311 311 310 313 312 312 310 310 310 309 310 312 312 309 308 306 306 304 304 302 300 300 298 297 297 298 299 298 298 298 298 297 297 297 297 297 297
307 307 306 307 309 305 311 306 307 307 309 311 310 309 311 311 312 312 313 312 304 305 304 303 301 299 299 300 299 297 297 297 298 298 298 298 298 298 297 297 297 297 297 296
304 305 305 306 304 303 304 305 306 306 304 307 308 308 312 311 313 313 311 312 302 303 302 301 299 297 298 299 299 297 297 298 298 298 298 298 298 297 297 297 297 297 296 296
302 302 306 306 305 305 305 304 303 302 304 306 307 307 311 312 312 312 310 311 305 300 300 299 298 298 296 298 298 299 298 298 298 298 298 297 297 297 297 297 297 296 296 296
304 303 304 304 304 303 303 302 301 302 303 304 304 305 308 312 313 311 311 310 311 300 299 299 299 298 297 298 299 299 299 298 298 298 297 297 297 297 297 297 297 297 297 297
303 304 305 305 303 302 302 302 302 303 303 303 302 304 306 311 312 312 311 311 311 300 299 298 298 298 297 298 299 299 299 298 298 297 296 297 297 297 297 297 297 297 297 297

GFSCGP_925_thetae_009.txt.gz
Theta_e
315 314 315 315 314 312 312 313 313 313 314 317 317 317 317 315 316 317 316 315 314 313 314 314 312 313 313 313 311 308 307 306 306 305 304 303 303 303 302 302 301 301 300 300
316 315 313 314 315 316 316 315 314 313 314 316 316 317 317 316 314 316 316 316 315 315 314 311 312 311 311 312 310 307 307 306 305 305 304 303 303 302 302 301 301 301 300 300
315 315 316 316 315 317 316 316 314 314 315 315 317 318 316 315 315 315 315 316 316 315 314 312 310 309 309 308 308 307 306 306 305 305 304 303 302 301 301 301 301 301 300 300
315 315 316 316 317 316 316 316 317 317 317 319 316 319 315 315 315 314 315 315 315 314 314 313 311 310 308 307 307 306 306 305 305 304 303 303 303 301 301 301 301 301 300 300
315 317 317 318 316 316 318 317 317 318 317 316 316 316 317 313 313 313 312 312 314 314 314 313 312 311 309 307 305 306 306 305 305 304 303 303 303 303 302 301 300 300 300 300
313 314 316 316 317 316 316 317 317 316 314 318 317 316 318 316 315 314 313 312 310 311 312 313 313 311 310 306 304 304 304 304 304 304 303 303 303 302 301 300 300 300 300 300
311 313 314 314 314 316 316 315 318 318 319 321 314 316 318 313 313 311 313 313 311 307 309 312 311 309 308 305 303 302 303 302 303 303 303 303 303 302 302 301 300 300 300 300
314 316 313 313 314 315 316 316 319 320 318 318 314 317 317 313 313 313 311 311 311 310 310 310 310 309 306 304 303 303 302 302 302 303 303 303 302 302 302 301 300 300 300 300
314 314 313 314 315 315 315 316 316 316 317 314 316 314 313 312 312 312 311 310 311 312 309 310 308 308 306 303 303 303 303 302 302 302 302 302 302 302 301 301 300 300 300 300
315 317 316 315 315 315 315 314 317 313 319 321 318 313 315 313 313 312 311 311 310 310 309 308 308 307 305 303 303 303 303 302 303 302 302 302 302 302 301 301 300 299 299 299
321 318 322 317 318 319 318 316 315 315 316 320 320 319 314 314 315 314 311 308 309 309 309 308 307 307 305 304 303 302 302 302 301 301 301 301 302 301 301 300 299 299 299 298
320 324 325 323 320 319 318 316 316 320 322 317 318 320 315 312 310 310 309 309 309 307 309 308 306 304 304 303 303 302 302 301 301 301 301 301 302 301 301 300 299 299 298 298
317 320 319 317 317 314 315 313 314 313 316 321 322 321 314 313 312 315 314 311 310 308 309 307 305 305 303 303 302 302 302 301 301 301 301 301 301 301 301 300 299 298 298 298
312 316 316 317 318 315 315 314 313 313 315 313 314 314 311 311 311 313 313 313 311 307 307 308 305 305 304 303 302 302 302 301 301 301 301 301 301 302 301 301 299 298 298 298
311 310 309 309 308 309 309 313 313 312 312 313 310 308 308 309 313 312 311 311 310 311 311 308 308 306 305 304 303 302 302 301 301 301 301 301 302 303 302 300 298 298 298 298
307 309 308 307 306 307 308 308 308 311 309 309 311 312 310 310 313 311 310 311 312 311 311 310 309 308 305 305 304 303 302 301 301 301 301 301 302 303 301 299 298 298 298 297
305 305 305 307 306 306 308 306 305 306 307 308 313 314 313 313 311 309 307 309 311 310 312 311 309 309 307 306 305 304 302 302 301 301 301 301 302 302 301 298 298 298 297 297
304 305 307 309 308 310 307 305 307 309 309 312 315 314 312 309 309 308 307 310 310 310 312 312 311 309 308 307 305 304 302 301 301 300 300 300 301 301 299 298 297 297 297 297
302 304 307 305 306 306 306 307 308 309 311 313 305 308 312 310 308 308 308 308 309 311 312 311 310 310 308 306 305 303 301 300 300 299 299 299 300 299 298 297 297 297 297 297
303 304 305 305 307 307 306 304 305 306 310 308 305 309 309 309 310 308 309 309 310 310 310 309 305 305 306 305 303 301 300 299 299 298 299 300 300 300 298 298 297 297 297 297
302 302 304 303 303 304 303 305 306 307 306 304 306 308 308 310 309 308 309 310 311 309 309 308 303 305 306 302 301 300 299 299 299 298 299 300 300 299 298 297 297 297 297 297
302 300 301 300 300 303 305 304 306 305 306 306 305 304 306 307 308 309 310 311 310 308 309 305 301 303 301 300 300 298 298 298 298 298 298 299 298 298 297 297 297 297 297 296
303 303 303 302 304 302 303 303 304 304 305 303 303 304 304 304 305 308 309 310 309 308 309 303 298 297 298 299 299 297 295 297 297 297 297 298 297 297 297 297 297 296 296 295
300 301 304 304 303 303 303 302 302 302 302 301 302 302 304 303 304 303 305 310 310 309 310 300 298 297 296 297 297 296 296 297 297 296 297 297 297 297 297 297 297 296 296 295
302 303 304 304 303 303 302 301 300 301 301 301 301 302 302 302 302 304 308 310 310 310 310 301 300 298 296 296 296 296 297 297 296 297 297 297 297 297 297 296 296 296 296 296
303 304 304 304 302 302 302 302 301 301 301 301 301 301 301 302 303 303 305 310 311 311 310 306 299 299 297 297 296 297 298 298 297 296 296 296 296 297 297 296 296 296 296 296

GFSCGP_925_thetae_012.txt.gz
Theta_e
313 313 311 312 313 314 312 312 312 310 312 316 315 315 315 315 314 314 313 313 312 312 313 314 313 313 313 314 314 314 311 309 308 306 306 304 304 303 303 302 302 301 300 300
313 313 311 312 313 315 315 315 314 312 312 314 313 314 314 314 313 314 314 314 314 314 313 310 312 311 311 312 312 311 311 309 307 307 306 305 304 303 304 302 302 301 300 300
312 310 315 314 314 315 314 314 314 314 312 312 314 316 314 313 314 312 313 314 314 314 314 313 310 310 310 309 310 310 311 309 307 306 305 304 303 303 302 301 301 301 301 300
313 313 314 314 315 313 314 312 314 315 315 317 315 318 315 313 313 312 312 313 313 313 313 313 312 310 309 310 308 310 309 307 306 306 305 304 304 302 302 302 301 301 301 300
313 315 316 317 316 314 315 315 316 316 316 315 315 316 317 313 314 312 311 310 312 312 312 312 312 312 311 310 307 308 307 306 306 305 305 304 304 304 304 302 301 301 300 300
313 312 314 314 315 314 315 316 316 314 313 318 316 316 317 314 312 313 312 310 310 309 309 310 312 312 311 310 307 305 304 304 304 304 304 304 304 303 302 301 301 301 300 300
310 311 313 312 313 313 315 314 317 317 318 320 314 315 317 312 312 312 311 311 311 308 306 306 309 310 310 308 306 304 303 302 302 304 304 303 304 304 303 302 301 300 299 299
312 315 312 313 313 312 314 313 315 320 317 315 313 316 316 312 310 310 309 309 308 308 308 305 307 308 309 307 304 304 302 302 301 303 303 303 304 303 303 303 301 300 300 300
316 313 315 318 316 314 314 315 314 315 315 317 316 314 314 313 311 310 310 309 309 310 309 307 307 307 308 306 304 303 302 302 301 302 302 302 303 303 303 302 301 301 300 300
320 324 319 317 317 315 314 313 316 314 319 321 318 315 317 314 314 312 311 311 311 310 310 308 306 306 307 305 304 303 302 302 301 301 302 302 303 303 302 302 301 300 300 299
319 320 319 319 320 320 319 319 315 314 318 324 326 322 313 309 310 310 310 310 313 312 311 307 307 306 307 305 303 302 302 302 301 301 301 301 301 302 302 302 301 300 299 299
316 318 316 313 311 315 316 318 319 320 321 315 316 317 311 309 308 307 307 310 312 312 312 309 306 304 304 302 302 302 302 301 301 301 301 301 302 302 302 301 301 300 299 299
310 311 309 306 306 310 312 312 312 311 312 314 316 316 310 309 306 306 306 311 311 311 311 311 307 304 302 303 302 301 301 301 300 300 300 300 301 301 301 301 301 300 299 298
308 310 310 310 309 309 308 307 306 305 307 306 309 311 308 307 307 306 308 310 309 309 309 310 309 307 303 303 302 301 301 301 300 300 300 299 300 301 302 301 301 300 299 298
304 306 305 305 305 306 306 306 305 305 305 307 307 307 306 308 308 308 310 309 308 307 308 310 310 310 308 303 302 302 301 300 300 300 299 299 300 301 301 301 301 300 298 298
303 307 305 306 304 304 304 304 305 305 305 305 305 306 307 311 310 311 308 309 308 307 309 309 310 311 310 307 304 301 301 300 300 299 299 299 299 300 301 301 300 299 298 298
303 303 302 304 303 304 305 304 305 306 306 306 308 309 305 305 305 307 309 308 308 307 308 309 310 311 310 310 308 303 301 301 300 300 300 299 299 299 300 301 300 298 297 297
303 303 304 305 303 302 300 301 303 305 305 308 308 306 306 305 305 306 308 308 307 308 309 309 310 309 309 308 308 307 303 300 300 300 299 299 299 298 299 300 300 298 297 297
300 301 302 302 300 302 302 305 305 304 305 308 307 305 305 305 306 306 307 305 306 307 308 309 309 308 309 306 304 305 302 301 300 300 299 299 299 298 299 298 299 297 297 296
301 302 303 302 304 303 301 301 301 306 306 306 304 304 305 305 305 305 305 305 306 307 308 310 309 308 309 303 303 304 302 301 300 300 299 299 299 299 298 299 298 297 297 297
300 299 303 302 301 300 301 301 305 304 304 304 303 303 304 304 303 304 304 303 304 306 309 309 308 308 304 300 302 304 302 301 301 301 299 298 298 299 300 299 298 297 296 296
299 298 298 297 301 301 301 302 304 303 303 303 302 302 302 302 303 303 303 303 303 303 306 309 309 306 299 297 301 304 301 301 301 298 297 297 298 298 299 298 297 296 296 296
300 300 300 302 301 300 301 302 302 302 302 302 301 301 301 302 302 302 302 302 301 303 308 309 309 303 296 296 299 301 300 298 297 296 296 296 296 297 298 297 296 295 296 296
299 300 302 302 301 301 301 301 302 301 301 301 301 301 301 301 301 302 301 302 302 303 309 309 308 303 297 296 298 298 296 296 296 295 294 295 295 295 296 296 296 296 295 295
300 300 302 303 302 302 301 301 302 302 301 301 300 300 300 300 300 301 301 302 303 305 310 309 308 304 299 296 295 295 295 295 295 294 294 295 296 296 295 296 296 296 296 296
302 302 303 303 302 303 302 302 301 300 300 300 299 300 300 301 301 301 301 302 303 304 309 308 307 304 300 296 295 295 295 295 295 294 295 296 295 295 296 296 295 295 296 296

GFSCGP_925_thetae_015.txt.gz
Theta_e
314 315 314 314 316 314 312 313 314 315 313 314 316 316 316 316 315 316 317 316 316 316 317 315 315 314 314 315 314 314 318 318 313 310 307 305 305 305 304 304 303 303 302 301
314 315 312 311 312 315 315 316 316 316 315 314 315 316 315 315 315 316 316 317 317 317 316 315 314 313 312 313 313 312 312 313 313 311 308 306 304 304 304 304 303 302 301 301
311 310 313 313 314 314 314 314 314 314 314 314 314 317 317 315 315 315 315 316 316 317 316 316 315 313 312 312 311 311 311 312 312 309 306 305 303 303 302 302 302 302 301 301
313 312 313 314 315 314 315 314 314 314 315 317 316 318 317 316 317 315 315 316 316 317 316 315 316 313 312 311 311 310 310 309 309 308 306 305 305 304 303 303 302 302 301 301
313 314 315 317 317 314 318 314 315 316 316 317 318 319 319 317 317 317 317 316 314 315 315 315 315 314 313 312 311 310 308 307 307 306 306 305 305 305 303 303 303 302 301 301
313 311 313 314 314 315 314 316 315 315 317 321 319 318 319 318 316 315 315 315 314 313 312 311 311 312 313 312 311 309 307 307 306 305 305 305 304 304 303 302 302 301 301 301
310 311 312 312 314 312 314 315 318 318 321 321 316 318 318 316 316 315 314 313 311 313 313 312 310 311 311 312 311 309 307 306 305 304 304 304 304 304 304 304 302 301 300 300
314 317 312 314 317 318 315 316 318 319 319 319 315 319 318 314 312 311 312 311 312 313 313 313 312 312 310 310 311 309 306 306 304 303 303 303 303 303 303 304 303 302 301 301
325 319 316 317 316 314 315 317 314 317 320 320 319 318 317 317 313 310 309 308 309 310 312 312 313 312 311 309 309 308 306 305 304 302 303 303 303 303 303 304 304 303 302 300
320 317 318 318 315 313 317 314 317 318 321 321 320 320 320 319 312 311 309 308 307 309 312 312 312 312 311 308 307 306 305 304 303 302 303 302 302 302 303 304 303 302 301 300
315 318 313 311 311 314 311 310 309 314 316 321 321 321 312 312 311 307 305 307 307 310 311 311 311 311 310 307 305 304 304 303 303 302 302 302 301 301 302 303 303 302 301 300
310 315 310 307 306 307 308 312 307 308 308 309 308 307 307 310 305 304 307 307 307 308 310 311 311 309 310 310 305 303 303 303 303 302 302 302 301 301 301 301 302 302 301 300
306 307 306 301 302 304 304 305 304 305 306 305 305 303 303 304 304 306 307 308 308 310 310 309 308 310 310 311 309 304 302 302 302 301 301 301 300 300 301 301 302 301 300 300
307 309 308 305 305 307 306 305 305 306 306 306 306 306 305 305 306 307 308 309 308 309 309 309 309 310 309 311 311 307 303 302 302 301 301 300 300 300 300 301 301 301 300 299
305 306 305 305 304 305 305 305 305 305 305 306 306 306 306 306 306 305 305 306 307 308 309 309 309 309 309 311 311 310 304 302 301 300 300 300 300 300 300 300 300 301 300 299
303 305 305 305 303 303 303 304 304 304 304 305 306 307 307 305 305 305 305 306 307 308 309 308 308 308 310 310 309 310 309 303 301 300 300 300 299 299 299 299 299 300 300 298
303 303 304 304 303 303 305 304 301 301 301 303 306 306 306 306 305 305 305 306 307 308 307 307 307 308 308 309 309 309 309 306 302 301 300 300 299 299 298 299 299 298 299 298
303 303 303 304 302 304 302 301 301 302 303 303 304 307 306 305 304 305 305 304 306 305 305 305 305 306 308 309 309 309 309 304 304 301 300 300 299 299 298 298 298 298 298 297
302 303 304 304 302 303 302 301 301 302 304 304 305 304 304 304 304 304 303 303 304 304 304 304 304 306 308 309 309 309 305 302 303 301 301 300 299 299 298 298 298 297 297 296
300 301 303 303 304 304 301 300 301 303 305 304 303 304 304 304 305 304 303 302 303 303 303 303 304 304 307 309 309 304 301 300 303 302 301 300 299 299 298 298 297 297 297 296
301 300 302 302 304 303 300 300 304 303 304 303 303 304 304 304 304 303 302 302 302 302 302 302 303 305 309 309 306 301 298 298 302 303 301 300 299 299 298 298 297 297 296 296
301 301 301 301 301 301 300 301 302 303 303 303 303 303 303 303 302 302 302 302 302 302 302 302 304 308 309 307 303 298 297 298 303 302 301 299 299 298 297 297 296 296 296 296
301 302 302 302 302 300 300 301 301 302 303 303 303 302 302 302 302 302 302 302 302 302 302 303 305 309 308 306 300 296 296 299 303 302 300 298 298 298 296 296 296 295 296 296
298 299 302 301 301 301 301 301 301 301 302 302 302 301 301 302 301 301 301 302 302 302 302 303 305 309 307 303 297 295 295 299 300 299 298 297 297 295 296 296 296 295 295 295
300 301 302 302 301 301 301 302 302 302 301 300 300 300 301 301 301 301 301 301 301 301 301 302 305 308 306 300 297 296 295 296 297 297 295 295 296 295 295 295 295 295 296 296
300 301 303 303 302 303 303 302 301 300 299 299 299 300 300 301 300 300 300 300 299 299 300 302 304 307 303 299 298 297 295 295 295 295 295 296 295 295 295 295 295 295 297 296

GFSCGP_925_thetae_018.txt.gz
Theta_e
318 317 317 315 316 316 315 315 316 317 317 317 318 318 318 318 318 319 319 319 319 318 319 318 320 320 320 321 323 324 329 328 325 321 318 316 314 312 311 309 309 308 308 307
318 317 317 314 314 316 317 317 317 316 316 317 318 319 319 319 320 319 319 319 319 320 320 320 319 319 319 320 321 321 323 327 325 321 318 317 315 313 311 309 308 308 308 306
316 316 315 314 315 316 317 318 318 318 318 318 320 322 322 321 319 319 319 320 320 320 321 321 321 320 319 319 319 320 321 322 324 320 318 316 314 312 309 308 307 307 307 306
317 316 315 317 317 317 319 318 317 319 320 322 320 323 322 321 320 319 320 320 320 319 317 317 317 316 317 318 318 318 319 319 320 319 317 315 313 310 310 309 308 307 306 306
318 316 316 317 318 317 318 318 318 319 320 321 322 323 320 321 321 319 320 318 318 318 317 316 316 316 316 315 316 317 317 317 317 317 316 314 314 313 312 310 308 307 305 305
316 315 315 317 315 316 316 318 320 320 320 322 320 322 321 320 319 319 318 316 314 313 314 313 313 313 314 315 316 315 316 316 316 315 314 314 314 315 313 310 308 307 306 305
317 317 314 316 319 318 320 321 320 321 324 322 320 320 320 319 318 316 315 313 311 310 310 311 312 312 313 314 315 314 314 315 315 314 313 313 314 314 313 310 308 307 306 305
323 318 316 318 318 319 320 319 320 319 317 318 317 319 319 318 318 316 315 313 309 308 309 310 311 311 312 313 314 313 313 315 314 313 312 311 312 313 313 310 309 308 307 306
322 321 317 313 316 317 318 319 318 322 319 319 318 318 317 317 317 311 311 310 307 308 309 309 309 310 312 312 313 313 311 313 313 312 311 310 311 312 311 310 309 308 307 306
316 311 310 316 312 315 310 310 309 310 308 311 312 312 313 313 308 307 306 306 307 308 309 309 311 310 310 311 313 314 311 310 311 310 310 309 310 310 310 310 309 308 307 306
308 310 311 307 306 305 305 307 309 311 311 311 313 312 310 305 303 303 305 307 308 309 310 311 310 310 310 311 312 314 313 309 309 309 309 308 309 309 309 309 308 307 306 305
305 304 303 305 304 304 306 310 305 307 307 306 307 307 303 303 303 305 306 308 308 308 309 309 309 309 309 310 311 313 313 311 308 308 308 307 308 308 308 308 308 307 306 305
305 305 304 304 308 307 304 304 303 303 308 307 308 306 305 304 304 306 307 307 307 307 307 308 308 309 309 308 309 311 312 312 309 307 307 306 307 307 307 307 307 306 305 304
305 306 305 306 305 305 306 304 303 304 308 306 305 304 303 304 305 307 307 307 306 306 307 307 309 308 306 306 307 310 310 311 311 307 306 306 306 306 306 307 306 306 305 304
305 305 305 304 304 304 304 304 304 304 304 306 305 303 303 304 306 306 307 306 305 306 306 307 307 306 305 305 306 309 309 310 311 308 306 305 305 305 305 306 306 305 304 304
303 304 304 304 303 303 303 303 303 304 304 303 302 303 304 304 307 306 305 305 305 306 306 306 305 305 306 306 306 308 309 310 310 310 307 305 304 305 305 305 305 305 304 303
304 304 304 305 303 303 304 303 302 302 302 302 304 304 305 307 306 305 305 305 305 305 304 305 305 306 306 306 306 308 310 310 309 309 306 305 304 304 304 305 305 304 303 303
304 304 305 305 304 305 303 302 302 302 302 302 303 305 306 305 305 305 305 304 304 304 304 305 305 305 305 306 306 307 309 310 309 307 305 305 304 304 304 304 304 304 303 303
304 305 305 306 305 304 302 301 302 302 303 304 304 305 305 304 305 305 304 304 304 304 305 304 304 304 304 304 306 309 309 309 308 306 304 304 304 303 303 304 304 303 303 302
303 304 306 305 306 307 302 302 302 304 305 304 304 304 305 305 306 307 305 304 304 303 303 304 304 304 303 303 305 309 309 308 306 303 301 302 304 303 303 303 303 303 303 302
303 304 306 306 306 304 302 302 302 304 305 304 303 304 304 305 305 304 304 304 303 302 302 302 303 303 303 303 306 309 308 307 304 301 299 300 303 303 303 302 303 303 302 302
302 303 303 303 304 303 302 302 302 303 304 303 304 304 303 303 303 302 302 302 303 303 302 302 302 303 302 303 307 307 305 304 300 298 298 300 303 302 302 302 303 302 302 301
302 302 303 303 303 302 303 303 304 304 303 304 304 304 302 302 301 302 303 302 302 301 301 301 302 301 302 304 305 302 302 300 297 297 301 305 303 301 301 302 302 302 301 301
301 301 304 302 302 302 302 303 303 303 303 303 303 302 301 301 301 301 302 302 302 301 301 301 300 301 301 304 301 300 300 298 297 299 304 304 302 302 301 301 301 301 301 300
302 301 301 302 302 303 303 303 303 303 302 302 301 300 300 300 300 300 302 301 301 300 300 300 300 300 301 304 301 300 299 296 297 300 302 301 302 301 301 300 300 300 300 300
301 302 303 305 304 304 304 302 301 301 301 300 300 301 299 299 300 299 301 300 300 300 299 300 299 298 299 301 302 301 298 297 296 298 299 299 300 299 299 299 299 299 299 298

GFSCGP_925_thetae_021.txt.gz
Theta_e
320 318 319 319 318 317 317 317 317 318 319 319 319 320 321 322 322 322 322 322 321 321 321 321 320 320 320 321 322 324 327 331 334 330 326 323 320 319 317 316 314 314 312 311
320 323 319 316 317 317 318 320 321 322 321 321 322 322 323 323 324 323 322 321 321 322 322 320 319 319 320 321 321 322 323 326 331 331 327 324 321 319 317 316 315 314 312 311
321 322 318 316 318 320 321 321 322 321 320 321 323 323 323 323 324 322 322 321 321 320 320 319 319 318 318 319 319 320 321 323 325 331 328 325 322 320 318 316 315 313 312 311
321 319 317 319 320 320 322 320 321 320 322 322 321 323 322 322 322 321 321 319 316 315 315 315 315 315 315 316 317 319 318 320 321 325 329 327 324 322 319 317 314 312 312 311
320 319 319 319 319 318 319 319 319 321 322 323 323 323 323 322 322 321 318 315 313 311 311 312 312 313 313 313 314 316 317 317 319 320 325 327 324 322 319 317 314 313 311 311
319 318 318 318 318 318 318 321 322 322 324 325 323 323 322 322 321 319 317 316 315 311 310 311 310 310 311 312 313 315 315 316 316 318 320 325 324 322 320 316 315 313 311 310
320 319 317 320 321 321 321 319 319 321 328 328 321 320 321 321 319 316 313 312 310 309 309 310 310 311 310 312 312 313 314 316 315 316 318 320 323 322 321 318 315 313 311 309
324 322 318 316 317 320 320 318 319 319 319 319 319 319 318 320 317 313 310 308 307 308 309 310 310 311 310 311 311 312 313 315 315 314 316 317 320 320 319 319 317 314 312 310
319 319 316 313 316 315 317 316 316 320 318 318 317 316 317 316 312 308 306 306 306 307 308 309 309 309 310 310 310 312 313 315 315 313 313 315 316 318 318 318 319 314 312 311
314 308 310 314 310 313 314 309 309 312 311 311 311 311 312 311 307 306 305 305 306 308 308 309 309 308 309 310 310 310 312 314 315 314 312 312 314 315 315 316 317 314 313 311
308 307 310 312 308 308 308 307 309 310 312 312 312 311 310 307 305 305 305 305 305 308 308 308 308 307 308 309 309 309 309 312 314 314 312 311 312 313 313 314 315 315 313 311
306 305 304 306 307 305 305 307 309 309 309 309 310 310 306 306 305 305 304 305 307 307 307 307 307 307 307 309 308 306 306 309 312 313 313 310 310 311 311 312 313 314 313 311
305 306 307 309 310 308 309 309 306 307 310 310 308 307 306 306 305 304 304 305 306 306 306 306 307 307 307 306 306 306 306 308 310 311 312 311 309 309 310 311 312 312 312 310
305 305 305 307 308 307 307 307 306 305 309 307 306 305 305 304 304 304 305 305 306 306 306 306 308 307 306 305 305 306 306 307 308 309 311 312 309 308 309 309 310 311 311 310
305 306 307 306 306 305 305 305 304 305 305 305 305 304 304 303 304 305 305 306 306 306 305 305 305 306 305 305 306 306 307 307 308 310 310 311 310 307 308 308 309 310 310 309
305 306 306 306 304 304 304 304 304 304 304 304 303 303 303 304 304 305 305 305 305 305 305 304 304 305 305 305 306 306 307 307 309 310 310 310 309 307 307 307 308 309 309 309
305 306 306 306 304 304 305 305 304 303 303 303 304 304 303 304 306 305 305 305 305 305 305 305 305 306 305 305 305 305 305 306 308 309 310 309 307 307 306 306 307 308 309 308
305 305 306 307 305 307 305 304 304 303 303 303 303 304 304 305 305 305 305 305 305 305 305 305 306 305 305 304 305 305 304 305 308 308 309 308 306 306 306 306 306 307 308 308
304 305 306 307 306 305 304 303 303 303 304 304 304 306 305 304 304 305 304 304 304 304 304 304 303 303 303 304 304 304 304 304 307 308 308 307 305 303 304 306 306 306 308 307
303 303 307 306 308 307 304 303 303 303 305 305 305 305 305 304 307 307 304 303 303 302 302 303 303 302 303 303 303 304 304 305 307 307 307 306 304 303 301 305 306 306 307 307
304 304 307 308 310 306 303 303 303 305 305 305 305 304 305 306 306 306 303 303 302 302 302 302 302 302 303 302 302 303 304 306 307 305 305 303 301 300 300 305 306 306 307 306
304 304 304 303 306 304 303 303 303 304 304 305 304 305 305 305 305 305 304 303 303 303 302 302 302 302 302 302 302 302 304 305 304 303 303 302 300 300 300 304 305 306 306 306
303 303 305 304 305 303 303 303 304 305 304 305 305 304 304 304 303 302 303 303 302 302 301 302 302 302 302 301 301 301 303 304 302 302 302 300 300 302 302 304 305 305 306 305
302 302 304 305 303 302 302 302 303 305 304 304 303 303 303 303 302 303 303 302 302 301 301 301 301 301 301 301 301 301 301 303 302 301 301 299 303 306 304 303 304 305 305 305
302 302 302 303 302 302 303 303 303 303 303 302 302 302 302 302 302 302 302 302 301 301 301 301 301 301 301 301 300 300 299 302 300 300 300 300 304 304 302 303 304 304 304 304
303 303 303 305 302 304 304 303 302 302 302 301 301 302 302 301 301 301 301 300 300 301 300 300 300 300 300 300 300 299 299 301 299 299 298 300 301 303 302 302 303 303 303 302

GFSCGP_925_thetae_024.txt.gz
Theta_e
322 320 321 320 319 318 316 316 317 319 321 322 323 322 321 321 321 322 322 320 318 318 317 316 316 315 317 317 318 319 319 324 332 336 336 332 325 322 320 318 316 314 313 312
321 323 320 318 318 319 320 321 321 322 323 320 320 320 320 322 322 320 319 316 315 314 313 313 314 314 314 314 315 316 318 318 318 330 335 332 327 323 320 319 317 315 313 312
322 323 320 318 320 320 321 321 322 322 321 320 321 322 323 321 320 317 314 312 310 309 310 310 311 311 312 313 313 314 315 316 317 317 329 331 327 324 321 319 317 316 314 313
321 320 319 320 320 320 320 321 320 321 321 322 320 322 321 321 319 315 312 311 310 308 308 309 310 310 310 311 312 313 313 314 316 315 316 326 328 324 322 320 318 317 315 313
319 320 320 319 319 319 319 320 320 321 322 321 323 324 322 321 320 317 315 312 307 307 308 308 309 309 310 310 312 311 311 314 315 316 315 316 321 327 324 321 319 317 315 314
319 319 319 318 320 320 319 321 319 318 319 325 323 324 323 322 318 312 308 307 305 306 307 308 309 309 309 310 311 311 311 312 313 315 315 314 316 321 325 323 320 317 315 313
321 320 319 318 317 321 320 319 320 323 328 329 320 319 321 316 310 306 305 305 304 304 306 306 306 308 309 309 310 311 311 312 313 314 316 315 313 316 324 324 321 317 314 313
322 322 319 315 316 317 315 317 320 321 320 322 318 319 320 311 306 305 305 305 304 304 306 306 307 307 308 308 308 310 310 311 310 312 315 314 313 313 317 324 323 317 315 313
316 320 315 313 315 314 316 316 311 316 317 317 317 317 315 308 306 305 305 305 304 304 306 306 306 307 307 307 308 308 310 308 308 309 313 314 313 312 313 317 322 321 316 314
311 308 309 313 312 312 313 311 310 310 311 312 311 310 310 306 305 305 304 304 303 304 305 305 305 306 306 306 307 309 308 307 306 307 311 312 313 312 311 312 319 320 319 315
308 306 309 308 309 308 308 308 308 308 308 309 312 311 308 305 305 305 304 303 303 304 305 305 305 305 305 305 307 306 305 306 306 307 310 311 310 312 310 311 313 318 318 316
306 305 304 306 307 307 306 305 306 312 311 309 308 308 306 305 305 305 304 303 303 305 305 305 305 305 305 306 304 304 305 305 306 307 308 308 310 311 311 309 310 312 315 315
305 305 305 309 310 309 309 309 309 307 309 309 309 308 306 305 304 304 304 303 304 305 304 304 304 304 305 304 304 304 305 306 307 307 307 308 309 311 311 308 309 310 311 314
305 304 304 307 307 307 307 307 306 306 307 306 306 305 304 304 304 304 303 303 304 304 304 304 304 304 303 304 304 304 305 306 306 306 307 309 310 310 309 309 307 308 310 313
306 306 306 306 306 306 305 305 305 304 304 305 304 304 304 304 302 302 302 304 304 304 304 304 304 304 304 304 304 305 305 305 305 305 306 308 309 309 308 308 307 307 309 310
305 306 306 307 306 305 305 305 304 304 305 304 304 303 303 303 302 303 304 304 304 304 305 305 304 304 304 304 304 304 304 304 304 304 304 307 309 309 307 307 307 307 307 309
305 307 308 307 305 305 306 305 304 304 304 303 303 303 304 305 305 304 304 304 303 303 304 303 303 303 303 302 303 303 303 303 304 303 304 305 308 308 307 306 306 306 306 308
305 306 306 307 306 307 306 304 304 304 303 303 304 305 306 305 305 304 303 303 303 303 302 302 302 302 302 302 302 302 302 303 304 304 303 305 308 307 306 305 305 304 306 307
304 304 306 306 307 305 305 304 304 303 303 304 305 305 305 304 304 303 303 304 304 303 302 302 301 301 301 302 302 302 302 303 302 303 303 307 306 304 305 304 304 303 305 306
304 304 305 305 305 306 305 304 304 304 303 304 303 303 304 304 305 304 303 303 303 304 303 301 301 301 301 301 302 301 302 302 302 302 305 305 304 303 303 303 302 302 304 306
304 305 305 306 306 306 305 303 303 302 302 302 302 303 304 304 304 303 303 303 303 302 301 301 301 300 300 301 301 301 301 301 301 302 304 303 302 302 302 302 300 302 304 306
305 305 305 305 305 304 304 302 302 302 302 302 304 304 304 303 303 302 303 302 301 301 301 301 300 300 300 300 301 301 301 301 300 301 302 302 302 302 302 300 300 303 304 306
304 303 305 304 304 303 302 302 302 302 304 304 303 302 302 302 302 302 301 301 301 300 300 300 300 299 299 300 300 300 300 300 300 300 300 302 302 301 301 299 300 303 305 306
302 302 302 303 302 302 302 302 302 302 303 302 302 302 302 301 301 300 300 300 300 300 300 300 299 299 299 300 300 300 299 300 299 299 300 301 301 300 299 303 303 304 305 306
302 302 301 301 302 302 302 302 303 302 301 301 301 301 299 299 299 298 298 298 297 297 297 298 298 298 298 298 298 298 298 298 299 298 300 300 299 298 302 303 304 305 305 306
301 301 302 303 301 301 302 302 301 301 300 299 299 298 297 296 296 296 296 296 296 296 296 296 296 297 297 296 296 296 296 296 298 299 300 299 298 298 300 302 303 305 304 304

GFSCGP_925_thetae_027.txt.gz
Theta_e
318 315 314 316 316 316 316 315 315 316 317 317 317 317 317 317 314 310 308 307 307 308 308 309 309 309 309 311 311 311 312 313 314 315 319 326 327 329 327 323 320 317 315 314
315 316 317 318 317 317 317 317 316 317 319 318 316 317 316 312 310 309 307 306 306 307 307 307 308 308 308 309 311 310 310 311 313 314 314 315 321 323 325 324 320 317 316 315
317 319 318 317 318 318 318 319 318 318 318 317 317 316 318 312 310 310 307 306 306 306 306 306 307 307 308 308 310 310 310 311 312 313 313 314 314 316 321 320 320 318 316 315
316 317 318 318 318 317 317 318 318 319 318 317 316 319 317 313 311 310 305 303 304 305 305 306 307 307 308 308 308 309 310 311 311 311 312 314 315 314 315 321 319 319 317 316
316 317 317 318 318 318 317 318 318 318 318 319 319 319 317 314 308 304 302 302 301 304 304 304 305 307 307 308 307 307 310 310 310 310 310 311 314 314 313 313 320 319 318 316
315 316 317 317 317 317 317 318 313 313 315 318 317 320 318 312 305 303 302 301 301 301 303 304 306 306 306 307 306 307 307 308 310 309 309 309 311 313 312 312 314 320 318 317
316 317 317 314 315 316 312 311 314 315 320 321 316 315 311 304 303 303 302 301 301 301 303 303 304 305 306 306 305 305 306 307 307 306 306 306 310 313 312 311 311 317 318 316
313 317 317 310 315 314 312 313 315 319 318 319 314 313 310 303 303 303 303 302 301 301 303 304 305 305 305 305 304 305 306 307 305 306 306 305 309 311 311 311 310 310 316 317
312 316 308 313 313 312 312 310 308 310 312 313 314 310 306 303 303 302 302 302 300 300 303 303 303 304 304 304 303 304 304 304 304 305 305 306 309 310 309 310 311 310 310 316
307 305 306 311 311 309 310 309 309 305 307 307 306 308 310 303 303 303 303 302 300 302 303 302 302 303 304 304 304 304 304 304 304 304 305 306 308 307 307 310 311 310 309 312
303 304 303 303 306 305 304 304 305 304 304 305 306 307 302 303 303 303 303 303 302 301 302 301 303 304 304 304 303 303 303 303 304 304 306 306 307 307 308 310 310 309 308 308
302 302 301 301 304 306 305 304 303 302 306 305 301 306 302 303 303 303 303 302 301 303 302 301 302 303 303 303 303 303 304 304 304 305 305 305 305 305 308 309 309 308 309 307
303 300 299 303 307 306 305 306 305 304 303 303 303 305 305 303 303 303 302 300 300 302 301 301 301 301 302 303 303 303 304 304 304 304 304 305 304 305 309 309 308 307 307 307
303 302 300 300 303 304 305 305 304 303 298 303 304 304 303 303 303 302 299 298 300 301 301 301 301 301 302 302 303 303 303 303 302 302 304 303 303 305 305 308 308 307 306 307
303 304 304 304 305 305 305 305 304 304 303 302 303 303 303 302 299 300 301 302 302 302 302 302 302 301 302 301 302 302 301 301 302 302 302 302 303 303 304 308 307 306 305 305
302 302 304 304 305 305 305 304 303 303 303 303 303 302 300 301 303 303 302 302 302 302 302 302 302 301 301 301 301 300 301 301 301 301 301 302 302 303 302 306 308 307 305 305
302 303 302 300 304 304 303 304 303 303 302 302 302 301 304 304 304 303 303 302 302 302 302 302 302 301 301 300 300 300 300 301 301 300 301 301 301 302 304 306 305 305 305 305
302 302 301 299 301 300 302 303 302 303 303 302 302 302 304 303 302 302 302 302 301 302 303 302 302 302 300 300 300 300 300 300 301 300 301 300 301 303 305 304 303 303 304 304
300 301 299 298 299 302 303 303 303 303 302 302 302 302 301 301 300 302 302 301 302 301 302 302 302 302 300 300 300 299 299 300 300 300 300 300 301 302 303 302 302 302 302 303
301 300 300 301 296 298 301 303 302 301 301 301 301 301 301 303 304 303 302 302 301 301 302 302 301 300 300 299 299 299 299 299 300 300 300 300 300 302 302 302 301 301 302 302
300 299 302 303 298 301 302 302 301 298 299 300 301 302 303 302 302 301 301 301 301 301 301 301 300 300 299 299 299 299 298 299 299 300 299 299 299 300 300 300 301 301 301 300
301 297 298 299 298 302 301 300 300 299 300 300 301 301 301 301 301 301 300 300 300 299 299 299 299 299 299 299 299 298 298 299 299 299 299 299 299 298 299 300 301 300 300 299
302 300 299 299 299 299 299 300 299 299 301 301 300 300 300 300 300 299 298 298 297 297 296 296 296 296 296 297 297 297 299 298 298 298 298 297 297 298 299 301 300 299 299 301
299 299 299 299 300 299 299 300 300 301 300 299 299 299 298 298 297 295 295 295 295 295 295 295 295 295 295 295 296 296 296 297 297 296 296 295 296 298 300 300 298 300 302 303
298 299 299 298 299 298 299 300 300 299 299 298 297 296 295 295 294 294 295 295 295 295 295 295 295 296 296 295 295 295 296 295 295 294 295 296 298 299 300 298 297 300 303 303
299 300 297 300 298 297 298 300 299 298 297 295 294 295 295 294 295 294 294 294 294 294 295 295 294 295 295 295 296 295 296 296 294 294 295 296 297 300 299 297 298 299 304 304

GFSCGP_925_thetae_030.txt.gz
Theta_e
317 314 313 314 314 314 314 314 315 314 316 316 316 313 309 307 306 305 303 303 304 304 305 307 307 308 307 308 309 310 310 310 310 311 312 314 314 317 324 322 317 315 316 315
313 315 316 315 316 317 317 317 315 316 317 317 315 312 309 307 307 305 304 304 304 304 303 305 306 307 307 307 307 309 309 310 310 310 311 312 314 314 314 315 320 316 314 314
315 318 317 317 317 316 316 317 317 317 316 315 315 314 311 309 305 304 303 304 304 304 304 303 305 306 306 306 306 306 307 308 310 309 309 310 312 313 313 313 313 314 318 313
315 317 317 317 317 316 316 317 317 318 317 316 315 315 314 309 303 301 299 300 303 303 303 303 304 305 306 305 304 306 306 306 309 307 307 307 307 311 312 312 312 313 312 317
314 316 316 317 317 317 316 316 317 317 317 318 317 317 315 306 303 302 301 300 300 303 303 303 304 305 306 304 304 304 305 306 307 306 306 306 305 307 311 311 311 312 312 311
316 315 316 316 315 316 314 313 310 313 314 316 314 318 315 305 303 302 301 300 300 300 303 303 304 304 305 304 304 304 304 304 304 304 305 305 305 305 310 310 310 310 310 311
313 317 315 312 313 312 310 310 311 313 316 315 314 312 309 302 302 303 302 300 299 299 302 302 302 303 304 304 304 304 305 304 304 304 304 304 304 305 309 308 307 308 308 309
311 313 310 310 313 312 311 311 311 310 313 315 312 310 304 302 302 302 302 301 299 298 300 301 302 303 304 304 303 304 303 302 303 303 303 304 305 306 309 307 307 308 309 310
307 310 306 311 311 309 309 309 309 309 309 310 310 304 302 302 302 302 301 300 300 299 301 301 302 303 303 303 303 303 303 303 303 302 304 304 305 306 306 306 307 307 309 310
305 302 304 306 309 306 308 308 310 305 306 307 305 306 306 302 302 301 301 300 300 299 301 300 301 302 301 302 302 303 303 303 303 303 304 304 305 304 304 304 304 308 308 308
302 302 302 302 304 305 304 303 303 303 302 304 304 304 301 301 302 301 301 301 301 299 299 299 300 303 303 303 303 303 303 303 303 303 303 303 302 302 304 303 303 308 308 307
302 301 301 301 301 304 303 303 301 301 302 303 300 303 302 301 302 302 301 300 298 300 300 299 301 301 302 303 303 303 302 302 303 303 302 301 301 302 303 303 303 306 308 308
301 298 297 301 305 304 305 305 304 303 301 301 303 304 302 303 302 302 299 298 299 300 300 299 300 300 302 302 302 302 302 302 301 301 301 301 301 301 302 302 303 303 306 308
302 299 297 300 301 303 304 304 304 303 297 302 303 304 303 302 302 299 300 299 299 299 300 300 300 299 301 301 301 301 301 301 300 300 300 301 301 301 301 301 302 303 303 307
302 303 303 303 303 304 304 304 304 303 303 302 303 302 303 302 299 300 301 301 301 301 301 301 301 299 301 300 301 300 300 299 300 300 300 300 300 300 300 301 301 302 304 307
301 301 303 303 303 303 304 304 304 304 303 303 303 303 301 299 301 301 301 301 300 300 301 301 301 302 301 301 301 300 299 299 299 299 299 299 300 300 301 300 301 306 304 304
301 302 301 300 301 302 301 302 303 303 302 302 301 301 300 302 302 300 300 299 299 301 301 301 301 301 301 301 301 299 299 299 299 299 299 299 299 299 299 300 304 304 303 302
300 301 299 298 300 298 300 301 301 302 302 302 302 301 302 301 300 300 300 300 300 301 301 301 301 301 301 301 301 300 299 299 298 298 299 299 299 299 299 299 300 302 302 301
299 300 298 297 298 300 301 302 302 302 301 301 301 301 300 300 301 301 300 300 300 299 300 301 300 300 300 300 300 300 299 298 298 298 298 298 299 299 299 299 299 301 301 300
299 299 298 300 296 298 299 302 301 300 300 300 300 299 300 301 301 300 299 299 299 299 299 299 299 298 298 298 298 299 298 298 298 298 297 298 298 299 299 298 299 299 299 299
300 299 301 301 295 300 300 300 299 300 299 298 299 300 300 300 299 298 298 298 297 297 296 295 295 295 295 296 296 297 297 297 297 298 297 298 298 298 298 298 297 297 298 299
300 298 298 299 297 301 300 300 300 298 298 300 300 299 298 298 298 298 296 295 294 294 294 294 294 294 294 294 295 295 295 296 296 296 298 297 297 298 297 296 296 297 298 300
301 299 298 299 299 299 298 299 298 299 300 300 298 297 297 297 295 295 294 294 294 294 294 294 294 294 294 294 295 295 295 295 295 296 295 296 296 295 294 294 295 297 300 299
300 298 299 299 299 298 298 297 299 300 299 298 297 296 294 294 294 294 294 294 293 293 293 293 294 294 294 295 295 295 295 295 295 295 295 295 294 294 295 296 297 298 299 298
300 298 298 297 298 298 298 298 300 299 298 296 294 294 294 294 293 294 293 293 293 293 294 294 294 294 294 294 294 294 295 295 295 295 294 294 294 294 295 296 297 299 298 298
299 300 298 300 297 297 296 298 299 298 295 293 293 293 293 293 293 293 293 293 293 294 294 294 294 294 294 294 294 294 294 294 295 296 295 294 294 295 295 296 298 298 298 299

GFSCGP_925_thetae_033.txt.gz
Theta_e
314 314 313 312 313 314 313 313 314 313 314 314 309 308 307 305 304 303 302 302 303 303 304 305 306 305 305 306 306 306 307 309 309 309 309 311 313 314 313 313 316 317 318 320
312 314 314 313 315 316 316 316 314 314 316 315 309 308 307 306 305 304 303 303 303 303 302 303 305 305 304 304 306 306 306 308 307 307 307 307 308 310 311 312 313 313 313 315
315 316 316 316 315 316 315 315 315 315 315 312 309 311 307 304 302 302 302 303 304 304 303 302 303 305 304 303 304 304 305 308 306 306 305 305 305 306 307 308 308 310 311 312
314 315 316 316 316 315 315 315 316 316 316 315 314 315 308 304 302 301 299 298 303 303 303 303 303 304 304 304 303 303 305 307 305 304 304 305 305 305 305 307 308 306 306 306
314 315 315 316 316 316 316 315 316 316 316 316 315 316 312 301 303 302 300 299 299 300 302 302 303 304 304 304 303 304 304 305 305 304 303 303 303 304 304 306 306 306 306 306
316 314 315 315 314 314 311 311 310 311 312 314 311 316 311 306 302 302 301 300 299 298 299 302 303 303 304 304 303 303 304 304 303 303 303 303 303 304 304 305 308 306 306 306
309 315 312 311 312 310 309 306 306 309 314 313 312 312 308 301 300 301 302 300 298 298 296 300 301 302 303 303 303 303 303 303 302 302 302 303 303 304 305 307 306 305 306 307
310 310 309 310 312 310 310 309 307 308 308 310 310 310 305 301 300 301 301 299 298 298 297 299 301 302 302 302 302 302 302 303 303 303 303 303 303 303 304 304 304 304 304 305
305 306 304 308 308 308 308 307 308 308 306 306 308 306 301 300 301 301 299 299 298 298 297 299 301 301 302 302 302 302 302 302 303 302 302 303 303 303 302 301 301 303 302 303
304 301 303 305 307 305 307 306 309 303 306 305 303 303 306 300 300 300 299 298 298 298 297 298 300 301 302 302 302 302 302 301 302 302 302 302 302 301 301 301 301 302 302 303
302 301 301 302 304 303 302 303 303 303 302 304 303 303 301 300 301 301 299 298 298 297 298 298 299 301 302 302 302 303 302 302 302 301 302 301 301 300 301 301 300 301 301 302
302 300 300 300 300 301 302 302 300 302 302 301 299 303 301 299 299 300 299 298 298 299 299 299 300 301 301 301 301 302 302 302 301 301 301 299 300 300 301 301 300 300 301 302
299 297 298 301 303 304 304 304 302 300 299 300 302 302 299 298 299 300 299 298 299 300 299 299 299 299 300 300 300 301 302 302 301 301 300 299 299 299 300 300 300 300 300 301
301 296 297 302 302 302 302 302 302 301 297 301 303 303 303 302 300 301 300 298 299 300 299 299 299 299 299 300 300 301 300 300 299 299 300 299 299 299 299 300 300 300 301 300
300 300 301 301 300 301 302 303 303 303 301 302 301 300 301 301 301 300 298 300 300 299 299 299 299 300 300 300 300 300 300 300 300 298 298 299 299 299 299 299 299 300 299 300
299 300 302 302 302 302 303 303 302 303 303 302 302 303 302 301 297 299 299 299 299 299 300 300 300 299 299 299 300 300 300 300 300 298 297 298 298 298 298 299 299 299 300 302
300 301 300 298 300 300 300 301 301 302 302 302 302 302 300 300 300 299 298 299 300 300 299 298 298 298 299 299 299 299 300 300 300 299 297 298 298 297 298 299 299 298 300 299
299 300 299 298 299 299 301 300 301 301 301 301 301 301 300 300 299 298 299 300 299 298 297 297 297 297 297 297 297 297 297 298 298 298 298 298 297 297 297 298 298 298 299 298
298 299 297 296 297 300 301 301 300 301 301 301 301 300 299 298 300 299 298 297 297 297 297 296 296 295 294 294 294 295 295 295 296 297 297 297 298 297 297 297 297 298 298 298
298 298 298 299 295 297 300 301 300 299 300 299 299 299 298 299 299 299 296 297 296 295 294 294 294 294 294 294 294 294 294 294 294 295 295 296 296 297 297 297 297 298 297 298
299 299 300 300 295 299 299 299 299 300 299 298 298 299 299 298 296 296 296 295 294 294 294 294 293 293 293 293 293 293 294 294 294 294 295 295 297 296 296 297 297 297 296 295
301 299 298 299 297 301 299 299 300 298 296 299 299 298 297 296 296 294 294 294 293 293 293 293 293 293 293 294 294 294 294 294 294 294 295 295 295 296 296 295 296 295 294 294
301 301 298 300 300 299 298 298 298 297 299 299 298 297 296 294 294 294 293 293 293 292 293 293 293 294 294 294 294 295 295 295 295 295 295 295 295 294 294 295 294 293 294 295
299 298 298 301 299 298 297 297 297 298 299 298 296 294 293 293 293 293 292 292 292 292 293 293 294 294 294 295 294 295 295 294 295 295 295 294 294 294 294 294 294 294 296 296
300 298 299 298 298 298 296 295 296 299 298 295 293 293 293 292 292 292 292 292 293 292 293 293 294 295 295 295 295 295 295 294 294 294 294 294 294 294 293 293 293 294 295 296
298 298 300 301 298 297 296 297 298 298 295 293 293 293 292 292 292 292 292 292 292 293 293 294 294 295 295 295 296 296 295 294 294 294 294 295 295 294 294 295 295 295 297 299

GFSCGP_925_thetae_036.txt.gz
Theta_e
312 313 312 313 313 313 313 313 313 312 313 308 307 306 305 304 303 302 302 302 302 302 302 304 304 303 303 304 303 305 307 306 306 306 305 305 305 305 306 308 310 312 312 313
311 313 313 313 314 315 315 315 313 313 314 308 307 306 306 305 304 304 303 303 303 303 301 302 304 303 303 303 303 303 307 306 305 305 305 305 305 305 305 305 305 306 306 308
314 315 315 315 315 315 314 314 314 315 314 307 306 308 305 303 302 302 302 302 303 302 302 301 303 304 303 303 303 303 305 305 305 305 305 304 303 303 303 304 305 306 305 305
314 313 315 315 315 314 315 313 315 316 315 312 310 312 306 302 301 301 300 297 298 300 300 301 302 303 304 303 303 303 303 304 304 304 303 302 302 302 303 304 304 307 306 306
313 313 315 316 315 315 315 311 313 315 314 313 313 316 311 300 301 301 301 299 298 297 297 300 302 303 303 304 303 303 303 303 303 303 303 302 302 302 303 305 306 307 305 305
314 312 313 314 313 313 310 310 308 310 310 312 310 313 310 301 300 301 301 300 298 297 296 297 302 303 303 303 302 302 302 303 303 302 303 302 302 302 303 304 304 304 304 303
309 313 308 310 311 308 308 303 305 306 311 312 311 312 309 302 299 300 301 300 298 297 296 295 298 301 302 302 302 302 302 302 302 302 303 303 302 302 302 302 302 301 301 303
309 312 309 308 310 310 310 307 306 306 305 306 308 310 307 300 299 299 300 299 297 297 296 295 298 300 301 302 302 302 303 302 302 302 302 302 301 302 302 302 301 300 300 302
304 304 303 305 305 306 307 306 306 306 305 304 304 305 302 300 299 300 300 298 297 297 296 296 299 300 301 302 302 302 301 301 302 302 302 301 301 302 302 301 300 300 300 301
303 301 302 304 305 303 306 304 306 302 305 305 302 301 304 300 299 299 299 297 297 297 297 296 299 301 302 302 302 301 301 301 301 301 302 301 301 301 301 300 299 300 300 300
301 299 301 301 303 303 301 303 302 302 301 304 303 302 299 301 299 299 298 297 297 297 297 297 299 301 301 301 301 301 301 301 301 302 301 301 301 301 300 299 299 300 300 300
300 298 299 300 299 300 302 302 300 303 302 299 298 302 300 298 298 298 298 298 297 297 298 298 299 300 300 299 299 299 299 300 300 299 300 299 298 299 299 299 299 299 299 300
299 297 299 301 302 303 303 303 301 299 299 299 301 301 299 299 299 297 299 297 296 298 298 298 299 298 298 298 299 299 299 298 299 299 299 298 299 298 298 299 299 299 299 299
300 296 298 304 303 302 303 302 301 300 298 301 302 302 301 299 298 298 299 296 297 298 298 298 297 298 299 298 297 298 298 298 299 299 298 298 298 298 297 298 299 298 298 299
299 301 299 299 298 298 299 299 301 301 300 301 301 299 300 299 298 299 297 298 298 297 298 299 299 298 297 297 297 297 298 298 298 298 299 299 299 298 297 297 298 298 298 299
298 300 301 300 301 301 302 302 301 301 302 301 302 302 301 300 298 298 297 297 297 299 299 298 297 296 296 296 296 296 296 296 296 296 297 297 298 298 297 296 297 297 297 298
299 300 299 297 298 299 299 299 301 301 301 301 301 301 300 299 299 298 297 297 299 299 298 296 296 296 295 294 294 294 294 294 294 294 295 295 296 297 297 297 297 297 297 297
298 299 299 297 297 299 302 300 300 301 301 301 301 300 300 299 298 297 297 298 297 296 295 295 295 294 293 293 293 293 293 293 293 293 293 294 294 295 296 297 297 297 297 297
297 299 297 296 296 299 301 300 300 300 301 301 300 300 298 297 298 298 297 296 295 295 294 293 293 293 293 293 293 293 293 293 293 293 293 293 294 294 295 295 296 296 296 296
297 297 297 298 294 298 301 300 299 299 300 298 298 299 298 299 298 299 295 295 294 293 293 293 293 293 292 293 293 294 294 294 294 294 294 294 294 294 294 294 296 296 296 295
299 298 300 298 294 298 298 299 298 299 303 297 298 298 299 298 296 296 295 293 293 293 292 292 292 292 292 293 294 294 295 294 294 295 295 293 295 294 294 295 295 295 296 295
300 299 298 297 297 301 299 298 300 299 297 297 298 298 297 296 296 294 293 292 292 292 292 292 292 293 293 294 294 295 295 295 295 295 295 294 295 294 294 294 294 294 294 294
299 300 299 299 299 299 299 298 297 296 297 298 298 297 296 294 293 292 292 291 292 291 292 293 293 293 293 294 294 294 295 296 296 296 295 294 294 294 294 294 293 293 293 292
297 297 298 298 298 299 299 297 296 296 297 298 297 295 293 292 292 291 291 291 291 291 292 293 293 293 294 294 294 295 296 296 295 295 294 293 293 293 294 294 293 293 293 293
298 297 298 297 299 299 297 295 295 297 297 296 293 293 292 292 291 291 291 291 291 291 292 292 293 294 294 294 294 294 296 295 295 295 294 293 293 293 294 294 294 293 293 293
296 298 298 304 302 299 296 296 296 297 297 293 293 292 292 291 291 291 290 291 291 292 291 292 293 294 294 294 294 295 295 295 295 294 294 294 294 294 295 295 294 295 295 296

GFSCGP_925_thetae_039.txt.gz
Theta_e
312 315 315 314 312 312 313 313 314 313 313 311 309 308 307 305 305 305 305 305 305 305 303 303 303 303 303 302 303 305 305 304 304 304 304 305 304 304 304 304 305 305 305 306
314 315 313 313 313 314 315 315 315 313 313 312 308 308 306 306 305 305 305 305 305 305 304 303 303 303 303 303 303 303 304 304 304 304 304 303 303 303 302 302 303 305 306 305
315 315 314 314 314 316 314 315 314 316 313 308 308 310 307 305 305 305 305 304 304 305 305 304 304 303 303 303 303 303 303 303 303 303 303 303 303 303 303 303 302 303 306 306
314 313 315 314 315 314 316 313 315 316 317 318 310 313 309 304 304 302 303 301 301 301 302 303 304 303 303 303 303 302 302 302 303 303 302 302 302 302 302 302 303 304 306 305
313 313 315 316 315 315 316 311 312 315 316 314 314 316 315 303 303 302 302 302 301 301 300 300 300 302 303 302 302 302 302 303 302 302 302 301 301 302 302 302 303 303 305 304
312 311 312 313 313 312 309 310 309 311 313 315 311 317 316 305 304 302 302 302 302 301 301 300 300 299 302 302 302 303 303 303 303 303 302 302 302 302 301 302 302 302 302 301
310 312 308 310 311 309 309 306 311 311 312 315 312 315 316 306 302 303 303 302 302 301 301 301 300 300 301 302 302 303 303 302 302 301 301 302 302 302 301 301 301 302 303 301
310 314 309 307 310 309 310 308 310 311 309 309 307 313 312 304 302 302 302 301 300 300 300 301 300 300 301 302 302 302 301 301 301 301 301 301 301 301 301 301 301 301 302 301
306 305 303 304 304 306 308 309 308 307 305 307 307 307 305 301 301 300 302 301 301 300 301 300 299 300 301 301 300 300 300 300 299 300 299 300 300 300 300 300 300 301 301 299
302 303 301 304 304 303 306 305 307 306 308 307 306 304 308 303 302 301 301 301 301 300 300 301 301 301 300 300 299 299 299 299 299 299 299 299 299 299 299 299 299 299 299 299
300 300 301 301 304 305 305 306 303 304 305 308 307 308 302 304 303 302 301 301 301 300 300 300 301 300 299 299 299 299 299 299 298 298 298 299 299 299 299 298 299 299 299 299
300 298 301 301 299 300 302 302 304 309 305 302 303 308 302 302 301 301 301 300 300 299 300 300 300 299 299 299 299 298 298 297 297 297 298 298 299 299 299 298 298 299 298 298
300 299 305 304 303 303 303 302 300 301 302 305 307 308 301 300 300 300 301 300 300 299 299 300 299 299 298 298 297 297 296 296 296 297 297 297 298 298 298 298 299 298 298 297
300 297 302 311 305 303 305 303 301 303 306 305 305 307 306 303 302 302 301 300 299 299 299 299 299 299 298 296 296 296 296 295 296 296 296 296 296 297 297 298 298 298 297 297
300 302 299 299 298 298 300 301 302 303 304 305 306 303 304 302 301 301 300 299 299 299 300 300 299 297 296 296 295 295 294 294 294 294 294 294 294 295 295 296 297 297 297 297
298 302 302 301 301 301 303 303 302 302 303 301 303 303 303 302 300 299 300 299 299 300 299 298 296 295 295 294 294 294 293 293 293 293 293 293 293 294 294 294 295 296 296 297
301 302 301 302 298 299 302 301 302 302 301 302 303 304 301 300 300 300 299 299 300 299 297 296 295 294 294 293 293 293 293 293 294 294 294 294 294 294 294 294 294 295 296 297
299 301 301 302 300 305 305 300 300 302 302 302 302 303 302 301 299 299 299 299 298 297 296 295 294 293 293 293 293 293 293 294 295 295 295 294 294 294 294 294 294 294 295 296
298 301 302 302 300 302 303 300 301 301 303 302 302 302 301 299 299 299 298 296 296 296 294 293 293 292 292 292 293 293 294 295 295 294 295 295 294 295 295 294 294 294 295 295
297 297 300 299 300 304 303 300 299 299 304 300 301 301 299 300 302 302 297 297 295 293 293 292 292 292 292 293 293 294 295 295 295 295 296 296 296 295 294 293 294 294 295 296
300 300 302 302 301 301 299 300 298 303 308 299 299 299 299 302 301 299 297 295 293 293 292 292 292 293 293 293 293 294 295 295 295 295 296 296 296 295 293 294 293 294 294 295
302 301 301 300 301 304 299 299 303 303 297 298 298 299 300 299 298 297 295 293 293 292 292 292 292 293 293 294 294 294 295 294 294 295 295 295 296 295 294 294 294 294 294 294
301 302 302 301 302 300 299 301 299 297 298 298 299 299 298 297 295 294 293 293 292 291 291 292 292 292 293 294 294 294 294 294 295 295 294 295 295 294 293 293 294 294 294 294
297 297 300 299 300 300 300 300 298 297 298 298 298 297 295 294 293 293 292 292 291 291 291 292 292 292 293 293 293 294 294 295 295 295 295 295 295 294 294 293 294 294 294 294
298 297 299 298 299 300 299 298 298 297 297 297 296 295 294 293 293 292 292 292 291 291 291 291 292 292 293 293 293 294 294 295 294 294 295 295 294 295 294 294 295 295 295 294
297 301 301 306 303 301 301 298 296 296 297 297 295 293 293 292 292 291 292 291 290 291 290 291 292 292 292 293 293 294 293 294 294 294 295 295 295 295 295 295 295 295 296 296

GFSCGP_925_thetae_042.txt.gz
Theta_e
319 320 319 319 319 318 319 320 320 319 317 318 317 317 314 311 310 310 310 309 308 308 307 306 306 306 305 305 305 305 306 306 306 305 306 305 305 305 305 305 306 306 308 308
319 319 318 317 317 319 319 320 320 318 317 318 319 318 314 311 310 310 310 309 308 308 308 307 306 306 306 306 305 305 305 305 305 305 305 305 305 305 305 305 305 305 306 307
319 320 317 318 319 319 320 319 318 319 318 315 316 319 315 311 310 309 308 308 308 308 308 308 307 307 306 306 306 305 304 304 304 305 305 304 304 304 304 304 304 304 305 306
319 317 318 318 319 318 320 316 318 318 319 321 315 316 317 313 310 309 309 308 308 307 307 306 306 306 307 306 305 305 304 304 304 304 304 304 304 304 304 304 304 304 304 305
319 317 318 319 319 318 320 315 316 317 318 317 318 318 320 313 311 310 309 307 307 306 306 306 305 305 304 306 305 305 305 304 304 303 303 303 304 304 304 304 304 304 304 304
317 315 315 317 316 315 313 314 315 316 317 320 317 318 319 314 313 311 308 307 306 306 306 305 305 305 305 306 306 306 305 303 303 302 302 302 302 302 303 303 304 303 303 304
317 317 313 313 316 314 314 315 317 319 322 321 317 319 319 316 310 311 308 307 307 306 306 306 305 305 305 305 304 303 302 302 301 301 301 301 301 301 302 302 303 303 303 303
317 319 314 310 314 314 314 314 315 316 316 316 315 318 317 309 309 308 308 307 306 306 306 306 305 304 304 304 303 302 301 301 300 300 300 300 300 300 301 301 302 302 302 302
312 312 308 307 309 310 313 314 313 313 311 312 314 313 312 307 307 307 307 306 306 306 305 305 304 304 304 303 302 301 301 300 300 300 300 299 299 299 300 300 300 301 301 301
308 309 306 307 307 308 310 310 313 313 314 315 314 312 314 310 308 307 307 307 307 305 305 305 304 304 303 302 301 301 300 300 299 299 299 298 299 299 299 299 300 300 300 300
306 306 306 306 309 311 310 311 310 311 312 314 315 315 311 310 310 309 308 308 307 306 305 304 304 303 302 301 301 300 299 299 298 298 298 298 298 299 299 299 299 300 299 299
304 306 308 307 304 304 306 308 310 312 313 311 312 313 308 308 308 308 308 308 307 305 304 304 303 302 302 301 300 298 298 297 298 298 298 298 298 298 298 299 299 299 299 299
305 307 312 310 309 306 307 307 306 308 309 313 313 314 307 307 307 307 307 306 306 305 304 304 303 302 301 299 298 297 297 297 297 297 297 296 296 296 297 297 297 298 298 299
304 306 309 314 312 309 309 308 306 308 313 312 312 312 311 310 308 307 306 305 305 305 304 303 303 301 299 298 297 297 297 297 296 296 296 296 296 296 296 296 296 296 297 297
306 308 305 306 305 303 304 305 306 307 308 309 312 311 310 309 309 308 306 304 304 304 303 303 302 299 298 297 296 296 297 296 296 296 296 296 296 296 295 295 295 296 296 296
305 308 306 307 304 305 306 306 307 306 306 307 307 308 308 307 306 305 304 304 303 303 303 301 300 298 297 296 296 296 296 296 296 296 296 296 297 297 296 296 295 296 295 295
307 307 307 310 303 304 308 308 308 307 306 306 308 310 307 306 305 305 305 304 303 302 301 300 298 296 296 296 296 296 296 295 295 295 295 296 295 296 296 296 295 295 296 296
306 306 306 309 306 315 310 306 305 306 307 307 306 307 308 307 306 304 303 303 302 301 300 298 296 296 295 295 295 295 294 294 295 295 296 296 296 296 296 296 296 296 296 296
303 305 307 310 309 310 311 306 306 305 307 307 307 307 307 305 303 305 303 301 301 300 297 296 295 295 295 295 295 294 294 294 295 295 296 295 295 295 296 296 296 295 296 294
302 303 305 305 310 315 311 304 303 303 309 307 306 306 306 304 306 306 302 301 300 297 296 295 294 294 294 295 294 294 294 294 294 295 295 295 295 296 296 296 296 295 294 295
305 305 308 310 310 309 307 303 302 308 313 306 304 304 304 305 304 303 302 300 297 295 295 294 294 294 294 293 294 294 294 294 295 295 295 295 295 295 295 295 295 295 295 294
310 312 310 308 309 312 305 303 306 310 306 304 304 303 303 303 303 302 300 298 296 295 294 294 294 294 293 293 293 294 294 294 295 295 295 295 295 295 295 295 294 294 294 295
308 308 312 310 311 307 304 306 306 305 304 305 304 303 303 303 302 300 298 297 295 294 294 293 294 293 293 293 293 294 294 294 294 294 294 294 295 295 295 295 295 295 295 295
304 304 305 306 307 306 307 306 305 304 304 304 303 302 302 302 300 298 297 296 295 294 293 293 293 293 293 294 293 294 293 294 294 294 294 295 295 296 296 295 295 296 296 296
305 302 306 308 307 306 306 307 306 305 303 301 301 301 301 299 298 297 296 295 294 293 293 292 293 293 293 292 293 294 293 294 293 293 294 294 295 295 296 296 296 296 296 296
304 305 307 309 307 307 306 305 304 302 302 302 301 300 298 297 297 295 295 294 293 293 292 292 292 293 292 292 293 293 293 293 293 293 294 294 295 295 295 296 297 296 297 297

GFSCGP_925_thetae_045.txt.gz
Theta_e
320 321 321 321 321 321 319 320 321 322 321 319 320 321 320 317 315 316 315 314 313 312 310 309 308 308 308 308 308 307 307 307 307 307 307 306 306 306 307 307 307 307 307 307
320 320 322 320 320 321 321 322 323 322 320 319 321 323 321 318 315 315 315 314 312 311 310 309 309 308 308 308 308 307 307 306 306 306 306 306 306 305 306 306 306 306 306 306
321 323 320 320 321 322 322 322 321 320 322 321 321 322 321 319 315 314 314 313 312 312 311 311 310 309 309 308 308 307 307 306 306 306 306 305 305 305 305 306 306 306 306 305
321 320 320 320 321 321 322 320 319 320 322 322 320 318 324 319 315 314 313 312 312 311 311 310 309 309 308 308 308 307 307 306 306 305 305 305 305 305 305 305 305 305 305 305
322 320 320 321 321 320 322 319 320 321 321 319 320 321 323 320 317 315 313 312 312 311 310 309 308 307 307 307 307 307 307 306 305 304 304 303 303 304 304 304 304 304 305 305
321 318 318 320 319 318 318 318 319 319 319 320 321 321 323 320 318 316 314 313 311 310 309 308 308 307 307 307 307 307 306 304 304 303 303 302 303 303 303 303 303 304 304 305
319 319 316 316 318 318 318 319 320 325 326 325 320 319 319 320 316 316 315 313 310 310 309 309 308 308 307 307 306 305 304 304 303 302 302 302 302 302 302 302 303 303 304 304
319 323 318 314 317 318 318 318 318 320 320 320 318 319 320 314 314 313 313 311 310 309 309 309 308 307 307 306 305 305 304 303 303 302 301 301 301 301 301 301 301 302 302 303
316 317 312 311 312 313 317 315 317 315 316 316 318 318 315 312 311 311 311 311 310 309 309 308 308 307 307 306 305 304 303 303 302 301 301 300 300 300 300 300 301 301 301 302
312 312 311 311 310 312 313 313 317 317 317 319 318 318 317 313 312 311 311 310 310 310 309 308 307 306 306 305 304 303 303 301 301 300 300 300 300 300 300 300 301 301 301 301
309 310 310 309 311 314 313 313 312 313 315 316 317 318 314 313 313 312 311 311 310 310 309 308 307 306 305 304 304 303 301 300 299 299 299 299 299 299 299 299 299 299 300 300
309 311 312 312 308 308 310 312 313 315 317 316 316 317 314 312 311 310 310 310 310 310 309 307 306 306 305 304 303 301 300 299 299 299 299 299 299 299 298 298 298 298 298 299
309 311 314 313 312 309 308 310 310 311 313 315 316 316 311 310 310 310 309 309 308 308 308 307 306 305 304 303 301 300 299 298 298 299 299 299 298 298 298 298 298 297 297 297
306 311 312 315 314 311 312 312 310 310 313 315 315 316 315 315 312 311 310 309 308 307 307 306 306 305 303 302 300 299 298 298 298 298 298 298 298 298 298 298 298 298 297 296
309 311 311 311 310 309 309 308 309 310 311 312 313 312 312 312 311 309 308 307 307 306 306 305 305 303 302 300 298 298 298 298 298 298 298 298 298 297 297 296 296 297 297 297
309 311 310 310 309 308 308 309 309 310 310 310 310 311 312 309 309 308 308 308 307 306 305 304 304 302 299 298 298 297 297 297 297 297 297 297 296 296 296 296 297 296 296 297
309 310 311 313 309 309 312 313 312 312 310 311 311 312 310 309 309 309 308 307 306 305 304 303 302 299 298 298 297 297 297 297 296 296 296 295 295 295 296 295 296 296 296 297
309 308 309 313 312 317 315 313 311 309 309 309 309 310 309 309 309 308 307 306 305 304 303 302 299 298 297 297 297 297 296 296 296 295 295 295 295 295 296 296 296 296 296 296
306 308 311 315 316 314 313 308 309 308 309 310 310 309 309 309 308 309 306 304 303 303 302 299 298 297 296 296 296 296 296 295 295 295 295 295 295 296 296 295 296 296 296 296
305 307 310 313 315 318 313 307 305 306 312 308 308 308 308 308 309 309 305 304 303 301 299 298 297 296 296 296 295 295 295 294 294 295 295 295 295 295 295 295 296 296 296 296
309 310 312 314 316 314 312 307 305 311 314 310 309 308 307 307 307 306 305 304 302 300 298 297 296 296 296 295 295 294 294 294 294 295 295 294 294 295 295 296 296 296 296 295
314 316 315 313 315 316 309 306 309 310 309 309 308 307 307 306 306 305 304 303 301 299 297 296 296 296 295 295 295 295 294 294 295 294 294 294 294 294 295 295 296 296 296 296
312 311 313 313 315 312 309 308 308 308 308 308 307 307 306 305 305 304 303 301 300 297 296 296 295 295 295 295 294 294 293 294 294 294 294 294 294 294 295 296 296 296 296 296
310 309 310 310 309 309 309 309 309 308 307 306 305 305 305 304 304 303 302 300 298 297 296 295 295 294 294 295 294 293 294 293 293 294 294 294 294 295 296 295 295 296 296 296
309 307 308 308 308 308 308 307 306 306 306 305 305 305 304 304 303 302 301 299 297 296 295 295 294 294 294 293 293 293 293 294 294 294 294 294 295 295 295 295 295 296 297 297
308 308 309 310 306 306 306 305 305 306 305 305 304 304 303 302 301 300 299 297 296 295 294 294 293 293 293 292 293 293 294 294 294 294 294 294 295 295 295 295 295 296 299 299

GFSCGP_925_thetae_048.txt.gz
Theta_e
322 322 323 322 322 322 320 320 320 321 322 322 322 321 321 318 316 316 315 312 311 310 310 309 309 308 308 308 308 308 307 307 306 306 306 306 306 306 306 305 305 306 306 306
321 320 322 321 321 321 321 321 322 324 321 320 320 320 321 318 316 315 315 313 311 310 308 309 309 309 309 309 309 308 307 307 306 306 306 306 306 305 305 305 306 306 306 305
321 323 320 320 321 321 322 323 323 321 322 321 322 323 323 320 317 315 315 313 312 310 309 307 309 309 309 309 309 308 307 307 306 306 305 305 304 304 304 305 305 304 305 305
322 321 320 321 321 322 324 321 321 321 322 324 321 321 322 319 316 314 313 312 311 310 311 311 310 309 309 308 307 308 307 307 307 305 304 304 304 304 304 304 304 304 304 304
322 322 321 322 322 321 323 321 321 322 322 320 319 320 322 319 317 314 312 312 311 310 309 309 309 308 308 307 307 308 308 307 306 304 304 303 303 303 303 303 303 303 303 303
321 319 319 320 320 319 318 319 321 321 320 320 318 320 322 319 318 316 313 312 311 310 309 309 308 308 308 307 307 307 307 306 304 304 303 303 302 302 302 302 302 302 302 303
321 320 317 316 318 319 319 321 323 325 326 325 321 321 319 316 314 315 314 311 310 309 308 307 307 308 308 307 307 306 306 305 304 303 303 302 302 301 301 301 301 301 301 301
320 323 319 316 318 318 321 319 320 321 321 319 319 320 318 314 313 313 314 311 310 308 307 307 308 308 307 307 307 306 305 304 304 303 302 301 301 300 300 300 300 300 300 301
317 318 313 313 313 314 318 316 317 315 314 315 317 318 314 312 311 311 311 310 309 308 308 308 308 308 307 307 307 305 304 304 303 302 300 300 300 300 300 300 300 300 300 300
312 312 313 311 311 313 313 314 317 315 318 319 318 318 316 312 311 311 310 310 310 309 308 307 308 307 307 306 305 305 304 303 301 300 300 299 299 299 299 299 299 299 299 299
310 311 311 309 312 315 313 312 312 313 314 315 316 316 313 313 312 310 309 309 309 308 307 306 307 307 306 306 305 304 303 301 300 299 299 299 299 299 299 299 299 299 298 298
309 310 312 312 309 309 311 313 313 315 317 318 316 316 309 309 309 309 308 309 308 309 308 306 307 307 306 305 304 303 301 300 299 299 298 299 299 299 299 298 298 299 299 298
310 311 313 311 311 310 308 310 311 310 312 316 314 313 309 309 310 309 309 309 308 308 306 306 306 305 305 304 303 301 299 299 298 298 298 298 298 298 298 298 298 298 297 296
308 312 313 316 313 313 312 313 311 310 313 312 313 313 312 311 310 308 307 306 305 306 306 305 304 304 304 303 301 299 298 298 298 298 298 298 297 297 297 297 296 296 296 296
309 312 311 312 311 311 310 310 310 309 310 310 310 310 310 309 307 307 307 308 307 306 306 305 304 302 303 301 299 298 298 297 297 297 297 297 297 296 295 295 295 295 296 296
310 312 311 310 311 309 309 309 309 309 310 309 309 310 309 310 308 307 307 307 307 306 305 304 303 302 300 299 298 297 297 297 297 297 296 296 295 295 295 295 295 295 295 296
311 311 312 315 311 312 313 313 312 311 312 311 310 311 311 309 308 307 307 306 306 305 304 302 301 300 298 298 297 297 297 297 296 296 295 295 295 295 295 295 296 295 295 296
311 310 310 315 312 317 314 311 310 312 310 310 310 310 310 309 308 307 306 306 305 303 302 301 300 298 298 297 297 296 296 295 295 295 294 294 295 295 295 295 294 295 295 295
307 309 313 316 316 315 312 309 309 308 308 310 309 309 308 308 307 307 304 303 303 302 302 300 299 297 297 296 296 296 295 295 295 294 294 294 295 294 294 294 294 295 295 296
307 307 309 313 315 316 314 307 306 306 310 310 309 308 308 307 306 307 305 304 304 302 301 299 297 297 296 296 296 295 295 295 294 294 294 295 294 294 294 294 294 295 295 295
308 308 309 311 315 315 312 307 306 310 312 308 308 307 307 306 305 305 304 304 303 301 300 298 297 296 296 296 295 295 295 294 294 294 294 294 294 294 294 294 294 295 295 296
313 315 314 312 315 314 308 306 308 309 308 308 307 306 306 305 305 305 304 303 302 301 298 297 296 296 295 295 295 295 294 294 294 293 293 293 294 294 294 294 295 296 296 296
312 311 313 314 315 312 308 308 308 308 306 306 305 305 305 305 304 304 303 302 301 299 297 296 295 295 295 294 294 294 293 293 293 293 294 294 294 294 294 295 295 295 295 296
310 309 310 309 310 308 307 306 305 305 305 305 305 304 304 304 303 302 302 300 299 298 296 296 295 294 294 293 293 293 293 293 293 293 294 294 294 294 295 295 295 295 295 296
309 308 308 307 306 306 306 304 304 305 304 304 304 304 303 302 303 302 301 299 299 297 296 295 294 294 293 293 292 292 293 293 293 294 294 294 294 295 294 294 295 295 297 301
307 307 307 307 304 303 303 304 304 304 304 303 303 303 302 302 302 301 300 299 297 296 295 294 294 293 293 292 292 293 293 293 294 294 293 294 295 294 294 294 294 296 299 301

GFSCGP_925_thetae_051.txt.gz
Theta_e
320 317 317 316 318 318 318 317 317 317 320 318 317 317 317 314 312 311 310 306 306 306 306 308 308 308 308 308 308 307 307 306 306 306 306 305 305 305 305 304 303 304 305 305
316 316 318 319 319 319 319 319 318 320 320 318 318 318 316 315 314 313 311 308 306 305 304 307 308 308 308 308 308 308 307 307 306 306 306 305 304 304 303 303 303 304 303 303
316 321 319 320 320 320 320 320 319 319 319 318 318 318 318 316 313 312 312 310 307 305 304 304 307 308 308 309 308 308 308 307 306 306 305 304 304 303 303 303 303 302 302 303
319 319 320 319 320 319 320 320 320 320 319 318 318 317 314 315 313 312 311 309 308 305 304 304 305 307 308 308 307 307 307 307 307 306 304 304 303 303 302 302 302 302 302 302
317 319 320 320 321 319 321 319 319 319 318 316 316 316 313 314 314 312 309 309 308 305 305 305 307 307 307 307 307 307 307 307 307 306 304 303 303 302 302 302 301 301 301 301
319 318 317 318 318 318 317 317 317 318 315 316 314 315 315 316 315 312 309 308 308 306 306 306 307 307 307 307 307 307 307 306 305 305 304 303 302 301 301 300 300 300 300 300
318 318 315 315 317 317 317 315 317 319 320 319 316 316 314 315 313 313 310 308 307 306 305 303 304 306 306 307 307 306 306 306 305 304 303 302 301 300 300 300 300 300 300 300
317 320 315 315 316 316 317 315 316 318 319 314 316 315 313 310 308 307 309 307 306 305 303 303 305 306 307 307 307 306 306 305 304 303 302 300 299 299 299 299 299 299 299 299
310 315 312 310 311 313 315 312 312 311 310 310 311 314 311 309 309 308 306 305 305 304 303 304 305 307 307 307 307 306 305 304 303 301 300 299 299 299 299 299 299 299 299 299
309 309 311 310 310 311 312 311 312 310 313 315 312 314 313 310 309 309 306 306 306 305 304 304 305 306 307 306 306 305 304 302 300 299 299 298 298 298 298 298 298 298 298 298
308 306 309 308 309 311 310 308 309 308 309 311 310 310 309 310 309 307 307 306 305 305 304 303 304 306 306 306 305 303 302 300 299 298 298 298 298 298 298 298 298 298 298 297
306 306 308 308 307 307 309 310 308 311 311 310 309 311 307 305 305 305 306 306 306 306 306 304 304 305 305 304 303 302 300 299 298 298 298 297 297 298 297 297 297 296 296 296
307 305 307 310 311 310 306 308 309 306 307 308 307 308 306 306 307 308 308 306 303 305 304 303 303 302 302 302 302 300 298 298 298 297 297 297 297 297 296 296 295 295 294 295
307 307 308 311 310 309 309 311 309 307 305 307 308 308 308 306 307 306 306 305 305 305 304 303 301 301 301 301 299 298 298 297 297 297 297 296 296 296 295 294 294 294 294 295
306 309 309 309 309 309 309 309 308 307 306 308 308 308 307 306 306 306 306 305 305 304 303 303 301 300 300 298 298 297 297 297 296 296 296 296 295 295 294 294 294 294 295 295
305 307 308 308 309 308 308 308 307 307 307 306 306 306 307 307 306 304 303 305 304 304 303 302 300 299 297 297 297 296 296 296 296 295 295 295 294 294 294 294 294 294 295 295
307 307 306 308 310 309 309 310 310 309 308 308 308 307 307 306 306 305 304 303 303 302 301 300 298 297 297 297 296 296 296 296 295 295 294 294 293 293 294 294 294 294 294 294
307 306 306 305 308 310 309 307 307 309 308 307 307 307 306 306 306 304 302 302 301 302 300 298 297 297 297 296 296 296 296 295 295 294 294 293 293 293 294 294 293 294 294 294
303 304 305 305 306 309 310 306 306 306 307 308 307 307 306 305 304 303 303 303 302 302 299 298 297 297 296 296 295 295 295 295 294 294 293 293 293 293 293 293 294 294 294 294
304 302 304 306 303 306 309 306 305 305 304 307 307 306 306 304 305 302 303 302 301 300 300 298 297 296 296 295 295 294 294 294 293 293 293 293 293 293 293 294 294 294 294 295
304 303 302 302 302 307 308 305 305 307 305 306 306 305 305 304 302 302 302 302 302 300 299 297 296 296 295 295 294 294 293 293 293 292 293 293 293 293 294 294 294 294 295 295
306 303 305 304 305 309 306 305 308 305 305 305 304 304 304 303 303 303 302 301 301 299 297 296 295 295 295 294 293 293 292 292 292 292 293 293 293 294 294 294 295 295 295 295
308 308 307 307 307 306 305 304 305 304 303 303 303 302 302 302 302 301 301 301 299 297 296 295 295 294 294 293 293 292 292 292 292 293 293 293 293 293 294 295 294 294 295 295
307 306 304 305 306 305 303 303 302 303 303 302 302 302 302 301 301 300 300 298 297 296 295 295 294 293 293 293 292 292 292 292 292 293 293 293 293 294 294 294 294 294 294 295
305 306 305 304 304 304 302 302 301 301 301 301 300 301 301 300 300 300 299 298 296 295 295 294 294 293 292 292 292 291 292 292 292 293 293 293 293 294 294 294 294 294 296 299
305 305 304 303 301 301 301 301 301 301 300 300 300 300 300 300 299 300 297 297 295 295 294 294 293 293 292 292 291 292 291 292 292 293 293 293 294 293 293 293 293 296 300 300

GFSCGP_925_thetae_054.txt.gz
Theta_e
318 316 313 313 316 315 317 316 316 315 318 318 317 317 315 313 310 310 307 305 304 303 305 307 307 307 307 307 307 306 307 307 306 306 306 305 304 304 303 302 302 302 302 302
315 316 314 317 318 318 318 318 317 318 319 318 317 317 316 314 313 312 310 306 305 303 302 304 307 307 307 307 307 307 307 307 306 306 305 304 304 303 303 302 302 302 302 302
315 319 319 319 319 320 319 319 319 318 318 316 317 317 316 315 313 311 310 307 305 304 303 302 305 307 307 308 307 307 307 307 306 306 306 305 304 303 303 302 301 301 301 301
316 318 319 318 318 318 319 319 319 319 317 317 315 315 314 313 313 311 310 307 305 303 304 303 304 305 307 308 308 307 307 307 307 306 306 304 303 302 302 301 301 300 300 300
317 318 318 319 319 318 318 318 318 318 316 315 314 315 312 314 315 311 309 308 306 303 303 302 303 306 307 307 307 307 307 307 307 306 305 304 303 302 301 300 300 299 299 299
317 317 317 318 317 317 317 316 314 314 313 315 313 312 310 315 315 312 309 308 307 304 303 303 305 306 307 306 306 307 307 307 306 305 304 303 302 301 300 299 299 299 299 299
317 317 314 315 316 316 314 312 312 316 319 318 314 313 310 311 310 312 310 308 306 304 303 303 302 304 305 306 306 306 306 306 306 304 303 302 300 299 299 299 299 299 299 298
316 318 315 314 315 316 316 313 313 318 320 317 310 316 313 309 307 305 308 307 305 304 303 302 302 304 305 306 306 306 306 306 304 303 301 299 299 299 298 298 298 298 298 298
310 315 311 310 310 313 314 313 310 311 308 308 308 312 309 309 307 305 306 306 306 305 302 301 303 305 306 306 306 306 305 303 302 300 299 298 298 298 298 298 298 298 298 298
307 308 311 310 309 310 311 310 311 308 310 314 310 310 311 310 309 307 307 306 305 304 302 301 303 305 305 305 305 304 302 301 299 298 298 298 297 297 297 297 297 297 297 297
306 305 307 307 308 309 308 308 308 307 308 310 309 307 307 308 308 307 306 304 304 303 302 301 302 303 304 304 303 302 300 299 298 297 297 297 297 297 297 297 296 296 296 295
305 304 307 307 306 307 308 307 306 309 310 306 306 311 307 305 305 305 305 305 303 304 304 303 303 303 303 302 301 299 298 298 297 297 297 296 296 296 296 296 296 295 294 294
306 303 305 308 310 309 305 306 307 306 304 306 306 306 305 304 306 303 305 304 303 304 303 302 301 301 300 300 298 298 297 297 297 296 296 296 296 295 295 295 294 293 294 294
306 304 306 309 311 308 309 309 307 305 303 305 306 306 307 305 306 305 304 303 303 303 302 301 300 298 299 297 297 297 297 296 296 296 296 295 295 294 294 294 293 293 293 293
305 305 308 307 307 308 308 308 308 306 305 306 307 306 305 304 305 304 303 303 303 302 302 301 298 297 297 297 297 297 296 296 296 296 295 295 294 294 293 293 293 293 294 294
303 304 307 307 309 308 309 308 308 307 306 305 305 306 306 303 303 303 303 302 302 301 300 300 299 298 296 296 296 296 296 295 295 295 294 294 294 293 292 292 293 293 293 294
306 306 305 308 307 308 306 310 309 309 306 307 307 306 304 305 305 304 303 302 302 301 301 300 298 296 296 296 296 295 295 295 295 294 294 293 293 292 292 293 293 293 293 293
305 304 304 303 306 307 305 306 306 307 307 306 307 307 306 305 304 302 301 303 301 300 299 298 297 296 297 296 295 295 295 294 294 294 293 292 292 292 292 293 293 293 294 294
302 303 304 303 304 305 308 305 306 307 306 307 306 306 305 304 303 303 303 302 301 299 299 298 297 297 296 295 295 294 294 294 293 292 292 292 292 292 293 293 293 294 294 294
302 300 302 304 302 304 304 305 304 303 304 307 306 305 305 303 303 302 301 301 300 301 299 298 297 296 295 295 294 293 293 292 292 291 292 292 292 292 293 293 293 294 294 294
303 301 303 301 301 304 305 306 303 306 303 305 305 304 304 303 301 301 300 301 302 300 299 297 296 295 294 294 293 292 292 292 292 292 291 292 292 293 293 293 293 294 295 295
305 302 302 301 302 307 305 304 306 304 304 304 303 303 302 301 301 301 301 300 300 299 297 295 295 294 294 293 292 292 291 292 292 291 291 292 292 293 293 293 295 294 294 294
307 305 306 305 305 304 303 304 303 302 302 302 301 301 301 301 300 300 299 298 298 297 296 295 294 293 293 293 292 291 291 292 291 291 292 292 293 293 294 294 294 294 294 295
307 303 304 304 305 304 302 302 301 302 302 300 300 300 300 299 299 298 298 297 296 295 294 294 293 293 292 292 292 291 291 291 291 291 292 292 292 294 294 294 294 294 294 296
306 305 304 303 303 301 301 301 301 301 300 300 299 299 299 299 298 298 297 297 295 295 294 294 293 292 292 292 291 290 291 290 291 291 292 292 293 294 293 293 293 294 296 299
303 305 304 304 301 301 300 300 301 300 300 299 298 298 298 298 297 298 296 296 295 294 294 293 293 292 292 291 291 291 290 291 291 292 292 293 293 293 293 293 293 294 297 298

GFSCGP_925_thetae_057.txt.gz
Theta_e
316 315 312 314 314 313 315 315 315 314 316 318 316 316 315 312 310 309 307 305 303 302 304 305 307 307 307 307 306 306 306 306 306 306 305 305 305 304 303 303 302 301 301 301
315 315 313 314 317 317 317 316 315 315 318 317 316 316 315 313 312 311 310 306 304 302 302 303 305 305 306 306 306 306 306 306 306 306 305 305 304 304 303 302 302 301 300 300
314 317 317 317 318 318 318 317 317 317 316 315 315 316 315 314 312 311 309 307 305 303 302 301 303 305 306 306 306 306 306 306 306 306 305 305 304 304 303 302 301 300 300 299
316 316 318 317 318 316 318 317 318 318 316 317 315 317 313 312 311 311 308 305 304 302 302 302 302 304 306 306 306 306 306 306 306 306 306 304 304 303 302 301 300 300 299 299
316 318 318 318 318 317 317 317 316 316 314 315 313 313 311 312 314 312 308 306 304 302 302 301 303 305 306 306 306 307 306 306 306 306 305 304 303 302 301 300 299 299 299 298
316 316 316 317 316 316 316 314 312 313 312 314 312 311 312 314 313 310 310 307 306 303 301 302 304 305 305 306 306 306 306 306 306 305 304 303 302 300 299 299 298 298 298 298
316 317 314 314 316 315 312 310 312 313 316 314 313 311 311 309 309 308 308 308 306 304 301 301 301 303 305 305 305 306 306 306 305 304 303 301 299 299 298 298 298 298 297 297
314 316 315 312 314 314 314 310 311 315 318 318 311 314 313 309 305 304 305 307 306 304 302 301 302 303 304 305 305 306 305 304 303 302 300 299 298 298 298 297 297 297 297 297
310 313 310 310 310 312 313 314 310 309 307 308 308 308 310 307 305 304 305 307 307 305 303 302 302 303 303 304 304 304 304 303 300 299 299 298 298 297 297 297 297 297 296 296
307 309 309 309 309 309 311 308 310 307 310 311 309 308 311 307 307 305 306 307 307 305 303 300 300 302 303 303 303 302 301 299 298 298 298 297 297 296 296 296 296 296 295 295
305 305 307 307 308 308 308 309 306 306 307 310 309 306 305 307 307 308 307 302 302 302 302 301 301 303 303 302 301 299 298 298 298 297 297 296 296 296 295 295 295 294 294 294
304 302 305 306 305 306 307 307 305 305 307 304 304 310 306 303 303 303 304 303 302 301 301 300 302 301 300 299 298 298 298 298 297 296 296 296 296 295 295 294 294 294 293 293
304 302 303 307 308 308 305 305 305 304 303 306 306 306 303 303 304 302 302 301 300 301 301 300 299 298 298 298 297 297 297 297 296 295 296 295 295 294 294 294 294 293 292 292
304 302 304 306 310 308 308 308 305 304 302 303 304 305 306 304 303 301 302 301 301 300 300 299 298 297 298 297 297 297 297 296 295 295 295 295 294 294 294 293 292 292 292 292
302 302 305 306 306 307 307 307 307 305 304 306 306 305 305 303 302 303 303 301 301 301 300 300 298 298 297 296 297 296 295 295 295 295 294 294 294 294 293 292 292 292 292 292
302 303 307 307 308 307 309 307 307 306 305 303 304 304 303 304 303 303 302 302 303 302 300 299 298 298 296 296 296 295 295 295 294 294 293 293 292 292 291 291 292 292 292 293
305 305 304 309 305 307 307 308 308 308 305 306 306 305 305 305 304 303 303 301 301 300 299 298 298 297 296 296 295 295 294 294 293 293 293 291 291 291 291 291 291 292 293 293
304 304 303 303 304 306 303 305 305 307 307 305 306 306 305 305 303 302 300 300 300 299 299 297 298 297 297 296 295 294 294 293 293 292 291 292 291 291 291 291 292 293 293 293
301 302 303 303 303 303 306 305 305 306 307 305 306 305 305 304 302 302 302 301 300 299 299 299 297 297 295 295 294 293 293 292 291 291 291 291 291 291 291 291 292 293 293 294
301 299 302 302 300 302 302 305 303 302 304 305 305 305 303 302 300 299 300 299 300 301 300 298 297 296 295 294 293 292 292 291 291 291 291 291 291 291 291 292 293 293 293 294
302 300 301 301 300 303 303 305 303 306 303 305 304 303 303 302 300 299 299 300 300 300 299 297 295 295 294 293 292 292 291 291 291 291 290 291 291 291 292 293 293 294 294 294
305 301 301 299 301 304 304 302 306 302 302 303 302 302 301 300 300 300 299 298 298 298 297 296 295 294 294 292 292 291 290 290 291 290 291 291 291 292 292 293 294 294 294 294
305 304 303 302 303 302 302 303 301 300 300 301 301 300 299 299 299 298 298 297 297 297 296 295 294 293 293 292 291 291 290 291 290 290 291 291 292 292 293 293 294 294 294 295
305 302 303 304 304 303 300 301 301 301 301 300 299 299 298 298 297 297 296 296 296 296 295 294 293 292 292 292 291 291 290 290 290 290 291 291 292 293 292 293 294 294 294 295
304 302 302 302 302 301 301 300 300 300 300 299 298 298 298 297 297 296 296 296 296 295 294 294 293 292 292 292 291 290 290 290 290 291 291 292 292 292 293 293 294 294 295 297
302 303 303 304 301 300 299 299 299 299 300 299 298 297 297 297 296 296 295 296 295 295 294 293 293 292 292 291 290 290 290 290 290 290 291 291 292 292 293 293 293 293 295 296

GFSCGP_925_thetae_060.txt.gz
Theta_e
315 312 316 324 316 312 311 314 315 314 314 317 315 315 314 311 309 309 307 305 303 301 303 305 306 306 306 306 306 306 306 306 305 305 305 305 305 304 303 303 302 302 301 300
314 312 312 313 314 316 316 316 315 314 317 317 316 315 314 312 311 310 309 307 305 302 301 302 304 305 306 306 306 306 306 306 306 306 306 305 305 304 303 303 302 301 300 299
314 316 315 316 316 317 317 316 316 316 316 314 314 315 314 312 311 311 309 307 305 303 301 300 302 304 305 305 306 306 306 306 306 306 306 305 304 303 303 303 302 300 299 299
315 316 317 316 317 316 317 316 317 318 316 316 314 315 312 311 311 311 309 305 305 302 301 301 301 303 304 305 305 305 305 306 306 306 306 305 303 303 302 301 300 299 299 298
315 317 317 317 317 316 316 315 315 315 313 314 313 313 310 310 313 310 309 306 304 302 302 301 301 304 305 304 305 305 305 305 305 306 305 304 303 302 301 300 299 299 298 298
316 314 315 316 314 315 313 311 311 312 312 312 312 310 311 311 312 307 307 307 305 303 301 301 303 303 304 304 305 305 305 305 305 305 304 303 301 300 299 299 298 298 297 297
314 315 313 314 315 314 311 312 314 310 315 311 312 311 311 308 307 305 303 303 306 304 302 301 301 302 304 304 305 304 305 305 304 303 302 300 299 298 298 298 297 297 296 296
313 315 314 310 313 313 313 311 311 313 315 315 311 314 312 307 304 303 304 305 306 306 302 301 301 301 302 303 303 303 304 304 303 301 299 298 298 298 297 297 296 296 296 296
312 312 309 309 309 311 313 314 309 308 305 307 308 307 309 304 304 303 304 304 305 304 301 300 301 302 302 302 303 303 303 302 300 298 298 298 298 297 296 296 296 296 295 295
307 310 308 308 308 308 310 307 310 306 310 309 307 307 309 307 306 304 302 300 301 301 300 299 300 301 302 302 302 302 300 299 298 298 298 298 297 296 296 295 295 294 294 294
304 305 306 306 307 307 308 308 305 305 305 310 309 305 303 306 305 303 300 300 300 300 299 299 299 300 300 300 300 299 298 298 298 298 297 296 296 295 295 294 294 294 293 293
303 302 304 306 304 305 307 308 305 307 305 303 302 308 305 303 301 302 300 300 300 299 299 298 298 298 298 298 298 297 298 298 297 296 296 295 295 294 294 294 294 293 292 292
303 301 302 304 306 307 305 305 304 302 303 305 306 306 302 302 300 299 300 300 300 300 299 298 297 297 298 298 297 297 297 297 296 295 295 295 294 294 294 293 292 291 292 292
303 301 302 305 309 307 308 306 304 303 301 302 303 304 305 302 302 302 302 300 300 300 300 299 298 298 298 297 296 297 297 296 295 295 294 294 293 293 292 291 291 291 291 291
300 302 304 305 305 306 307 307 304 304 303 305 305 303 304 303 303 303 302 301 302 301 300 299 298 298 298 297 296 296 296 295 294 294 293 293 293 291 291 291 291 291 291 291
300 303 306 307 307 306 308 307 305 305 305 302 303 303 303 303 302 302 301 301 302 301 300 299 298 298 298 297 296 296 295 294 294 293 293 292 291 292 291 291 291 291 291 291
303 304 305 309 304 305 308 306 307 307 304 305 305 304 303 305 304 303 302 301 299 299 298 298 297 298 298 296 296 295 294 293 293 292 291 291 291 291 290 290 290 290 291 292
303 303 303 304 303 305 304 303 305 305 306 305 305 305 305 304 303 301 300 301 299 298 298 297 298 298 296 295 295 294 293 292 292 291 291 291 290 290 290 290 290 291 292 293
300 302 303 302 302 302 304 305 306 307 307 304 304 305 304 303 300 300 301 301 298 297 298 299 298 296 295 294 294 293 292 292 291 290 291 290 290 290 290 290 291 292 293 293
299 298 301 302 299 301 300 304 302 303 304 304 304 304 303 301 299 298 299 298 298 299 299 298 297 295 294 294 293 292 291 291 290 290 290 290 290 290 290 291 291 292 293 294
301 299 301 302 299 302 301 303 302 306 303 303 302 302 302 301 299 299 298 298 299 299 298 297 295 294 294 293 292 292 291 290 290 290 290 290 290 290 291 292 292 293 293 294
303 300 300 299 301 304 301 303 305 302 302 301 301 301 301 299 298 298 297 297 297 296 297 295 294 294 294 293 292 291 290 290 290 290 289 290 291 291 292 292 293 293 294 294
304 303 302 301 302 300 301 302 300 299 299 300 300 299 299 298 298 297 296 295 296 296 295 294 294 294 293 292 292 290 290 290 290 289 290 290 291 291 292 293 293 293 294 294
303 300 302 303 303 302 300 300 300 300 299 299 299 299 298 297 296 296 295 295 295 296 295 294 294 293 292 292 292 290 290 290 289 289 290 290 291 292 292 292 293 293 294 294
302 301 301 301 301 300 300 300 299 299 299 299 298 298 298 296 296 295 294 294 296 296 295 294 293 292 292 292 291 290 290 290 289 289 289 290 290 291 292 293 293 293 293 295
300 302 302 303 300 300 299 298 298 298 299 298 298 298 297 296 295 296 294 296 296 295 295 294 293 292 292 292 291 290 290 290 289 289 290 290 290 291 292 292 293 293 293 294

GFSCGP_925_thetae_063.txt.gz
Theta_e
315 318 320 320 320 315 316 316 316 314 314 318 318 317 318 315 313 314 313 310 308 307 306 304 304 305 305 306 306 305 305 305 305 304 304 304 304 303 303 302 302 301 301 300
318 317 317 319 318 319 317 316 316 315 316 318 317 318 318 314 314 313 313 311 309 306 305 304 303 304 304 305 305 305 305 305 305 305 305 305 305 304 303 303 302 301 300 299
315 318 315 317 316 317 316 316 315 317 316 315 316 318 316 313 312 312 311 311 310 308 307 305 304 303 304 305 305 305 305 305 305 305 305 305 305 304 303 302 302 300 299 299
315 316 316 316 317 316 318 316 317 317 318 319 314 319 315 311 314 311 311 309 309 308 306 305 304 303 304 305 305 305 305 304 305 305 305 305 304 303 302 302 301 299 299 298
315 316 316 317 316 315 317 315 316 315 315 315 315 316 314 312 315 312 309 309 307 306 307 305 304 304 303 305 305 305 304 304 304 305 305 304 304 303 301 300 299 299 299 298
315 313 314 315 313 314 314 312 312 313 314 316 313 313 314 313 311 309 308 307 308 306 305 304 302 302 303 304 304 303 303 304 304 304 304 303 302 301 299 298 298 298 297 296
314 314 312 313 315 313 312 316 319 315 317 315 312 313 314 310 308 306 306 307 308 306 305 305 304 302 302 303 303 303 303 304 304 304 303 302 300 298 298 298 297 296 296 296
313 313 313 310 313 315 313 316 317 315 315 317 311 316 314 307 305 305 306 307 307 306 304 304 303 303 302 303 303 303 303 303 303 302 300 298 298 298 297 296 296 295 295 295
313 313 309 308 309 311 313 316 310 311 306 310 311 309 309 306 306 304 304 305 304 304 303 303 302 301 301 302 302 303 303 302 300 298 298 298 298 297 296 295 295 295 294 294
308 310 307 308 308 307 311 309 313 311 314 310 310 309 313 309 307 304 304 304 303 303 303 302 301 300 300 301 301 301 300 299 298 298 298 297 297 296 295 295 294 294 294 293
304 307 306 306 308 311 310 310 307 308 308 313 312 311 305 307 305 304 303 302 303 303 302 301 300 299 299 300 299 298 298 298 298 298 298 297 296 295 294 294 293 293 292 292
303 304 307 306 303 304 306 308 308 313 309 305 308 312 305 303 303 303 302 302 302 302 302 300 299 298 299 298 298 297 297 298 298 297 296 295 295 294 293 293 292 291 291 291
303 303 305 306 307 306 305 305 304 304 306 308 312 311 302 302 302 302 303 303 303 303 302 301 300 299 298 297 297 297 297 297 296 295 295 294 294 293 293 292 291 291 291 291
304 301 304 309 309 307 307 304 305 306 309 308 309 308 305 304 303 304 303 303 303 303 303 303 302 301 299 298 296 296 296 296 295 295 294 293 293 292 291 291 291 291 291 291
301 303 303 304 304 306 307 307 304 305 304 309 308 305 305 304 304 304 303 302 303 304 303 302 302 301 300 299 296 295 295 295 294 294 293 292 292 291 291 290 290 291 291 291
301 305 305 306 306 306 308 308 306 305 304 303 303 305 302 303 303 304 303 303 303 302 301 301 301 300 300 298 296 295 295 294 294 293 292 291 291 290 290 290 290 291 291 292
304 305 308 312 304 306 310 307 307 307 305 305 308 306 304 304 304 305 304 302 302 301 301 301 300 299 298 295 295 295 294 293 293 292 291 290 290 290 290 290 290 291 292 292
304 304 305 310 305 310 306 303 305 306 305 304 304 304 305 304 304 302 301 302 302 301 300 300 299 299 296 295 294 294 293 292 292 291 290 290 290 289 290 290 291 291 292 293
301 303 305 309 306 304 303 304 306 307 307 305 305 305 304 303 301 301 301 300 300 300 299 298 298 296 294 294 294 293 293 292 291 290 290 290 289 289 290 290 291 292 292 293
300 299 305 304 304 305 301 303 302 303 308 304 304 304 303 302 304 303 300 299 299 298 298 297 296 295 294 294 293 292 291 291 290 289 289 289 289 290 290 290 291 292 292 293
302 301 305 306 305 305 301 302 302 307 307 304 302 302 302 303 302 300 299 299 298 297 297 297 294 294 293 293 292 291 291 290 290 290 289 289 289 290 290 291 292 293 293 293
305 304 304 302 305 306 302 302 307 305 301 301 301 301 301 300 300 299 298 298 297 297 296 295 294 294 294 293 292 291 290 290 290 290 289 289 289 290 290 291 292 292 293 293
306 303 306 304 305 300 301 302 300 300 301 300 300 300 299 299 298 298 298 297 296 296 296 295 294 294 294 293 292 290 291 290 290 289 289 289 289 291 291 291 292 292 293 293
302 300 305 304 301 300 301 300 299 299 300 299 299 299 298 298 297 297 297 296 296 296 296 295 294 293 293 293 292 292 290 290 290 289 288 289 290 291 291 291 292 292 293 293
301 301 302 302 301 300 300 299 299 299 298 298 298 298 298 297 297 296 296 296 295 295 296 295 294 293 293 292 292 292 290 290 289 288 288 289 290 290 290 291 292 292 293 294
300 303 304 305 301 301 301 299 298 299 299 298 298 298 297 297 297 296 296 296 295 295 296 295 294 293 293 292 292 291 290 290 289 288 289 290 291 290 291 292 292 292 293 294

GFSCGP_925_thetae_066.txt.gz
Theta_e
321 333 338 334 330 329 329 327 327 320 318 320 322 321 321 321 320 320 321 320 319 318 316 313 311 310 309 309 309 308 307 307 307 306 307 307 308 307 306 306 304 304 304 303
323 328 333 328 320 320 320 322 323 319 319 320 322 322 321 320 319 319 320 320 319 317 315 312 310 309 309 309 309 308 308 307 307 308 308 308 308 307 307 306 305 304 303 302
333 329 317 321 323 327 325 325 323 319 320 319 320 320 320 317 317 316 317 317 318 317 315 313 310 309 309 309 308 308 308 307 307 307 307 307 306 306 306 306 305 304 302 302
320 318 319 320 320 320 321 319 319 320 320 320 319 317 320 317 319 316 314 316 316 317 316 314 311 310 309 309 308 308 308 307 307 307 307 308 308 309 308 306 305 303 301 301
320 320 320 320 320 319 321 320 321 320 321 320 320 320 320 319 319 316 315 314 314 314 315 314 311 311 310 309 308 307 307 306 306 306 307 308 308 307 306 304 303 302 302 302
319 317 319 319 318 319 318 319 319 320 320 321 318 318 318 318 315 314 315 314 314 313 313 313 311 309 309 307 307 307 306 306 306 306 306 307 307 307 305 303 303 302 302 301
320 319 316 317 320 317 318 321 319 320 322 319 317 318 320 314 311 312 313 314 313 312 312 312 310 309 308 307 307 307 306 306 306 306 306 305 304 303 302 302 302 301 300 300
321 321 318 314 318 320 320 321 319 318 318 320 316 319 319 311 311 311 312 313 313 312 312 311 310 310 309 308 307 307 306 307 306 305 304 302 301 301 301 301 300 300 299 299
316 317 312 312 314 316 318 320 316 317 314 317 317 315 313 311 310 311 311 312 311 310 310 309 308 307 307 307 307 306 306 306 304 302 301 301 300 300 300 299 299 299 298 297
315 317 312 311 312 313 317 314 318 318 318 317 315 315 317 312 311 310 310 310 310 309 309 308 307 306 305 305 304 303 304 303 301 301 300 300 300 299 299 298 298 297 296 296
312 315 311 312 315 318 315 317 314 315 315 316 315 315 313 313 311 310 309 309 309 309 308 308 306 305 304 303 302 301 301 301 301 300 300 300 300 299 298 297 297 296 295 295
308 314 314 312 308 308 312 315 316 316 315 314 315 315 309 310 309 309 308 308 308 308 307 307 306 305 305 304 302 302 301 300 300 299 299 299 298 298 297 297 296 295 294 294
309 311 313 312 311 309 311 311 311 312 313 315 315 316 309 308 308 308 309 309 308 308 307 307 306 306 305 304 303 302 301 300 299 298 298 298 298 297 296 295 294 294 293 293
309 309 312 314 315 313 312 309 310 313 316 315 314 314 309 309 309 308 308 308 308 308 307 307 307 306 305 304 303 302 300 299 298 298 298 297 297 295 294 294 293 293 293 293
309 310 308 308 309 310 311 311 310 311 313 313 313 311 310 310 309 309 308 308 308 307 307 306 306 305 304 304 303 302 299 298 297 297 297 296 295 294 293 293 293 293 293 293
307 312 310 311 310 310 311 312 310 310 309 309 309 311 311 309 308 308 308 307 308 307 306 305 304 303 303 303 302 299 299 298 297 297 296 295 294 293 293 292 292 293 293 294
309 312 314 318 310 311 315 314 313 312 311 312 313 312 308 308 308 308 308 307 307 305 304 304 303 302 302 301 299 299 298 297 297 296 294 294 293 293 292 292 292 293 294 294
311 313 314 319 312 316 310 308 309 311 311 310 309 308 309 309 308 308 307 306 305 303 303 303 302 301 301 298 297 297 297 296 295 294 294 293 292 292 292 292 293 293 294 294
308 312 315 318 314 312 308 306 309 310 310 310 310 309 308 307 307 307 305 304 303 302 301 301 301 300 299 297 297 296 296 296 294 294 293 292 292 292 292 292 293 293 294 294
307 309 313 312 323 319 307 307 306 308 310 309 309 309 308 307 310 309 304 303 302 301 301 301 300 298 297 297 296 295 296 295 294 293 292 292 292 291 292 292 293 292 293 293
310 310 313 313 316 312 308 306 306 310 311 308 308 309 307 308 307 304 302 301 301 300 300 300 299 298 297 297 296 295 295 295 294 292 292 292 291 291 291 292 292 292 293 293
312 314 312 311 315 314 306 306 310 311 307 308 307 306 306 304 303 302 301 301 300 300 300 299 298 298 298 296 295 295 295 294 292 292 292 292 291 291 292 292 292 292 293 293
311 310 313 312 313 307 307 307 306 307 308 306 306 304 303 302 301 301 301 300 300 299 299 299 298 298 298 297 295 294 294 293 292 292 292 291 291 291 292 292 292 293 293 293
308 305 310 310 310 306 306 306 305 304 306 305 304 303 302 301 301 300 300 300 300 299 299 299 298 298 298 297 295 294 294 292 292 292 292 291 291 292 292 292 292 293 293 293
309 306 309 309 309 306 306 306 305 304 303 302 302 301 301 301 301 300 301 300 300 299 299 299 298 298 297 296 295 294 293 292 292 292 291 291 291 291 291 292 292 292 293 294
307 309 309 309 308 308 308 305 304 304 303 302 301 301 300 300 301 300 301 300 300 300 299 299 298 298 297 296 295 294 293 292 291 292 291 291 291 291 291 292 292 292 292 293

GFSCGP_925_thetae_069.txt.gz
Theta_e
327 333 336 337 334 334 336 337 337 335 320 321 325 327 326 323 323 323 322 322 322 322 322 320 317 316 313 312 312 311 310 309 309 309 309 309 309 309 308 308 307 306 306 306
327 334 334 335 335 334 332 334 336 330 321 321 331 329 324 322 322 321 321 322 322 321 321 318 316 314 313 312 312 311 310 309 309 310 310 310 310 310 309 309 308 307 306 305
331 331 329 336 328 328 330 332 331 328 324 323 322 323 322 321 320 319 319 320 320 321 320 319 316 314 313 312 312 311 310 310 309 310 310 310 309 309 309 308 308 307 306 304
332 324 325 328 333 330 335 328 325 324 322 322 321 321 321 320 321 318 318 319 319 320 320 318 316 314 313 312 311 311 310 310 310 310 310 310 310 310 311 310 309 308 306 304
324 321 324 329 327 328 330 322 322 323 322 321 320 321 319 320 321 318 318 318 318 318 319 318 316 314 313 312 312 311 310 310 309 309 309 310 310 311 310 309 308 306 305 305
322 321 322 323 321 321 321 322 322 322 321 321 319 322 320 321 318 316 318 317 317 316 317 317 315 314 313 312 312 311 310 309 309 309 309 309 310 310 310 309 307 306 305 305
321 321 319 320 321 321 321 322 323 325 326 321 320 319 320 317 315 317 317 316 316 315 316 315 314 312 312 311 311 311 310 310 309 309 309 309 309 309 307 306 305 305 304 304
323 322 321 318 321 322 321 321 321 320 320 322 320 320 321 314 315 316 316 316 315 315 315 315 314 313 312 311 311 310 310 309 309 309 309 308 306 305 305 304 304 303 303 302
324 321 315 316 318 319 321 319 320 320 319 319 318 319 315 314 314 315 315 315 314 313 313 312 311 310 310 310 310 309 309 309 309 307 306 305 304 303 303 303 302 302 302 301
318 320 316 315 316 317 320 318 320 320 319 321 320 317 318 315 314 313 313 313 312 312 311 311 309 309 308 307 307 306 306 306 305 304 304 303 303 303 302 302 302 301 300 299
316 318 316 315 318 321 318 319 318 319 319 319 319 319 317 316 314 313 313 312 312 311 310 310 309 308 307 307 306 305 305 304 304 303 303 303 303 302 302 301 300 300 299 298
314 319 318 317 312 312 316 319 319 319 319 316 317 316 313 314 313 313 312 311 311 310 310 309 308 308 308 307 306 305 304 304 303 303 302 302 302 301 301 300 300 298 297 296
314 316 316 315 313 311 313 315 315 316 316 317 318 318 312 312 312 311 312 311 311 310 310 309 309 308 307 307 306 305 304 303 303 302 301 301 301 301 300 299 298 296 296 295
312 315 316 318 319 316 313 313 313 314 317 318 318 317 313 312 312 311 311 311 310 310 309 309 309 307 306 305 305 304 304 303 302 301 300 300 300 300 298 297 296 295 295 295
313 314 311 311 311 312 313 313 313 313 315 316 316 314 314 313 313 312 311 310 310 309 309 308 307 306 304 304 304 303 303 302 301 300 300 300 299 297 296 296 295 295 294 294
311 314 312 313 312 312 313 313 313 313 313 313 313 314 314 314 311 311 310 310 310 310 308 306 305 304 303 303 303 302 302 301 300 300 300 299 297 296 295 295 294 294 294 294
311 314 316 319 315 315 318 317 317 316 314 314 314 314 312 311 310 310 310 310 309 308 306 304 304 303 302 302 301 301 301 300 300 299 298 296 296 295 295 294 294 294 294 294
313 315 317 322 317 319 313 311 312 314 313 313 313 312 311 311 311 310 310 309 308 305 304 303 302 302 302 301 301 300 300 300 299 297 296 296 295 294 294 294 293 294 294 295
312 315 319 322 319 315 311 309 311 311 311 312 312 311 311 310 310 310 308 306 304 303 302 302 302 301 301 301 300 299 299 299 297 297 296 295 294 294 294 293 293 293 294 293
311 313 317 315 328 320 311 309 309 310 311 311 311 312 311 310 311 309 306 304 303 302 301 301 301 301 300 300 300 299 298 297 297 297 295 294 294 294 293 293 293 294 293 293
313 313 316 316 318 314 310 309 310 310 314 311 311 311 311 311 309 306 303 302 301 301 301 301 301 300 300 300 299 298 298 297 297 296 294 294 294 293 293 293 293 293 292 292
315 317 315 314 316 318 310 309 311 313 310 311 310 310 309 308 304 303 302 302 301 301 301 300 301 300 300 300 299 298 298 297 296 295 294 294 294 293 292 293 293 293 292 294
314 312 314 314 316 311 310 311 310 310 311 310 309 308 307 305 303 302 302 301 301 301 300 300 300 300 300 300 299 298 298 296 295 294 294 294 293 292 293 293 292 293 294 293
310 310 311 312 311 310 309 309 308 308 309 308 308 306 304 303 302 301 301 301 301 301 300 300 300 300 300 299 299 298 297 296 295 294 294 293 293 292 292 292 292 293 293 293
311 310 309 310 311 310 309 309 309 307 307 306 305 303 302 302 301 301 301 301 301 301 301 300 300 300 300 299 299 298 296 295 294 294 294 293 292 292 292 291 292 293 292 293
311 310 310 310 310 311 310 309 308 307 306 305 303 302 302 301 301 301 302 301 301 301 301 300 300 300 300 299 298 297 296 295 294 294 294 293 292 291 291 292 292 292 292 293

GFSCGP_925_thetae_072.txt.gz
Theta_e
327 332 337 332 334 336 336 337 339 332 328 335 337 331 331 329 322 323 322 320 319 322 322 323 322 319 315 313 312 312 311 309 309 308 308 309 309 309 308 308 308 307 306 306
329 334 333 333 332 334 335 337 340 334 322 325 330 333 332 330 323 320 319 319 319 320 319 319 318 317 314 313 312 312 310 309 309 309 309 310 310 310 309 309 308 307 307 306
332 331 331 332 335 335 335 334 335 332 325 329 330 325 324 321 320 319 318 319 319 318 318 316 316 315 313 313 312 312 311 310 309 310 310 310 310 309 309 309 308 308 307 306
329 328 330 337 335 333 334 331 331 331 327 332 322 324 322 320 320 318 317 317 317 318 319 316 315 315 313 313 312 312 311 310 310 310 310 310 310 310 310 310 310 309 307 306
331 328 330 332 333 332 330 326 330 331 326 323 323 322 320 319 320 317 317 317 317 316 318 316 314 315 314 313 312 311 311 310 310 310 310 310 310 310 311 310 309 308 307 306
323 323 327 328 322 322 323 324 323 322 322 322 320 320 320 319 316 316 316 316 316 316 317 315 315 314 314 313 312 311 311 310 310 309 309 309 309 310 310 310 309 308 306 306
322 322 321 323 325 323 323 323 328 329 326 325 320 320 319 315 316 317 315 314 314 315 314 312 311 313 313 312 311 311 311 311 310 309 309 309 309 309 309 308 306 305 304 304
325 323 322 322 322 323 322 323 324 325 326 324 320 320 316 314 315 315 314 314 313 313 313 312 312 312 311 311 311 311 311 310 310 309 309 309 309 307 306 305 304 304 303 303
327 321 316 317 318 318 322 320 320 320 318 318 319 316 314 314 315 315 313 313 313 312 311 310 310 310 310 309 309 309 309 309 309 308 308 307 306 304 304 303 303 302 302 302
319 319 318 316 317 317 320 318 321 319 319 322 320 319 317 314 314 313 312 311 311 310 309 308 308 308 308 307 307 306 306 306 306 305 304 304 304 303 303 302 302 302 301 300
317 318 317 317 319 320 318 319 318 318 320 319 318 317 315 313 312 312 311 310 310 309 308 307 307 308 307 307 306 305 305 304 304 304 303 303 303 302 302 302 301 301 300 299
316 319 318 316 312 313 316 319 318 319 319 317 316 317 313 312 312 311 311 311 310 309 308 307 308 308 308 307 306 306 305 304 303 303 302 302 302 302 301 301 300 299 298 297
314 317 316 315 313 312 314 316 317 316 317 318 317 315 311 311 311 311 310 309 309 309 308 307 307 307 306 305 305 305 305 304 303 302 302 301 301 301 301 300 298 297 296 296
312 317 316 319 319 315 313 314 314 314 315 315 317 314 312 311 311 310 310 309 308 309 308 307 305 305 305 304 304 303 303 303 302 302 301 300 300 300 299 297 296 295 295 295
313 317 312 311 311 311 313 314 313 313 313 314 315 315 312 311 310 309 309 309 309 308 308 306 304 303 304 303 303 303 302 302 301 301 300 300 299 298 296 296 295 295 294 294
312 316 312 313 312 313 313 313 313 313 313 312 313 313 311 310 309 310 309 309 309 309 306 305 303 303 303 302 302 302 301 301 301 300 300 299 297 296 296 295 295 294 294 294
312 314 316 319 316 316 318 316 316 315 314 314 313 314 311 310 310 310 309 309 309 306 304 303 302 302 302 302 302 301 300 300 300 300 299 297 297 296 295 294 294 294 294 294
313 315 318 324 319 320 314 311 312 316 314 313 313 313 312 311 310 310 308 308 305 304 303 302 301 302 301 301 301 300 300 299 299 298 297 297 296 295 294 294 294 293 293 293
312 316 320 323 321 317 311 310 311 311 312 312 312 311 311 310 310 310 305 303 302 302 302 301 301 301 301 300 300 300 299 299 298 297 297 296 295 294 294 294 293 293 293 294
311 312 316 317 325 320 312 309 310 310 310 311 311 311 310 309 309 306 304 302 302 302 301 301 301 301 300 300 300 299 299 298 298 297 296 295 295 294 294 294 293 292 294 293
313 314 316 317 321 317 310 309 310 311 313 311 311 311 310 309 307 303 302 301 301 301 301 300 301 301 300 300 300 299 299 298 297 296 296 295 294 294 294 293 293 293 292 292
315 319 315 314 317 315 309 309 311 312 311 310 310 309 309 305 304 302 302 301 301 301 301 300 300 300 300 300 300 299 299 298 297 296 295 295 294 294 293 293 293 292 292 293
314 314 316 317 317 311 308 312 310 310 310 310 309 307 307 305 303 302 301 301 301 301 301 300 300 300 300 300 299 299 299 298 296 296 295 295 294 293 293 292 291 291 292 293
311 310 311 310 311 309 309 309 308 308 309 308 308 305 305 303 301 301 300 300 300 301 301 301 301 300 300 300 300 299 299 297 296 295 295 294 294 293 292 291 291 291 292 293
310 309 309 309 309 310 309 308 308 307 307 306 305 304 303 301 301 301 300 300 301 301 301 301 301 300 300 300 299 299 298 297 296 295 294 294 293 293 291 291 291 292 292 292
309 310 308 310 309 310 310 309 308 306 306 304 303 302 301 301 301 301 300 301 301 301 301 301 300 300 300 299 299 298 298 296 295 294 294 294 293 292 290 291 292 292 292 292

GFSCGP_925_thetae_075.txt.gz
Theta_e
323 327 331 334 332 333 331 331 334 334 338 338 339 336 332 326 325 321 319 318 317 319 321 325 319 318 316 314 313 312 311 309 308 308 308 308 308 308 308 308 308 307 307 306
325 329 329 331 333 334 335 335 337 329 324 324 331 330 327 328 327 319 318 317 317 315 317 317 315 314 313 312 312 311 310 309 308 308 308 308 308 309 308 308 308 308 307 306
326 327 329 332 332 334 334 334 334 334 328 323 326 326 324 323 318 317 316 317 316 316 315 313 312 313 312 312 311 311 311 309 308 309 309 310 310 310 309 309 308 308 308 307
326 328 329 331 333 333 334 330 331 324 325 329 324 324 318 318 316 315 314 314 314 314 315 313 311 311 312 312 311 311 310 309 309 309 309 310 310 310 309 309 309 309 308 307
331 330 329 332 334 331 333 327 328 326 324 319 321 318 315 316 316 316 314 314 314 313 314 312 311 312 312 312 312 311 310 310 309 309 310 310 310 310 310 311 310 309 308 307
327 325 326 323 323 327 323 323 323 319 318 318 318 318 315 315 314 315 314 313 313 312 311 309 312 312 312 312 312 311 311 310 309 309 309 309 309 309 309 310 310 308 307 306
323 321 321 325 323 323 321 321 323 324 319 318 315 317 315 313 313 312 312 312 312 309 308 308 307 310 311 311 311 311 311 310 310 309 309 308 308 309 309 309 308 305 304 304
322 322 321 323 325 320 322 319 323 326 324 323 317 316 314 313 312 311 310 310 309 309 308 307 308 309 310 310 310 310 310 310 310 309 309 309 309 308 307 306 305 304 303 303
327 319 317 317 319 319 321 320 318 316 316 315 316 313 312 313 313 311 310 309 309 308 306 305 305 307 307 307 307 308 308 308 307 307 306 305 304 304 304 303 303 302 302 302
319 317 316 316 316 316 318 317 315 314 316 318 316 313 313 312 312 311 309 308 308 306 305 304 304 306 306 306 306 305 305 305 305 305 304 304 303 303 302 302 302 301 301 301
315 318 317 315 316 317 314 317 316 314 316 316 314 313 310 310 311 310 308 307 307 305 304 303 305 306 306 306 305 305 305 304 304 304 303 303 302 302 302 301 301 300 299 298
313 314 314 314 311 311 314 316 314 314 315 313 312 313 308 309 309 309 307 307 306 305 304 303 304 304 305 305 305 305 304 304 304 303 303 302 301 301 301 301 300 299 298 297
312 313 312 312 311 309 312 314 315 313 312 314 313 312 308 307 307 307 307 306 306 305 305 303 303 302 303 303 303 303 303 303 303 302 302 301 301 300 300 299 298 297 296 295
311 313 312 316 316 311 310 312 314 311 310 310 311 311 309 308 308 307 307 306 305 306 305 303 301 301 302 302 302 302 302 302 302 301 300 300 300 299 298 297 296 295 295 294
310 312 310 309 310 310 311 312 312 311 310 311 312 311 309 307 307 306 306 305 305 306 304 302 300 300 301 301 302 301 301 301 301 300 300 299 298 297 296 296 295 295 294 294
308 312 311 311 311 311 312 312 311 311 311 311 311 312 310 307 305 306 306 306 305 304 303 301 300 300 300 301 301 301 300 300 300 299 299 298 297 296 296 295 294 294 294 293
308 310 313 316 315 315 314 314 313 312 312 311 312 310 308 308 307 306 305 305 304 302 301 300 299 300 301 301 301 300 300 299 299 299 298 297 296 296 295 294 294 294 293 293
310 312 314 315 315 317 313 310 310 312 313 311 311 310 309 308 306 304 304 302 301 300 299 298 299 300 300 300 300 300 299 299 299 298 297 296 296 295 295 294 294 294 293 292
308 313 315 316 316 314 310 309 309 310 311 310 310 309 308 308 305 303 301 300 299 298 299 300 300 300 300 300 300 299 299 299 298 297 297 296 296 295 294 294 294 293 292 293
309 308 313 312 313 311 310 308 309 306 303 310 309 308 308 306 305 303 301 299 298 300 300 300 300 300 300 300 300 299 299 298 298 297 296 296 295 295 294 294 293 292 292 292
310 309 310 311 310 311 310 307 308 301 302 309 308 307 306 306 303 301 299 299 300 300 300 300 300 300 300 300 299 299 299 298 298 297 296 296 295 294 294 293 292 292 291 291
310 308 308 309 311 311 306 307 304 304 309 308 308 307 305 302 301 300 299 299 299 300 300 300 300 300 300 300 299 299 299 299 298 297 296 295 295 294 294 292 292 291 291 291
310 310 311 308 309 307 305 307 308 307 307 308 306 304 303 301 300 300 298 298 299 300 300 300 300 300 300 300 300 299 299 298 298 296 295 295 294 294 293 292 291 290 291 291
309 307 307 306 307 307 306 307 306 307 307 306 304 303 301 300 299 299 298 298 299 300 300 300 300 299 299 300 299 299 298 298 296 296 295 294 294 294 292 291 290 291 291 293
305 305 305 304 304 308 306 304 305 305 304 304 302 301 300 299 298 298 298 298 299 300 300 300 300 299 299 299 299 299 298 297 296 295 295 294 293 293 291 291 290 291 292 293
305 305 304 304 303 305 305 304 304 304 303 302 301 299 299 299 298 299 298 299 300 300 300 300 299 299 299 299 299 299 298 297 296 295 294 293 293 291 291 290 290 291 292 291

GFSCGP_925_thetae_078.txt.gz
Theta_e
320 323 328 331 330 328 329 331 332 333 334 333 329 334 333 332 330 329 325 315 316 320 322 325 326 328 323 314 312 311 310 310 309 308 308 308 308 308 308 308 308 307 307 306
324 326 326 330 333 332 332 331 333 325 336 333 336 337 336 331 327 325 319 316 315 315 318 315 316 315 315 313 311 311 311 310 309 308 308 308 308 308 308 308 308 307 307 306
324 325 326 331 334 335 334 334 331 329 329 325 326 327 325 325 320 317 316 314 314 315 317 311 311 310 313 313 312 311 310 309 308 308 307 308 308 308 308 307 308 307 307 306
324 324 328 330 333 333 337 331 333 332 330 335 327 331 316 318 316 315 314 312 313 314 314 311 309 308 311 312 311 311 310 309 308 308 308 308 309 309 309 309 308 308 307 307
325 328 329 331 331 330 333 328 331 332 327 321 321 319 315 314 316 315 314 313 312 313 312 311 308 309 310 311 311 311 310 309 308 308 309 309 309 309 309 309 310 310 309 308
324 324 326 325 325 327 325 323 324 322 319 324 320 320 316 315 313 314 313 313 311 310 311 309 309 309 309 310 310 310 309 308 308 308 309 309 309 309 309 309 309 309 308 307
325 324 324 326 325 324 324 326 325 323 319 321 315 317 317 313 312 312 312 311 308 306 306 306 306 308 309 309 308 309 309 309 309 308 308 309 309 308 308 308 308 306 305 304
326 326 321 322 323 325 325 328 321 322 320 319 315 317 314 312 311 310 310 309 307 306 305 305 305 307 308 309 310 310 310 309 309 308 308 308 308 308 308 306 305 304 303 303
328 321 316 318 320 320 319 322 316 315 314 315 315 312 311 312 311 310 309 308 307 305 304 303 304 305 306 307 308 309 309 307 307 306 305 305 304 304 303 303 302 302 301 301
316 317 316 316 316 318 318 318 317 313 315 316 314 313 313 312 311 310 309 307 306 304 303 302 303 304 305 305 305 305 305 305 305 304 304 303 303 302 302 301 301 301 300 300
314 316 315 314 317 321 317 320 316 315 313 315 314 314 308 311 311 309 307 306 305 304 303 302 302 304 304 304 305 305 304 304 304 304 303 303 302 301 301 301 300 300 299 299
312 314 314 313 310 310 315 315 312 315 315 310 309 311 307 308 310 309 306 306 305 304 303 302 302 303 304 304 304 303 303 303 303 302 302 302 301 301 300 300 300 299 298 296
311 313 312 312 310 309 312 314 312 310 310 313 311 310 306 305 307 307 306 305 304 303 302 301 300 300 301 301 302 302 302 302 302 302 301 301 300 300 300 298 297 296 295 295
311 313 311 313 313 309 310 311 312 310 310 310 310 311 309 307 307 306 306 304 304 304 303 300 298 298 300 300 301 301 301 301 301 301 300 300 299 298 297 296 296 295 295 294
310 312 309 309 309 309 310 311 311 311 309 310 310 309 308 306 307 307 306 304 304 304 303 300 298 297 299 300 301 301 300 300 300 299 299 299 298 297 296 296 295 294 294 293
306 311 311 310 310 311 311 310 311 310 310 310 310 311 308 306 304 304 304 304 304 303 302 300 298 298 299 300 300 300 300 299 299 299 299 298 297 296 296 295 295 294 294 293
306 309 311 314 313 313 314 313 311 310 309 309 309 308 308 307 306 304 304 304 303 301 299 298 298 299 300 300 300 300 300 299 299 299 298 297 296 296 295 295 294 294 294 293
307 312 313 314 313 316 312 309 310 311 311 310 309 307 307 306 303 301 303 301 300 299 297 297 298 299 299 299 299 299 299 299 299 298 297 297 296 296 295 294 294 294 293 292
308 311 313 312 314 312 312 309 307 311 311 310 309 308 306 304 303 301 300 299 298 297 297 298 299 299 299 299 299 299 299 298 298 298 297 296 296 295 294 294 294 293 292 292
307 308 312 310 312 311 308 307 308 302 301 307 308 307 306 305 305 303 299 297 297 298 299 299 299 299 299 299 299 299 298 298 298 298 297 296 295 295 294 294 293 292 292 291
308 307 311 311 310 311 308 307 306 301 302 306 306 305 305 305 302 299 297 297 298 299 299 299 299 299 299 299 299 299 298 298 298 298 297 296 295 294 294 293 292 291 291 290
309 308 308 308 310 312 305 307 303 301 306 306 306 305 304 300 299 298 298 298 298 299 299 299 299 299 299 299 299 298 298 298 298 297 296 295 295 294 293 292 291 291 290 290
310 309 309 308 309 306 304 304 303 304 305 306 305 302 300 299 299 298 297 297 298 299 299 299 299 299 299 299 298 298 299 298 298 297 295 295 294 293 293 292 291 290 290 290
308 305 307 306 307 306 305 305 306 305 306 304 303 300 299 299 298 297 297 296 297 298 299 299 299 299 298 299 299 299 298 298 297 296 295 294 293 294 292 291 291 290 290 291
305 304 305 303 303 303 305 303 305 305 303 302 301 300 298 298 297 297 297 296 298 299 299 299 298 298 298 299 298 298 298 297 296 295 294 293 293 292 291 290 289 290 291 292
303 305 304 305 302 303 303 303 303 303 303 300 299 298 298 297 297 297 296 298 299 299 299 299 299 298 298 298 298 298 298 297 296 294 293 293 292 291 291 290 289 290 291 292

GFSCGP_925_thetae_081.txt.gz
Theta_e
315 321 324 325 326 327 328 330 331 329 328 329 331 332 330 333 332 332 328 321 315 319 324 330 329 329 333 334 334 327 317 312 310 308 308 308 308 308 307 307 307 307 306 306
320 320 320 324 331 329 329 331 331 326 334 330 330 330 332 331 329 325 326 320 314 317 321 323 322 320 324 324 325 319 315 311 309 308 308 308 308 308 308 308 307 307 307 307
321 323 324 331 334 333 331 331 329 332 330 324 331 330 328 325 325 318 315 314 314 313 320 317 313 313 312 317 318 315 312 310 308 308 308 308 307 307 307 307 307 307 307 306
323 323 326 329 332 333 334 331 330 331 331 336 327 335 321 317 319 315 313 312 314 314 316 312 310 310 309 310 311 311 310 309 308 308 307 307 307 307 308 308 308 307 307 306
323 327 326 330 330 330 332 330 332 330 329 328 323 325 321 314 316 314 313 312 312 312 312 308 307 310 310 310 310 310 310 309 308 307 307 307 308 309 309 309 308 308 309 308
323 323 325 325 324 328 326 323 323 323 324 327 324 326 324 315 314 313 312 312 310 308 310 307 307 309 309 309 309 309 308 307 307 307 307 307 308 308 309 309 309 309 309 308
325 325 323 325 324 323 324 326 326 329 331 329 317 322 324 312 311 312 311 311 307 305 307 305 304 305 307 308 308 308 307 307 306 307 307 308 308 308 307 307 307 307 306 305
327 327 322 323 324 324 325 327 323 327 321 320 317 318 316 310 309 308 308 307 305 304 303 304 304 306 307 307 308 308 308 308 308 307 307 307 307 307 307 307 305 304 303 302
327 325 321 320 320 324 324 326 323 316 312 316 314 312 311 311 310 309 308 306 305 304 303 303 303 305 306 307 308 308 308 307 307 307 306 306 305 305 304 303 302 301 301 301
319 323 316 319 318 317 318 324 320 318 316 316 312 313 313 313 311 309 308 305 304 303 302 301 301 303 304 305 305 305 305 304 304 303 303 303 303 302 302 302 301 301 300 299
313 316 315 313 315 321 316 317 314 313 312 314 314 313 308 310 310 309 307 305 304 303 302 301 301 302 302 303 303 304 304 303 303 303 302 302 301 301 301 300 300 299 299 297
311 312 313 314 312 310 315 316 314 317 316 308 309 311 306 305 309 308 306 305 303 303 302 300 300 301 302 302 303 303 303 303 303 302 302 301 301 300 300 300 299 297 296 295
310 315 312 313 310 309 312 314 311 310 309 310 311 311 305 306 307 307 306 304 304 303 302 300 299 299 300 301 301 302 302 302 302 301 301 300 300 299 299 298 297 296 295 295
311 312 311 313 312 309 310 310 310 310 311 310 309 311 309 307 308 306 305 304 303 303 301 299 297 297 298 299 300 300 301 301 301 300 300 299 299 298 297 296 296 295 295 294
309 312 308 308 309 308 309 309 310 310 309 312 311 309 308 306 307 307 305 303 303 302 301 299 297 295 297 299 299 300 300 300 299 299 299 299 298 297 296 296 295 295 294 294
305 309 309 309 309 310 310 309 309 309 308 308 309 309 308 304 303 305 304 303 303 302 301 299 297 297 298 299 299 299 299 299 299 299 298 298 297 296 295 295 295 294 294 294
306 307 309 310 313 313 315 313 310 309 308 308 309 308 306 306 305 304 303 303 303 301 299 297 296 297 299 299 299 299 299 299 298 298 298 297 297 296 295 295 295 294 294 293
305 311 311 311 313 316 312 308 309 310 310 309 309 307 307 305 301 300 301 301 300 298 297 296 297 298 299 298 299 299 299 298 298 298 298 297 297 296 295 295 294 294 293 292
306 309 311 311 312 311 311 309 307 311 310 309 308 307 304 303 303 301 298 298 296 296 296 297 298 299 299 299 299 298 298 298 297 298 297 297 296 295 295 294 294 293 292 291
306 307 309 309 312 312 307 307 307 302 303 306 307 306 304 304 305 302 298 296 296 297 298 298 299 299 299 299 299 298 298 298 298 298 298 297 295 295 294 294 293 292 291 291
307 306 310 311 310 310 308 307 305 302 303 305 306 304 303 304 302 298 296 297 297 298 298 299 299 299 299 299 298 298 298 298 298 298 297 296 295 294 294 293 293 291 291 290
308 308 307 308 311 311 305 306 304 302 305 306 304 303 303 300 297 297 297 296 297 297 298 299 298 298 299 298 298 298 297 298 298 297 297 295 295 294 293 293 292 291 290 289
309 308 308 308 309 306 303 304 302 303 304 305 304 302 299 298 298 297 297 296 297 298 298 298 298 298 299 298 298 298 298 298 297 297 296 295 294 293 293 292 291 290 289 289
307 304 308 307 307 305 304 303 305 304 305 303 302 299 298 297 297 297 296 295 296 297 298 298 298 298 298 298 298 298 298 297 297 296 295 294 293 293 292 291 290 289 290 290
305 304 305 303 303 302 302 302 304 304 302 302 299 298 297 297 296 296 296 295 296 298 298 299 298 298 298 298 298 298 298 297 297 295 294 293 293 292 291 290 290 289 290 291
303 305 304 306 303 302 301 304 302 302 302 300 299 297 297 297 296 296 295 297 297 298 298 298 298 297 298 298 298 298 297 296 295 294 293 293 292 291 290 289 289 289 290 291

GFSCGP_925_thetae_084.txt.gz
Theta_e
314 317 322 319 322 324 327 329 328 326 327 330 331 331 330 331 332 331 323 320 320 320 323 327 332 334 336 337 339 339 335 327 318 309 308 307 307 306 306 307 307 306 306 306
316 318 316 320 321 323 327 331 330 327 330 327 329 331 330 329 331 330 330 328 323 315 322 327 326 329 332 334 335 332 328 316 311 311 309 308 307 307 307 307 307 307 306 306
318 318 318 323 325 330 330 331 330 331 328 324 331 330 329 328 327 325 319 320 317 313 318 322 316 318 322 327 331 327 321 313 311 309 308 307 307 307 307 307 307 307 307 307
319 319 324 327 328 330 330 329 328 332 332 335 327 335 326 323 322 317 314 312 313 312 316 318 313 311 316 318 323 321 316 313 310 308 308 307 307 307 307 307 307 307 307 307
319 325 325 328 327 329 328 330 329 329 327 328 324 330 325 314 316 315 312 312 312 311 311 313 311 311 311 315 316 317 314 310 309 308 307 307 307 307 307 307 307 308 307 306
322 322 324 324 323 326 324 325 324 321 323 331 329 329 329 316 315 314 311 311 310 308 308 307 308 309 308 310 313 312 310 308 308 307 306 306 306 307 307 308 308 308 308 307
323 323 322 324 324 322 325 326 327 331 330 333 317 324 330 315 311 312 311 310 307 305 307 303 303 304 307 307 308 308 308 306 305 305 305 306 306 307 307 307 307 307 306 304
326 325 321 319 323 325 326 326 327 333 329 328 318 326 323 311 309 308 307 306 305 305 303 303 303 304 306 306 307 307 306 306 305 306 306 306 306 307 307 307 306 304 303 302
323 324 319 320 320 322 324 328 320 314 311 317 317 312 310 310 310 309 307 306 305 304 303 303 303 305 305 306 306 307 307 306 306 306 306 306 305 305 304 303 302 302 301 301
321 322 318 324 318 316 321 320 330 324 321 316 311 313 315 313 311 309 307 306 304 302 301 301 300 302 304 306 306 305 305 305 304 304 303 303 303 302 302 301 301 300 300 299
313 318 316 321 319 321 316 317 316 322 319 319 315 314 308 309 310 309 307 304 303 302 301 300 299 301 302 303 304 303 303 303 303 303 302 302 301 301 300 300 300 299 299 298
311 313 313 315 310 310 315 315 314 319 315 308 311 313 306 304 307 308 306 304 303 302 301 299 298 299 300 301 302 302 302 302 302 301 301 300 300 300 299 299 299 298 297 296
310 313 313 312 311 310 318 316 311 310 309 309 312 312 305 307 307 307 306 304 302 302 300 298 298 298 299 300 301 301 301 301 301 300 300 299 299 299 299 298 297 296 295 295
310 312 311 312 312 309 309 311 311 310 311 309 309 311 309 308 308 306 305 304 302 302 300 298 296 296 297 299 300 300 300 300 300 300 299 299 298 298 298 297 296 295 295 295
307 311 309 308 308 308 308 308 309 310 310 312 312 309 308 306 306 306 304 303 302 301 300 298 296 294 296 298 299 299 299 299 299 299 299 298 298 297 296 296 295 295 295 294
305 308 308 309 310 311 311 309 307 308 308 307 308 308 305 304 303 305 304 303 303 301 300 298 296 295 297 298 298 299 299 298 299 299 298 298 297 297 296 295 295 295 295 294
305 306 308 309 312 313 315 313 310 308 307 307 308 307 306 305 305 305 304 303 302 300 299 296 295 296 297 298 299 298 298 298 298 298 298 297 297 296 296 295 295 295 294 293
305 309 309 310 312 314 312 308 309 309 309 306 308 307 305 304 301 300 300 301 300 299 296 295 296 297 298 298 298 298 298 298 298 298 297 297 297 296 295 294 294 294 293 293
304 308 310 310 311 310 309 308 306 310 308 308 308 305 304 302 302 301 297 298 297 295 295 296 298 298 298 298 298 298 298 298 297 298 298 297 296 296 294 294 294 294 293 292
306 306 309 309 312 313 309 306 306 302 302 301 306 304 303 303 304 300 297 296 295 296 297 297 298 298 298 298 298 298 298 298 297 297 297 297 296 295 294 294 293 293 291 291
305 305 310 311 310 311 308 307 304 304 303 304 306 304 302 304 300 298 295 295 296 297 297 298 298 298 298 298 298 298 297 297 297 297 297 296 295 294 294 293 293 292 291 290
306 305 306 308 311 310 306 306 305 302 304 305 304 303 302 299 296 296 296 295 296 296 297 297 298 298 298 298 297 297 297 297 297 297 296 295 295 294 293 293 292 291 290 289
308 307 307 307 308 306 303 304 302 301 304 305 303 301 299 297 297 296 296 295 296 297 297 298 298 298 298 297 298 297 298 297 297 297 296 295 294 294 293 292 291 290 289 289
307 304 307 307 307 304 304 303 302 303 304 303 302 299 298 297 296 296 295 294 295 296 297 297 298 297 297 298 297 297 297 297 297 296 295 294 293 293 292 291 290 289 289 289
305 305 305 304 303 302 302 301 303 303 302 301 298 297 297 296 296 295 295 294 295 297 297 298 297 297 297 297 297 297 297 297 296 295 294 293 293 292 291 290 289 289 289 290
301 305 305 308 304 302 301 302 301 302 302 299 298 297 296 296 295 295 294 295 296 297 297 297 297 297 297 297 297 297 297 296 295 294 293 292 292 291 290 289 288 288 289 290

GFSCGP_925_thetae_087.txt.gz
Theta_e
314 317 320 319 317 317 326 329 331 328 327 331 333 333 330 331 333 330 328 329 330 333 328 327 333 334 337 338 339 338 337 335 331 322 312 307 307 307 306 306 306 306 307 306
317 319 316 319 318 319 315 324 329 331 328 329 332 333 332 331 332 332 330 325 324 320 324 329 331 334 334 336 336 337 335 333 325 320 312 308 307 307 306 306 306 306 306 306
318 317 318 317 321 321 317 321 329 331 328 327 330 332 331 330 329 330 328 328 328 327 320 324 325 326 328 330 334 332 334 328 323 314 309 308 307 306 306 306 306 306 306 306
319 317 318 320 321 323 323 325 330 331 333 335 327 337 330 328 328 326 327 319 322 318 316 321 324 319 321 324 328 327 330 326 319 310 309 308 307 307 307 307 307 307 306 306
321 323 325 322 322 325 325 329 330 331 332 332 327 335 332 315 320 323 319 315 314 313 314 319 320 316 315 321 321 325 324 317 310 309 309 308 307 307 306 306 306 306 306 306
323 321 324 323 324 325 324 326 326 324 329 336 331 333 334 324 321 316 314 314 313 311 310 313 313 309 309 315 323 323 316 309 308 308 307 306 306 306 306 307 307 307 307 307
322 323 322 322 325 324 326 329 334 335 335 334 319 330 331 318 312 313 314 313 311 309 310 308 308 307 306 310 313 312 309 307 306 306 306 306 305 306 306 307 307 307 306 305
324 326 321 320 323 325 327 329 333 333 336 333 320 328 328 312 311 309 310 310 308 308 307 307 306 307 306 307 307 307 306 305 305 305 305 305 305 306 306 306 306 305 304 303
322 323 318 320 320 322 325 329 323 316 312 321 322 316 313 311 311 309 309 309 308 307 306 306 305 305 305 305 305 305 305 305 305 305 305 306 306 305 305 304 303 302 301 301
320 322 319 324 318 316 324 323 330 329 324 320 315 314 324 314 314 311 310 309 307 305 305 304 304 304 304 305 305 305 306 306 305 304 303 303 302 302 302 301 301 300 300 299
319 319 318 323 322 319 319 320 320 325 322 324 321 319 311 311 312 312 310 308 307 305 304 303 301 301 302 302 303 304 304 303 302 302 302 301 301 301 300 300 300 300 299 298
311 314 316 321 319 309 314 316 322 328 320 312 313 322 308 307 306 311 310 307 305 304 303 301 300 300 300 300 301 301 301 302 301 301 301 301 300 300 300 299 299 298 297 296
309 315 315 313 314 314 320 316 312 312 313 313 317 320 307 309 307 309 310 307 305 304 302 300 300 300 300 299 300 300 300 300 300 300 300 300 299 299 299 298 297 296 296 295
310 311 313 315 312 310 315 313 312 313 316 314 313 314 312 309 310 309 308 307 305 304 302 301 300 299 298 298 298 299 299 300 300 300 299 299 298 298 298 297 296 295 295 295
308 309 309 309 308 309 308 309 310 311 311 315 313 311 311 309 308 309 308 306 304 304 302 301 299 297 297 297 297 299 299 299 299 299 298 298 298 297 297 296 295 295 295 295
304 309 308 308 311 309 309 309 307 308 308 308 308 310 307 305 305 307 307 306 305 304 303 300 298 297 297 297 298 298 298 298 298 298 298 298 297 297 296 296 295 295 295 295
305 306 310 310 311 313 314 313 311 308 307 308 311 310 306 306 306 307 306 306 305 303 302 299 298 297 297 297 298 298 298 298 298 298 297 297 297 297 296 296 295 295 295 294
305 309 309 313 310 313 311 308 309 309 309 307 307 307 306 304 302 301 301 304 304 302 300 298 297 297 297 298 298 298 298 298 297 297 297 297 297 297 296 295 294 294 294 293
303 308 310 312 312 311 308 308 306 309 309 301 307 306 304 303 302 303 298 300 300 299 297 297 297 297 297 298 298 298 297 297 297 297 297 297 297 296 295 294 294 294 293 292
306 306 310 310 314 314 310 306 305 302 305 302 306 305 305 303 307 305 298 297 297 296 296 296 297 297 298 297 298 298 297 297 297 297 297 297 296 295 294 294 294 293 292 291
305 306 310 311 314 313 308 307 304 307 307 303 306 304 304 306 303 299 297 296 296 297 297 297 297 297 297 297 297 297 297 297 297 297 296 296 296 295 294 293 293 292 291 290
308 308 309 309 312 310 306 306 305 305 303 304 304 303 303 301 298 298 297 297 297 297 296 297 297 297 297 297 297 297 297 297 297 297 296 295 295 294 293 293 292 291 290 289
310 308 309 310 311 306 304 304 302 301 305 305 304 302 301 299 298 298 297 297 297 297 296 297 297 297 297 297 297 297 297 297 297 296 295 295 294 293 293 292 290 289 289 289
307 303 308 308 307 305 305 303 301 302 304 303 302 301 300 299 298 297 296 296 296 296 296 297 297 296 296 297 297 297 297 297 296 296 295 294 293 293 292 291 290 289 289 289
306 304 306 305 305 304 303 301 302 302 302 302 299 299 299 298 297 297 296 296 296 296 296 297 297 296 296 297 297 297 296 296 296 294 293 293 292 291 290 289 288 288 289 289
302 306 307 310 305 305 304 301 301 302 303 301 299 298 297 297 297 296 296 295 296 296 297 296 296 296 296 296 296 296 296 295 294 293 292 291 291 290 289 288 287 288 288 289

GFSCGP_925_thetae_090.txt.gz
Theta_e
316 317 318 317 315 316 314 313 316 320 323 330 333 335 333 331 330 333 337 338 338 336 334 333 334 338 336 338 341 342 339 333 327 321 314 311 311 310 309 309 308 308 308 308
318 320 319 318 315 316 316 316 318 322 323 329 330 336 335 332 332 331 332 334 335 335 336 334 333 334 337 340 341 341 337 332 324 319 316 315 313 310 310 309 309 309 309 309
323 321 320 318 317 318 318 319 317 322 329 331 328 330 334 334 332 332 331 331 329 331 333 334 335 336 337 339 339 339 334 327 324 319 314 312 310 309 309 309 309 309 308 309
323 321 320 320 319 319 319 318 317 324 331 333 333 327 330 334 335 333 333 332 331 328 328 327 332 333 337 338 337 335 332 327 322 318 314 312 312 311 309 309 309 309 308 308
324 324 323 322 320 319 320 318 318 322 330 331 333 330 331 331 336 335 333 333 331 330 328 325 327 328 329 333 332 331 327 325 320 315 313 312 312 312 311 310 310 309 309 308
322 322 323 324 324 324 321 323 325 328 332 335 328 332 329 331 331 332 329 327 325 323 319 321 323 324 324 326 326 326 327 321 314 310 312 312 312 310 310 310 310 310 309 308
321 323 321 321 324 326 326 324 329 334 334 335 329 332 329 329 323 321 320 321 320 318 317 318 321 321 320 322 324 324 319 312 311 311 310 310 310 310 310 310 310 310 309 308
326 326 322 321 323 325 322 324 330 341 330 330 325 330 326 322 317 316 315 318 316 315 316 315 317 319 319 321 321 314 311 308 308 309 308 308 309 309 309 309 309 309 308 307
323 325 319 322 322 323 327 327 325 328 320 329 328 326 322 316 316 315 316 316 315 314 314 313 314 316 316 316 311 308 306 306 307 308 307 308 308 309 308 307 307 306 305 303
320 326 320 319 321 318 324 324 328 328 331 328 323 322 327 321 319 317 316 316 313 312 312 312 312 312 311 310 307 306 307 307 307 307 308 307 306 305 304 304 304 303 302 301
320 320 320 323 322 320 324 325 327 327 327 331 326 322 316 316 315 318 316 314 313 312 312 311 311 310 308 307 307 307 307 306 306 305 304 304 303 303 303 303 302 302 301 300
317 316 319 324 321 318 312 318 326 331 328 321 323 325 312 313 313 317 315 313 312 310 309 309 308 307 308 307 307 307 306 305 304 303 303 303 302 302 302 302 301 300 299 298
313 317 319 317 319 317 320 321 317 318 322 327 324 325 313 315 313 316 314 312 311 309 308 308 308 308 307 306 305 305 304 303 303 303 302 302 302 302 301 300 299 298 298 298
314 314 315 317 316 312 316 320 318 320 322 322 321 323 318 315 316 315 314 312 311 310 308 309 308 306 305 305 304 303 303 302 302 301 301 301 301 300 300 299 298 297 297 296
312 314 313 313 313 312 312 311 316 316 319 320 318 316 317 315 313 316 315 312 311 310 308 308 307 306 304 303 303 302 302 301 301 301 301 300 300 299 298 298 297 297 296 296
311 314 312 312 313 315 313 313 312 311 312 314 315 315 311 310 311 314 314 312 311 310 308 307 305 304 303 303 302 302 301 300 300 300 300 299 299 299 298 298 297 297 297 297
311 312 315 314 313 315 318 315 315 313 311 312 314 314 311 312 312 313 313 313 312 311 309 306 304 303 303 302 302 302 301 300 300 300 299 299 299 298 298 298 297 297 297 297
311 312 315 316 316 317 315 311 311 312 311 310 311 311 311 310 308 307 308 312 312 310 308 306 303 302 302 301 301 300 299 300 299 299 299 298 299 298 298 298 297 297 297 296
309 312 316 318 317 315 312 311 310 311 310 307 310 310 309 308 309 308 304 305 309 308 306 303 302 302 301 300 299 299 299 299 299 299 299 299 298 298 297 297 297 296 296 296
310 311 315 316 321 320 314 309 308 306 309 308 310 310 310 309 311 311 304 304 304 303 302 302 301 300 300 299 299 300 299 299 299 299 299 298 297 297 297 297 296 296 295 294
312 313 316 316 319 316 313 311 307 310 310 308 310 310 310 311 308 304 302 303 302 302 301 300 300 300 300 299 299 300 299 299 299 298 298 297 297 297 296 296 295 295 294 293
315 316 317 315 319 319 310 309 310 309 309 309 310 309 309 306 304 303 303 302 301 301 300 300 300 300 299 299 299 299 299 298 298 297 297 297 297 296 295 295 295 294 293 292
316 313 315 315 316 312 309 310 308 306 310 310 309 308 308 305 304 303 303 302 301 300 300 300 300 300 299 298 299 299 299 298 298 298 297 297 296 295 295 294 294 293 292 291
313 308 313 314 311 312 310 309 307 307 308 308 308 307 306 306 304 303 302 301 300 300 300 299 300 299 299 298 298 298 298 297 297 297 297 296 295 294 294 293 293 291 290 291
312 310 312 313 313 311 310 307 306 307 306 307 305 306 306 305 303 302 301 301 300 300 299 300 299 299 299 298 298 298 297 297 297 296 296 295 294 294 292 291 290 290 290 290
311 312 313 314 311 310 312 309 306 307 307 307 305 304 303 304 303 302 301 300 300 300 300 299 299 298 298 298 298 297 296 295 295 295 294 293 292 291 290 290 290 290 289 289

GFSCGP_925_thetae_093.txt.gz
Theta_e
319 320 322 321 320 318 317 317 316 315 315 317 324 328 330 329 335 336 337 337 335 335 338 340 341 341 341 342 340 343 342 341 336 331 318 317 312 313 312 311 311 310 310 310
322 324 323 321 321 320 317 316 316 315 315 318 321 325 328 329 335 334 337 337 335 334 336 339 340 341 342 337 334 343 342 337 332 328 320 318 315 314 313 311 310 310 310 310
323 324 321 321 320 320 318 316 316 316 315 318 324 324 327 327 334 333 334 336 335 334 336 336 337 338 337 334 339 341 341 336 332 328 321 320 317 314 312 312 311 310 311 310
324 323 324 323 322 320 319 317 316 316 317 323 325 331 326 328 334 334 335 333 333 333 333 335 335 335 335 337 340 342 340 336 332 327 322 318 315 314 313 312 311 311 310 310
323 324 324 325 321 321 319 318 317 317 318 323 331 329 323 325 330 334 335 334 332 330 331 331 333 335 337 339 340 341 339 334 331 325 320 317 316 314 312 311 311 311 311 310
322 322 324 324 323 323 321 319 319 321 323 329 330 335 324 326 326 329 332 335 334 333 330 329 327 330 334 338 340 338 336 333 327 323 320 317 314 313 312 312 312 312 311 311
323 323 322 322 325 322 324 322 329 333 336 336 330 333 333 332 329 328 330 332 333 330 327 324 326 328 327 331 333 334 332 329 324 319 316 315 314 312 312 312 312 312 312 311
326 327 322 321 324 325 325 323 332 336 333 335 332 336 330 325 322 321 321 326 325 322 321 321 324 324 325 327 329 331 330 321 317 315 313 312 312 312 311 312 311 312 312 311
324 325 322 321 323 323 324 328 325 325 327 332 329 327 324 322 321 322 321 321 320 319 319 319 321 322 325 327 327 324 318 315 313 311 310 310 311 311 311 311 310 310 309 307
321 324 321 322 323 321 323 324 328 328 341 337 327 327 325 322 322 320 321 320 318 316 316 317 319 320 323 319 317 315 311 309 309 309 309 310 310 310 309 308 307 306 305 304
318 322 321 323 323 323 324 326 325 329 327 338 329 320 316 317 320 320 320 318 316 316 316 316 316 315 314 313 311 310 309 309 309 309 309 308 307 306 306 306 305 304 303 303
316 316 320 320 320 320 319 318 323 331 333 329 330 320 318 317 319 319 317 316 315 314 315 315 313 312 311 310 309 309 308 308 308 307 307 306 305 305 305 304 303 302 302 301
315 316 318 319 320 317 316 322 321 322 322 327 332 326 318 317 319 318 317 315 313 313 313 313 313 312 311 310 309 309 308 307 306 306 305 305 304 304 304 303 302 300 300 300
315 316 317 317 316 316 316 316 323 323 328 325 326 323 319 318 318 318 316 315 313 312 312 313 312 311 310 309 308 307 306 305 305 305 304 304 303 303 302 301 300 299 299 298
314 314 315 315 314 314 314 314 314 315 315 317 320 317 316 315 315 318 316 315 314 312 312 311 311 310 309 308 307 306 305 304 304 303 303 303 302 301 300 300 299 299 298 298
314 314 315 316 314 315 315 317 317 315 314 313 314 315 313 314 315 317 316 315 314 313 312 311 310 309 307 307 306 305 304 303 303 303 302 301 301 300 300 300 299 299 299 298
313 314 316 319 314 316 319 315 316 316 315 314 316 315 315 314 315 316 316 315 314 313 311 310 309 307 307 306 305 304 303 302 302 302 301 300 300 300 300 299 299 299 299 299
313 314 316 319 319 320 316 314 313 313 311 310 310 314 313 312 311 312 313 315 314 313 311 309 307 306 305 304 304 303 302 302 301 300 300 300 300 300 299 299 299 299 298 298
312 314 318 319 320 316 315 313 311 312 309 313 314 313 312 311 312 310 308 311 313 312 310 307 305 305 304 303 302 301 301 300 300 300 300 300 300 299 299 299 299 298 298 297
312 313 316 318 322 323 314 312 310 308 311 313 313 313 312 312 314 312 308 308 309 307 306 305 305 304 303 302 301 301 301 300 300 300 300 299 299 299 299 298 298 298 297 297
316 316 318 320 321 319 314 312 311 313 313 312 313 313 312 314 311 308 307 307 306 305 304 303 303 303 301 301 301 300 300 300 300 299 299 299 299 298 298 297 297 297 297 296
317 318 320 318 321 325 313 312 313 311 312 311 312 312 312 309 307 307 306 305 304 303 303 302 302 301 301 300 300 300 300 300 299 299 299 299 298 298 297 297 296 296 296 295
316 316 318 317 319 314 313 313 312 311 311 311 312 311 311 309 307 306 305 305 304 302 302 302 301 301 300 300 299 299 300 299 299 299 299 298 297 297 296 296 296 295 295 292
315 313 316 317 316 314 312 311 310 310 310 311 310 310 310 309 307 306 305 304 303 302 301 301 301 300 300 299 299 299 299 299 298 298 298 297 297 296 295 295 294 293 291 291
314 313 315 315 315 314 313 312 311 311 310 309 309 309 309 309 307 306 304 304 302 302 301 301 300 300 300 299 299 299 299 298 298 298 297 296 295 294 294 292 291 291 291 291
309 311 313 315 314 313 313 312 312 311 310 309 309 308 308 307 306 305 304 303 302 301 301 301 300 300 299 299 299 298 297 297 296 296 295 295 294 292 291 291 291 291 291 290

GFSCGP_925_thetae_096.txt.gz
Theta_e
322 321 322 323 323 322 322 320 320 317 316 316 315 316 319 322 326 327 330 334 333 338 339 341 341 341 340 338 339 343 343 342 339 333 330 327 325 319 315 312 311 310 309 310
323 324 323 321 322 323 323 322 320 316 316 315 315 315 317 324 328 328 335 335 334 332 338 340 338 335 335 341 341 343 341 341 338 334 334 333 317 314 313 312 311 310 310 310
323 323 322 323 323 321 321 321 320 317 316 316 315 315 316 320 325 332 333 333 334 333 333 338 335 336 341 340 339 342 341 340 337 335 331 321 315 314 313 311 310 310 310 310
323 322 322 323 323 322 324 320 319 319 320 317 315 318 318 322 324 330 333 333 334 332 333 337 339 340 341 338 335 342 340 336 335 332 321 319 317 314 313 312 310 310 310 310
323 322 323 325 323 323 323 321 322 322 319 317 317 321 323 325 324 332 332 331 331 331 331 335 337 338 339 336 338 343 337 336 334 331 321 320 315 314 313 312 311 311 311 310
321 322 323 323 322 323 323 322 323 323 323 323 319 327 330 327 325 332 332 332 330 329 329 328 331 335 335 338 341 342 337 334 332 328 323 317 316 315 313 311 311 311 310 310
320 322 322 322 325 324 324 325 325 326 328 325 328 328 326 326 327 326 330 330 330 328 327 326 327 330 335 340 340 339 336 333 332 326 320 318 316 313 312 312 312 311 311 311
320 325 321 321 323 326 326 325 327 327 335 334 328 333 332 329 325 324 327 331 332 328 322 324 326 327 331 332 335 335 333 328 326 321 318 315 313 312 312 312 312 312 312 312
321 325 320 322 321 323 324 329 323 325 325 332 328 328 328 327 323 323 323 323 323 320 319 321 323 325 327 329 330 331 327 324 320 316 314 313 312 312 311 312 311 310 310 309
318 322 321 322 323 323 324 324 329 326 334 332 326 317 318 321 321 321 319 317 317 316 316 319 320 325 328 328 328 322 319 315 313 311 311 311 311 311 311 310 309 307 306 304
316 318 318 320 322 323 324 323 327 327 330 336 325 319 316 319 319 319 317 316 315 315 315 316 316 316 317 316 313 312 311 310 310 310 310 310 310 308 307 306 306 304 304 303
315 315 317 319 320 320 320 320 323 330 329 329 329 319 315 318 317 316 316 319 316 315 314 313 312 312 312 311 310 309 310 310 309 309 308 307 306 306 305 304 304 303 302 302
315 315 317 318 318 317 316 316 322 323 328 329 333 331 316 317 316 315 314 313 313 313 312 311 310 310 309 309 309 309 308 308 307 307 306 305 305 304 304 303 302 301 300 300
315 316 316 317 316 315 314 315 315 323 330 325 325 319 314 315 318 316 314 312 312 312 312 311 309 308 309 309 308 307 306 306 306 305 304 304 304 303 302 301 300 300 299 299
314 315 315 315 315 314 314 315 314 314 313 314 314 315 313 314 315 316 314 312 311 312 311 310 308 306 308 307 307 306 305 305 304 304 303 302 302 301 300 300 299 299 299 298
312 315 314 315 316 315 315 316 317 316 315 314 315 314 313 313 314 314 312 312 312 310 310 309 308 307 307 306 305 304 304 303 303 303 302 301 301 300 300 300 300 299 299 299
313 315 316 318 318 318 319 315 316 316 311 310 315 315 313 313 315 314 313 313 312 310 309 308 306 306 306 305 305 304 303 303 302 302 301 300 300 300 300 299 299 299 299 299
313 314 316 318 318 322 315 313 313 313 312 313 311 314 313 311 309 308 309 313 311 310 308 306 306 305 305 305 304 303 302 301 301 300 300 300 300 300 299 299 299 299 298 298
311 313 317 321 319 317 314 312 311 312 312 313 314 313 311 311 308 307 307 309 310 308 307 306 305 305 304 303 302 301 301 300 300 300 300 300 299 299 299 299 298 298 298 298
313 313 315 318 324 326 315 311 310 309 311 313 313 312 312 311 314 307 307 307 305 306 306 305 304 303 302 301 301 301 300 300 300 300 299 299 299 299 298 298 298 297 297 297
315 315 316 317 323 321 313 311 311 314 313 312 312 312 312 312 309 306 305 305 305 305 304 304 303 301 301 301 301 300 300 300 299 299 299 299 299 298 298 297 297 297 296 296
317 320 319 318 321 322 313 312 314 311 312 311 312 311 309 307 306 306 305 304 303 303 303 302 301 301 300 300 300 300 300 299 299 299 299 299 298 297 297 296 296 296 295 295
316 315 317 317 318 314 313 312 312 311 310 312 311 310 309 307 306 305 304 303 303 302 302 301 301 300 300 299 299 299 299 299 299 298 298 298 297 297 296 295 295 295 293 292
313 313 315 316 317 315 311 310 310 310 310 310 310 310 309 307 305 304 303 302 302 302 301 301 301 300 300 299 299 299 299 299 298 298 298 297 296 296 294 294 293 292 291 291
310 313 314 314 314 314 312 312 310 311 310 309 309 309 309 306 305 304 303 301 302 301 301 300 300 300 299 299 299 299 298 298 297 297 296 295 294 294 293 292 291 291 291 291
308 308 309 311 311 312 313 311 310 310 310 310 308 308 308 306 305 304 302 302 301 301 301 300 300 300 299 299 298 298 297 296 295 295 294 294 293 292 291 291 291 291 291 290

GFSCGP_925_thetae_099.txt.gz
Theta_e
318 321 321 321 319 320 321 322 322 320 318 315 314 313 312 313 315 318 320 326 333 333 334 338 338 337 336 336 340 340 339 339 338 334 333 328 328 329 321 315 311 310 310 310
318 320 321 321 322 322 321 321 320 318 317 314 313 313 313 311 315 317 320 322 326 331 339 338 339 337 337 339 340 340 339 339 337 336 334 331 332 328 317 313 311 311 309 310
321 321 322 323 323 323 322 321 321 321 318 317 313 314 312 313 312 317 324 329 331 334 336 337 338 337 336 338 342 340 340 339 337 336 333 332 331 320 313 312 311 310 309 309
321 321 322 323 324 323 325 322 322 322 320 320 314 315 312 312 313 316 324 328 333 334 331 333 336 336 335 338 342 338 335 336 335 334 332 331 324 313 313 312 311 310 310 310
317 322 323 325 323 322 324 323 322 322 322 320 319 315 313 314 319 320 322 327 332 332 330 331 337 335 336 338 338 337 334 334 334 333 333 322 315 314 313 312 310 310 310 310
314 319 322 322 322 323 323 324 323 322 322 322 318 318 317 325 325 323 323 328 330 329 329 331 335 338 335 336 340 338 336 334 334 333 329 319 318 314 313 311 311 310 310 310
315 321 320 320 322 322 325 324 324 321 325 325 325 324 321 325 326 325 325 326 327 326 325 328 331 333 334 338 338 337 336 332 332 328 322 320 318 314 313 312 311 311 310 310
315 321 319 318 320 323 325 324 326 324 329 330 322 326 328 324 325 324 325 327 326 325 324 325 327 329 333 336 337 335 333 332 330 326 321 317 316 314 313 312 311 311 311 310
316 321 318 317 321 321 323 329 321 322 322 328 325 325 326 325 326 324 325 322 321 321 323 323 323 327 330 333 333 334 333 331 328 322 318 316 312 312 312 312 312 311 311 310
314 317 315 318 320 321 323 324 329 325 333 324 321 318 321 328 326 322 320 324 321 321 320 321 322 325 327 327 328 327 326 321 317 316 313 311 311 311 311 310 310 310 309 308
311 312 311 314 319 320 320 320 327 327 326 333 325 319 318 318 317 316 313 314 316 314 314 314 312 312 314 316 318 317 315 312 311 312 311 311 311 310 309 308 306 306 304 303
313 311 312 314 315 318 316 317 324 328 330 327 326 320 313 314 314 315 314 314 312 311 311 310 309 309 309 309 310 310 310 310 310 310 310 309 307 306 306 305 304 304 303 302
312 311 313 313 311 312 312 313 314 323 325 325 322 322 313 313 312 311 311 313 314 311 309 307 306 306 308 308 308 309 309 308 307 306 305 305 304 304 303 303 302 301 300 300
313 312 313 314 313 311 312 312 312 318 314 317 322 314 311 314 314 312 310 310 310 310 309 306 305 305 306 307 307 306 306 306 305 305 304 303 303 302 301 301 300 300 299 299
308 311 311 312 312 313 312 314 315 314 312 311 311 313 312 312 314 312 310 310 310 309 308 306 304 303 304 305 305 305 304 304 304 303 302 302 302 301 300 299 299 299 299 298
307 311 311 312 315 314 313 314 314 314 311 311 313 313 310 311 311 311 310 310 309 309 308 306 304 303 302 303 304 304 303 303 303 302 301 300 300 300 300 300 299 299 299 298
306 310 311 313 313 315 315 313 313 309 309 309 311 313 311 309 310 308 310 309 309 308 306 304 303 302 303 304 303 303 302 302 302 301 300 300 300 299 299 299 299 298 298 298
306 309 311 312 314 318 313 311 311 310 312 311 311 311 310 307 306 305 306 309 308 307 305 302 302 302 303 303 302 301 301 301 300 300 300 299 299 299 299 298 298 298 298 298
305 309 311 313 314 315 312 310 310 311 312 312 311 310 309 307 306 305 305 306 306 304 302 302 303 302 302 301 301 300 300 300 299 299 299 299 299 298 298 298 298 297 297 297
309 308 310 311 315 320 313 310 308 307 308 311 311 309 309 308 311 306 304 303 302 303 303 302 302 301 301 301 300 300 299 299 299 299 299 299 298 298 298 298 297 297 296 296
311 310 311 311 310 316 312 310 310 311 310 310 310 310 311 308 306 303 302 302 302 302 302 301 301 300 301 300 300 299 299 299 299 298 298 298 298 298 297 296 296 296 296 295
313 311 311 312 313 317 311 311 313 309 308 310 309 308 306 304 303 303 302 301 301 300 300 300 300 299 299 299 299 299 299 298 299 298 298 298 297 297 296 296 295 295 294 292
312 311 313 313 314 311 311 311 310 307 307 310 309 307 304 304 303 303 301 300 300 300 300 300 299 299 299 299 299 299 299 298 298 298 297 297 296 295 295 294 293 292 291 290
307 310 312 311 312 310 308 308 308 309 309 309 308 306 304 304 303 302 300 299 299 300 300 300 299 299 298 299 299 299 298 298 297 296 295 294 294 294 293 292 291 291 291 291
305 306 310 309 309 310 309 307 307 308 308 308 307 307 305 303 302 301 300 299 299 300 300 299 299 298 298 299 298 298 297 296 296 295 294 293 293 292 291 291 290 291 291 291
304 305 307 309 308 306 308 308 309 308 308 307 306 307 305 303 302 301 299 300 300 299 299 299 299 298 298 297 296 296 295 294 294 293 293 293 291 290 290 290 289 289 289 289

GFSCGP_925_thetae_102.txt.gz
Theta_e
317 318 319 318 318 319 319 320 320 319 319 317 317 315 312 311 310 310 311 314 322 330 336 337 336 334 335 335 337 338 338 338 336 327 321 318 319 318 321 314 311 310 310 310
317 319 318 320 322 322 321 321 321 318 317 318 317 315 312 311 311 310 311 314 319 327 331 335 335 335 335 336 337 337 337 336 330 326 322 321 323 320 318 314 311 310 310 310
320 319 320 322 322 323 322 322 321 322 320 316 315 317 313 311 310 310 310 313 317 322 337 338 335 335 335 338 338 336 336 334 330 327 326 325 323 322 321 315 311 310 310 310
317 319 322 323 324 323 324 321 323 324 324 323 314 320 314 311 310 311 316 317 326 335 338 337 336 335 336 339 339 336 332 331 331 330 328 329 327 324 324 316 311 310 310 309
312 316 321 324 323 321 323 323 324 323 323 322 321 319 314 313 317 321 319 320 321 333 338 338 336 336 336 337 339 334 332 330 331 333 331 330 330 327 324 314 311 310 309 309
312 314 321 321 320 320 321 325 322 321 322 323 323 318 315 323 323 323 323 322 321 330 332 336 337 336 336 336 337 333 332 332 333 332 329 331 331 329 314 312 312 310 309 309
312 314 318 319 319 320 323 324 325 319 325 327 322 322 316 322 323 324 324 323 324 323 328 333 334 333 335 337 336 333 334 332 331 328 328 331 327 317 314 313 312 309 309 310
314 315 318 316 317 320 324 325 326 324 328 325 323 326 327 319 321 323 321 322 325 325 326 329 334 333 334 337 337 336 335 332 330 327 330 328 318 318 315 315 312 310 310 310
314 316 315 314 315 320 323 326 321 322 322 322 325 324 322 324 324 324 324 322 323 324 325 326 327 330 334 335 334 333 331 330 329 329 325 321 319 315 314 312 312 311 310 309
312 314 313 313 316 319 322 320 327 325 328 321 323 320 322 328 326 324 326 325 322 322 322 323 323 322 327 330 329 331 330 328 327 323 319 316 314 313 313 312 310 310 310 308
311 310 311 311 314 317 314 317 326 323 327 329 322 319 316 316 318 316 321 324 319 317 315 311 309 310 315 319 320 317 320 319 317 311 311 311 310 310 310 310 309 308 307 306
312 309 311 312 311 311 311 314 322 324 326 326 324 321 311 312 313 314 313 313 312 312 311 308 307 307 307 309 311 310 311 311 311 310 310 309 308 308 307 306 305 304 304 302
311 309 311 310 309 309 311 310 315 321 321 323 319 321 312 311 311 311 313 313 311 310 308 307 306 304 306 307 308 308 308 308 308 307 306 305 305 304 303 303 302 302 301 300
311 310 310 311 311 311 312 312 311 317 309 310 316 313 311 313 312 311 311 309 309 309 307 305 303 302 304 304 305 305 304 305 304 304 304 303 302 302 301 300 300 299 299 298
306 309 309 310 310 311 311 312 312 312 311 309 310 312 311 312 312 311 310 310 309 308 306 304 302 301 302 302 303 304 303 304 304 303 302 301 301 300 300 299 299 299 298 298
301 306 309 311 312 312 314 312 312 309 307 310 312 312 310 309 309 309 309 309 308 307 305 303 302 301 301 302 302 303 303 303 303 302 301 300 300 300 299 299 299 299 298 298
302 307 309 312 310 313 315 311 311 308 311 309 312 312 310 308 308 309 309 308 307 305 303 302 301 301 302 302 302 302 302 302 302 301 300 300 299 299 299 299 298 298 298 298
302 307 308 310 311 317 312 310 309 311 311 311 311 310 308 307 306 305 305 306 305 304 302 300 300 301 301 301 301 301 301 301 300 299 299 299 299 299 298 298 298 298 297 297
301 305 309 311 313 313 312 310 308 309 310 311 310 309 307 305 306 307 303 305 304 302 300 300 301 301 300 300 300 300 299 299 299 298 299 298 298 298 298 298 297 297 297 296
304 305 309 309 314 317 313 309 307 306 307 309 309 308 307 307 309 305 303 302 300 300 300 300 300 300 300 299 300 299 299 299 298 298 298 298 298 298 298 297 296 296 296 296
310 309 309 309 309 312 311 309 308 307 307 308 308 307 306 307 305 302 301 300 300 300 300 300 300 300 299 299 300 299 298 298 298 298 298 298 298 297 297 296 295 295 295 294
311 310 309 309 312 316 310 309 310 307 306 308 308 308 306 303 302 301 301 300 299 299 299 299 299 298 298 299 299 298 298 298 298 298 298 297 296 296 295 295 294 293 292 291
312 310 311 311 313 310 309 308 308 305 307 308 308 306 303 302 302 301 300 298 298 298 298 298 298 298 299 299 299 298 298 298 297 297 296 295 295 294 293 292 291 291 290 290
307 307 310 311 311 311 308 307 307 305 306 307 307 305 302 302 301 300 299 298 298 298 298 298 298 297 297 298 298 298 297 297 296 295 294 293 293 292 291 290 290 290 291 291
303 305 306 307 306 307 308 306 306 307 307 307 305 304 303 302 301 300 299 297 298 298 298 298 298 297 297 298 297 297 296 296 295 293 293 293 291 290 290 290 289 290 290 290
303 305 306 306 306 307 306 307 306 307 307 305 305 305 303 302 301 300 298 299 298 298 298 298 297 298 297 296 296 295 294 294 293 293 292 291 289 289 288 288 289 289 288 288

GFSCGP_925_thetae_105.txt.gz
Theta_e
316 317 318 318 317 317 319 320 320 319 317 318 317 316 313 312 309 308 308 307 311 325 334 337 336 336 333 332 332 333 336 338 339 338 335 332 325 316 312 311 311 310 310 310
316 318 317 318 320 321 321 321 322 319 318 318 318 318 314 311 310 310 309 307 308 312 321 333 335 334 334 333 333 334 336 337 338 334 330 323 317 313 312 311 311 310 310 310
319 318 319 321 322 322 322 322 321 322 321 318 317 318 315 312 309 309 308 309 314 311 318 334 335 334 334 334 334 335 336 335 331 333 325 319 316 317 315 310 309 310 310 310
314 316 317 321 322 322 323 321 322 325 326 329 320 325 318 314 311 312 317 315 317 318 326 334 335 334 334 334 336 335 335 329 329 329 323 320 320 318 317 313 312 313 309 310
311 312 316 322 320 320 321 320 323 323 323 324 322 324 316 313 322 322 321 321 320 318 331 335 334 334 334 336 336 336 332 327 326 324 323 322 323 322 322 321 315 309 309 309
311 311 318 320 318 318 319 323 321 318 319 322 323 324 316 324 324 323 322 321 321 321 334 334 334 334 335 337 337 336 334 331 327 326 325 325 324 324 327 321 321 312 310 308
310 312 312 317 316 316 321 322 323 316 318 325 322 324 317 318 320 323 322 321 324 324 329 336 333 333 335 336 336 333 332 329 328 327 329 329 326 326 327 326 319 312 315 309
312 312 314 315 315 316 322 322 328 322 324 324 322 326 326 321 321 324 323 324 326 328 331 331 332 332 333 335 333 332 331 330 329 327 327 327 326 326 325 322 314 313 315 310
312 313 312 314 312 318 320 322 320 321 322 320 323 324 322 323 324 326 325 321 322 325 326 327 328 331 332 336 332 333 332 329 328 327 328 322 324 324 319 318 314 314 310 309
311 313 311 311 314 316 321 317 324 322 326 325 321 318 321 319 322 320 327 321 319 318 318 319 320 322 324 326 329 330 329 326 325 325 325 323 321 319 317 314 313 311 309 309
310 309 309 309 312 312 311 312 323 320 325 328 322 319 314 315 315 316 319 317 316 313 311 312 310 312 313 321 327 329 327 326 321 319 317 315 314 314 313 311 310 309 308 308
310 307 310 309 309 309 310 311 318 319 318 324 324 319 311 310 312 314 314 316 313 312 310 307 307 308 308 310 312 312 312 313 310 309 309 309 309 308 308 307 306 306 305 304
309 308 307 307 308 308 310 310 310 319 315 319 316 317 312 310 310 310 313 311 310 310 307 305 304 304 304 304 305 306 307 307 306 307 307 306 305 305 304 304 303 302 302 301
309 308 306 306 307 309 310 311 310 312 308 308 312 312 309 312 312 311 309 308 307 306 305 303 302 301 302 303 303 304 304 305 305 305 304 303 302 302 301 300 300 300 299 299
305 307 308 308 309 309 310 311 311 310 310 309 310 312 311 310 311 311 309 308 307 305 304 302 301 299 301 302 302 302 302 303 303 302 301 300 300 300 299 299 298 298 298 298
300 299 307 309 310 311 312 311 311 308 307 311 311 313 309 309 309 310 309 308 306 304 303 302 300 300 300 301 302 302 302 302 302 301 300 299 299 299 299 299 298 298 298 298
301 302 308 309 309 311 313 310 310 308 310 309 311 311 309 309 310 309 309 307 305 303 302 301 300 299 300 301 302 301 301 301 301 300 299 299 299 299 299 298 298 298 298 297
301 306 306 309 310 317 312 308 309 310 311 310 310 309 309 308 307 306 305 306 304 302 301 299 299 299 300 301 301 301 300 300 300 299 299 298 298 298 298 298 297 297 297 297
300 303 307 309 312 311 314 308 309 309 308 309 309 308 306 306 305 307 303 304 303 301 300 300 300 300 300 300 300 300 299 299 298 298 298 298 298 298 297 297 297 296 296 296
301 303 307 308 312 315 313 308 306 306 306 307 307 307 305 305 308 305 303 302 300 300 300 300 300 299 299 298 298 299 298 298 298 298 298 298 297 297 297 297 296 296 295 295
306 306 305 308 308 310 309 309 305 306 306 307 307 306 305 305 304 302 300 299 299 299 299 299 299 298 298 298 299 298 298 298 297 297 297 297 297 296 296 295 295 294 294 293
309 308 307 307 309 313 308 307 308 305 306 307 307 306 305 304 301 300 299 298 298 297 298 298 298 298 298 298 299 297 297 297 297 297 297 296 295 295 294 294 293 292 291 290
309 309 310 309 310 308 308 307 307 304 305 307 307 306 303 302 301 300 299 297 297 298 297 297 298 297 297 298 298 298 297 297 297 296 295 294 294 293 292 292 290 290 290 290
307 305 309 310 310 308 307 306 307 304 305 306 306 304 302 302 300 299 298 296 296 297 296 297 297 297 297 297 297 297 296 296 296 294 293 293 292 291 290 290 290 289 290 290
303 303 304 305 304 306 306 306 305 305 305 305 305 304 302 301 300 299 297 296 297 297 297 297 297 297 297 297 296 296 295 295 294 293 292 292 290 289 288 288 288 289 289 289
301 301 303 304 303 304 306 307 305 305 305 304 304 305 302 301 300 298 297 297 297 297 297 297 297 297 296 296 295 295 294 294 293 292 292 290 289 288 288 288 288 288 288 288

GFSCGP_925_thetae_111.txt.gz
Theta_e
315 317 319 318 317 319 319 320 322 321 319 319 321 320 319 319 317 317 316 314 312 311 310 318 336 336 336 334 334 335 334 334 335 338 338 338 337 334 330 328 327 322 308 308
315 315 315 316 318 320 321 321 321 320 319 319 321 320 319 316 315 313 313 316 318 318 315 315 328 335 335 333 333 333 333 332 334 335 336 335 334 333 330 328 327 325 312 309
317 314 316 315 319 320 319 319 320 322 322 320 320 320 318 318 316 316 319 318 320 321 321 320 319 335 335 333 332 332 332 333 334 325 335 335 332 327 322 321 319 320 318 312
314 311 312 315 319 319 319 318 320 323 321 322 320 322 318 320 321 319 321 320 321 322 321 321 320 328 335 334 332 332 332 333 331 331 331 335 331 323 318 314 314 318 319 315
309 310 311 318 316 317 318 318 321 320 321 320 321 321 318 320 321 317 320 322 323 324 324 324 322 323 335 334 332 332 333 333 330 332 330 330 327 321 314 310 309 312 313 313
312 308 311 318 316 316 318 320 317 315 317 323 320 322 320 323 320 319 322 321 323 326 329 331 327 330 333 333 332 332 333 333 332 331 327 327 321 317 313 311 311 313 316 314
308 309 309 313 313 313 321 322 326 325 324 324 319 321 320 319 318 319 324 322 323 325 329 333 333 333 333 333 333 333 333 327 328 328 325 323 320 322 321 319 315 316 314 314
312 311 310 310 312 314 321 321 324 325 325 324 318 324 322 317 317 320 322 320 319 320 323 325 331 333 334 332 331 330 328 327 327 325 323 321 323 322 321 322 322 318 317 316
312 311 308 310 310 315 317 321 319 320 317 323 321 320 320 317 316 318 322 320 318 315 316 319 322 329 331 330 330 329 328 326 326 326 324 324 323 321 321 321 321 321 319 317
309 312 308 309 313 311 316 317 322 320 324 324 321 319 317 317 317 320 321 318 316 314 315 315 317 322 324 326 328 328 327 326 323 324 324 324 325 324 322 321 320 318 316 315
308 308 308 307 309 310 311 312 316 320 322 326 324 322 314 315 318 319 317 316 314 313 311 312 310 311 314 316 319 321 324 321 323 322 323 323 322 321 320 318 315 312 313 312
308 307 309 308 306 305 309 310 313 319 318 322 323 320 311 312 315 314 312 312 310 309 307 307 309 309 307 306 306 307 312 315 317 317 316 316 315 312 310 308 308 306 306 306
306 307 307 303 305 305 308 309 309 313 314 318 317 314 308 311 312 311 311 309 308 307 306 305 306 305 304 303 302 303 304 305 305 307 306 305 304 304 303 303 302 302 302 301
308 306 306 305 303 306 308 307 309 310 311 310 312 311 311 311 312 311 309 307 307 306 306 306 304 303 301 301 301 301 301 302 303 303 302 301 300 300 300 300 299 299 299 299
301 304 306 306 306 306 306 306 307 311 308 311 309 310 312 311 311 311 308 307 307 306 305 304 303 301 300 300 299 300 301 301 301 300 299 298 298 298 298 298 298 298 298 297
299 300 303 306 307 307 309 310 309 310 308 307 307 310 310 309 309 309 308 307 306 305 303 302 301 300 299 299 298 299 299 299 300 299 298 298 298 298 298 298 297 297 297 297
301 301 307 307 306 309 312 310 309 307 306 306 308 310 309 310 310 310 308 307 306 304 303 302 301 299 298 298 299 299 299 299 299 299 298 298 298 298 298 297 297 297 296 296
300 303 306 309 309 313 309 308 307 307 306 308 307 307 309 310 308 307 306 307 305 304 302 300 299 298 298 299 299 299 299 298 298 298 297 297 297 297 297 297 296 296 296 295
299 302 306 310 311 310 312 308 307 308 308 308 309 308 307 306 306 308 304 305 305 303 301 300 299 299 298 298 298 298 297 297 297 297 297 297 297 297 296 296 296 296 295 295
300 301 305 309 314 314 309 308 305 305 310 305 307 307 307 306 310 308 304 303 303 301 301 299 298 298 298 297 298 298 297 297 297 297 297 296 296 296 296 295 295 294 294 293
302 302 304 306 312 311 308 307 303 309 313 305 307 306 306 309 308 303 302 302 301 300 299 299 298 298 298 297 298 297 297 296 296 296 296 296 295 295 294 293 293 292 291 290
307 307 306 305 309 312 306 306 306 307 304 305 306 305 305 305 303 302 301 300 299 298 297 297 297 296 296 297 298 296 296 296 296 295 295 294 293 293 292 292 291 290 289 289
310 308 310 308 310 307 306 306 304 304 306 306 306 305 304 304 303 302 301 299 298 297 296 296 296 296 296 297 297 296 295 295 295 294 293 293 292 291 290 289 288 288 288 288
305 303 309 309 309 307 307 306 305 305 306 305 304 305 304 305 303 301 299 298 297 296 295 295 295 295 295 296 297 296 295 295 294 293 292 291 291 289 287 287 287 287 288 288
305 304 306 307 306 305 306 305 306 305 304 303 303 304 304 303 301 301 299 297 296 295 295 296 296 295 296 296 296 295 295 294 293 292 291 290 289 287 287 287 287 288 288 288
301 305 308 309 306 306 305 305 304 305 305 304 303 304 303 302 302 300 299 297 296 295 295 295 296 296 295 295 295 295 294 293 292 291 290 289 288 286 286 287 286 285 285 286

GFSCGP_925_thetae_114.txt.gz
Theta_e
319 320 319 319 320 320 321 322 322 322 321 322 323 322 321 320 319 317 319 320 319 318 316 314 323 337 340 340 340 339 339 337 335 337 336 336 334 334 330 327 325 316 312 309
318 319 318 318 319 319 319 321 322 322 322 323 321 321 319 321 321 321 322 322 322 322 320 320 319 332 338 340 340 339 338 338 336 335 336 335 333 331 330 328 326 318 310 309
318 317 316 315 318 318 318 319 321 324 322 322 321 321 321 321 321 320 320 323 323 323 323 322 322 326 334 338 338 339 339 338 337 334 335 336 333 328 324 320 322 322 314 308
316 314 314 317 317 318 320 318 322 325 323 323 320 325 320 320 322 321 321 321 324 325 324 324 325 324 332 336 337 337 338 338 337 334 333 332 331 324 323 321 321 322 320 309
314 313 314 317 315 317 318 321 324 322 323 323 322 325 321 321 321 320 320 322 323 325 327 326 325 324 326 334 336 335 335 336 335 333 332 332 331 328 322 322 319 316 317 312
313 312 314 317 316 316 319 323 321 321 322 325 323 323 322 322 320 319 320 322 321 324 330 331 331 328 326 334 335 335 335 335 334 332 331 331 327 322 317 313 312 314 315 316
314 312 313 314 316 317 320 324 334 328 331 327 322 323 321 319 318 319 325 321 320 321 325 331 334 333 333 333 334 334 334 328 330 331 329 325 324 320 317 313 313 315 316 317
315 313 312 312 315 317 320 324 330 336 328 330 324 330 324 317 319 323 322 320 318 319 321 325 333 334 334 334 333 330 327 326 327 327 323 322 322 321 320 314 313 315 315 314
315 314 312 312 315 319 318 321 323 327 323 327 325 318 320 319 321 322 322 319 317 317 318 321 324 331 330 329 328 328 327 327 325 323 321 322 322 321 321 319 318 317 315 314
313 314 311 311 316 315 318 319 323 326 331 327 319 317 322 323 321 320 321 318 315 314 315 316 317 319 323 325 327 327 327 326 324 323 323 323 322 320 321 320 319 317 315 314
311 312 311 311 312 314 316 316 317 323 324 325 322 318 316 318 319 318 318 318 314 312 314 314 313 312 312 315 317 320 320 319 322 323 323 323 320 320 319 318 316 316 314 314
311 311 311 310 310 310 313 314 314 319 320 324 322 319 315 316 316 316 316 315 312 310 311 313 310 309 310 311 313 312 315 316 314 315 317 314 313 312 310 309 309 309 308 307
312 311 312 311 313 310 310 310 310 315 319 319 320 317 313 315 316 314 315 315 311 311 311 311 310 309 306 305 304 305 308 305 304 304 303 302 302 302 302 302 301 301 301 301
311 313 312 312 310 309 308 309 309 311 317 313 314 314 316 315 317 316 313 313 312 311 310 310 310 306 306 305 304 303 302 302 302 302 301 300 299 299 299 299 299 299 299 299
311 311 309 309 308 307 308 307 308 311 315 314 312 312 314 316 317 315 314 312 313 312 309 309 308 307 305 304 303 303 301 301 300 300 300 299 299 299 299 299 298 298 298 298
305 308 306 310 309 310 312 313 313 313 314 314 312 311 313 314 314 314 314 314 313 310 309 308 307 306 305 304 303 302 301 301 301 301 300 300 299 299 299 298 298 298 298 298
307 308 308 312 309 312 315 315 315 315 313 310 310 313 315 315 314 315 313 313 312 310 309 308 307 305 304 303 302 302 301 301 300 300 300 300 299 299 298 298 298 298 297 297
307 308 307 311 313 315 314 312 312 312 311 311 311 312 315 315 314 314 313 313 312 309 308 307 305 304 302 302 301 301 301 300 300 300 299 299 299 298 298 297 297 297 297 297
305 307 309 314 315 315 315 313 313 312 313 312 312 312 312 312 312 313 312 312 311 309 307 306 305 303 302 301 301 300 300 300 299 299 299 299 298 298 297 298 297 297 297 297
304 306 308 312 317 318 313 311 308 309 314 310 312 313 312 312 315 314 312 311 310 308 306 304 303 302 302 300 300 300 300 300 299 299 298 297 297 297 297 297 297 296 295 295
308 308 309 312 316 315 313 310 307 313 316 310 312 312 312 314 313 311 311 310 309 307 305 303 302 302 301 300 300 300 300 299 298 297 297 296 296 296 296 295 294 294 293 292
312 312 311 311 314 317 312 310 311 314 311 310 312 312 312 312 310 308 309 309 307 306 304 302 302 301 300 300 300 300 300 298 297 296 296 295 295 293 293 293 292 291 291 291
314 313 316 314 318 314 311 314 311 311 313 312 312 312 311 311 310 308 307 307 306 304 303 302 301 300 299 299 300 300 298 297 296 296 295 294 293 292 291 291 290 290 290 291
310 309 313 314 315 312 311 311 311 310 311 312 311 311 311 311 310 309 307 306 305 303 302 301 300 300 299 299 299 299 297 296 295 295 294 293 292 290 289 289 289 290 290 290
312 310 312 313 313 311 311 311 312 312 311 311 310 310 310 310 310 309 307 305 303 302 301 300 300 300 299 298 298 296 296 295 295 294 293 292 290 289 289 289 289 289 289 288
308 312 313 314 314 314 314 311 311 311 311 310 310 310 309 309 310 307 306 304 302 301 300 300 300 300 298 298 296 296 295 295 294 293 292 291 290 289 289 289 288 286 285 286

GFSCGP_925_thetae_117.txt.gz
Theta_e
320 323 321 320 320 320 320 321 323 323 322 324 323 323 321 322 321 322 322 323 322 321 320 318 317 332 339 339 338 329 339 338 336 336 338 338 338 336 334 328 325 319 315 313
320 321 318 318 318 319 319 321 323 323 322 323 322 323 321 321 322 322 321 321 323 323 322 321 318 322 333 340 339 338 339 338 337 338 337 337 336 336 332 328 325 317 314 312
318 319 315 316 319 318 320 321 321 324 323 323 322 324 321 321 321 321 321 322 322 324 323 323 322 322 329 338 340 339 339 339 337 338 336 334 335 333 329 329 326 317 312 310
317 316 315 316 317 318 321 320 325 326 324 324 322 326 324 322 323 321 321 322 324 324 325 324 323 323 326 333 339 339 338 339 338 337 332 333 329 327 326 324 322 317 311 309
317 315 316 317 316 317 320 321 325 325 325 325 323 324 323 322 323 322 321 322 321 321 326 328 324 323 323 330 335 339 336 337 337 335 332 333 331 329 327 323 321 318 311 308
314 314 315 317 316 318 319 322 326 325 326 327 322 325 323 323 322 321 324 322 320 321 323 329 327 325 325 331 336 337 330 328 334 332 331 331 330 329 324 319 317 316 312 308
315 315 314 315 318 319 320 325 336 331 330 326 323 325 326 323 321 325 324 320 319 319 322 327 330 328 328 336 337 335 334 334 332 331 327 326 328 327 324 321 316 314 314 313
316 317 313 313 317 318 322 324 330 335 327 329 324 327 326 322 322 323 322 318 317 319 319 323 334 335 333 335 332 330 330 328 330 329 324 324 323 322 318 315 314 314 314 315
316 316 313 313 316 317 319 320 322 329 328 332 325 320 324 323 322 321 322 318 317 317 318 320 321 329 330 329 328 327 327 325 325 324 323 321 321 320 319 317 315 315 315 315
315 314 313 311 316 317 317 318 325 327 336 328 320 317 318 321 322 321 322 318 316 317 317 317 317 317 319 324 327 326 325 323 322 323 323 322 322 323 320 318 317 316 316 315
312 313 314 313 315 316 318 318 318 323 323 327 323 321 317 318 320 320 321 315 314 316 315 313 314 313 314 318 322 321 319 320 321 322 321 321 320 319 318 317 315 315 314 313
313 315 314 313 313 313 315 315 315 318 319 322 324 322 317 318 319 319 318 316 314 314 316 314 312 312 311 310 310 314 312 311 312 313 315 311 313 314 312 309 310 312 313 312
314 316 317 314 316 313 312 311 311 312 320 322 319 319 317 317 319 319 320 315 313 313 313 312 313 310 308 307 308 308 307 307 309 311 307 304 303 303 302 303 302 303 303 304
312 316 317 318 315 313 313 312 311 310 317 316 315 311 317 317 320 321 319 316 312 312 313 314 310 309 307 306 305 307 306 305 303 302 302 302 301 301 301 301 301 301 301 301
313 317 314 313 312 311 311 311 310 310 314 317 314 312 312 317 319 320 319 318 318 314 312 312 311 309 306 305 304 304 303 303 303 302 301 301 301 301 301 300 300 300 300 300
310 313 310 314 314 312 313 314 314 314 316 316 316 314 312 316 317 318 319 318 317 316 313 311 310 309 308 306 305 304 303 303 302 302 301 301 301 300 300 300 299 299 299 299
311 312 315 317 313 314 317 317 316 315 316 316 312 315 316 316 316 317 319 318 316 314 313 311 310 308 307 306 305 304 303 303 302 302 302 301 301 300 299 299 299 299 298 298
312 312 313 315 317 321 317 314 315 316 315 314 312 314 315 316 316 316 316 318 316 313 312 311 309 307 306 305 304 303 303 302 302 302 301 300 300 299 299 299 298 298 298 298
309 311 313 317 319 318 317 315 314 314 315 315 313 313 314 316 315 315 315 315 315 313 311 309 308 306 305 304 303 303 302 302 302 301 300 299 299 298 299 299 298 298 298 297
308 309 312 316 320 321 317 313 312 312 316 315 314 314 314 315 316 315 314 314 313 311 310 308 307 305 305 304 303 303 302 302 301 300 299 298 298 298 298 298 298 297 296 295
311 311 313 315 319 319 317 312 310 315 318 312 313 314 314 315 315 316 314 313 312 310 309 307 306 305 304 303 303 303 302 301 300 299 298 298 298 297 297 297 296 295 294 293
315 316 315 315 317 320 315 311 314 317 314 313 313 314 314 314 313 313 313 313 312 310 308 306 306 305 304 303 303 303 302 300 299 298 297 297 296 295 295 295 294 293 292 292
316 316 318 317 319 317 314 316 314 314 315 314 314 314 313 313 313 312 312 312 311 310 308 306 306 305 303 303 303 302 301 299 298 297 297 296 295 294 293 292 292 292 292 292
314 315 316 316 316 315 315 314 313 313 314 314 315 314 313 313 313 312 311 311 311 309 307 306 305 304 303 302 302 302 300 298 297 297 296 295 294 292 291 291 291 292 292 291
315 313 314 315 315 315 314 314 314 314 314 313 313 314 314 314 313 312 311 310 309 309 307 305 305 303 302 302 301 300 299 297 297 296 295 294 293 291 291 291 291 290 290 289
313 315 315 316 315 315 316 315 315 314 314 314 313 313 312 313 313 312 311 309 308 308 306 304 304 303 302 301 300 299 297 297 296 295 294 293 292 291 291 291 290 289 288 286

GFSCGP_925_thetae_120.txt.gz
Theta_e
320 321 322 319 320 319 319 319 321 322 323 323 325 323 321 322 321 321 321 320 320 321 321 320 317 318 326 341 341 340 339 338 337 337 338 339 338 338 337 329 324 322 319 316
319 322 317 316 318 319 319 321 322 321 323 323 324 324 323 321 321 321 320 320 321 322 320 321 320 317 318 338 338 338 338 336 331 336 337 337 338 337 335 327 324 320 316 313
317 319 316 316 318 317 318 321 323 326 324 323 323 323 322 322 321 320 320 320 321 321 322 323 323 320 321 335 340 337 336 330 327 330 337 337 337 335 330 326 321 317 314 312
317 316 315 317 317 317 319 319 322 327 326 327 323 325 326 321 321 321 320 322 321 319 320 321 325 323 322 330 336 333 327 328 330 336 336 335 334 330 329 327 320 315 314 312
317 316 316 317 317 317 319 319 321 325 326 326 323 323 325 322 323 322 322 322 320 319 320 321 323 327 323 324 335 336 335 329 329 327 334 333 331 330 328 326 321 316 311 310
316 314 315 315 316 318 319 322 326 327 327 330 323 325 325 324 323 324 324 320 319 319 320 321 323 327 324 334 335 334 331 328 325 327 327 328 330 330 328 326 322 317 310 309
317 316 315 315 318 320 322 323 336 331 332 328 323 326 326 323 323 325 322 319 318 318 320 322 327 328 334 334 336 329 329 326 326 323 322 326 326 328 328 326 324 318 314 310
319 318 314 313 318 318 321 322 330 329 331 330 327 328 327 323 322 323 320 318 317 319 318 320 324 331 333 331 331 328 329 328 328 327 327 326 325 322 319 319 317 315 314 313
318 318 314 313 315 317 319 320 323 328 329 332 331 324 324 319 321 323 322 318 317 317 316 318 318 322 329 328 328 325 324 324 323 323 321 321 320 320 318 316 315 315 315 315
315 314 314 312 314 318 318 318 325 329 327 329 322 318 317 320 322 323 319 317 318 316 315 316 315 317 322 321 324 323 322 323 322 322 321 321 321 320 318 317 316 316 316 315
314 314 315 313 316 316 318 319 318 321 324 326 324 319 316 319 320 321 319 315 315 316 314 315 314 313 313 316 316 318 320 320 320 320 319 319 318 318 318 317 316 316 314 314
313 314 316 314 314 314 315 315 314 317 320 319 321 320 316 319 319 319 317 315 314 315 315 313 312 311 311 310 312 312 314 316 313 315 316 313 312 311 311 312 313 313 312 311
315 317 317 316 316 314 313 314 311 311 314 322 317 318 315 318 319 319 317 315 313 313 312 312 309 308 307 309 308 306 306 304 304 304 303 303 303 303 303 303 304 304 305 306
313 316 318 319 318 315 314 314 311 311 312 316 314 313 316 317 320 319 317 313 312 314 311 309 308 306 306 307 307 305 304 303 303 302 301 301 301 301 301 301 301 301 301 301
313 318 318 316 313 312 312 312 312 310 309 313 315 315 313 316 318 319 318 316 314 313 312 310 307 306 305 304 304 304 303 302 302 301 301 301 301 300 300 300 300 300 300 299
311 313 313 313 314 314 313 313 313 312 310 311 314 315 313 314 316 318 317 318 316 313 311 310 307 306 305 304 303 303 303 302 302 301 301 300 300 300 299 299 299 298 298 298
312 312 316 317 314 314 316 315 315 314 314 315 316 315 315 315 316 317 317 317 316 313 311 309 307 306 305 304 304 303 303 302 302 301 301 300 300 299 299 298 298 298 298 298
312 312 314 315 315 321 316 314 315 316 315 315 313 315 315 315 314 314 316 315 313 312 311 308 308 306 305 304 304 303 302 302 302 301 300 300 299 298 298 298 298 298 298 298
309 312 314 315 318 318 317 315 315 314 315 314 313 313 314 315 314 314 314 315 312 311 310 309 307 306 305 304 303 303 302 302 301 300 300 299 298 298 298 298 298 297 297 297
309 309 312 315 319 323 318 315 313 313 314 315 314 312 313 314 314 313 312 313 312 312 310 308 307 305 304 304 303 302 302 301 300 299 298 298 298 298 298 298 297 296 295 294
309 309 311 313 319 320 316 312 311 314 317 312 313 313 313 313 313 313 312 311 312 311 309 308 306 305 304 303 303 302 302 301 300 298 298 298 298 297 297 296 295 294 293 293
313 315 313 314 318 318 312 310 312 315 314 313 313 312 313 313 312 312 311 311 310 309 308 307 306 305 304 303 303 303 302 300 299 298 297 297 296 295 295 294 293 292 292 292
316 317 317 316 317 316 311 316 312 315 313 312 313 313 312 313 311 312 311 310 309 309 308 307 306 305 304 303 303 302 300 299 298 297 297 296 295 294 293 292 292 292 292 292
314 315 317 315 315 316 313 313 312 313 314 313 313 313 312 312 311 310 310 310 309 309 307 307 306 304 303 303 303 302 300 299 298 297 296 295 294 292 291 291 291 291 291 291
314 313 313 315 315 315 314 313 312 312 312 313 313 313 312 311 311 310 309 309 310 309 307 306 306 304 303 303 303 302 300 298 297 297 296 295 294 291 291 291 291 290 289 287
312 312 314 314 313 314 314 313 312 312 313 312 312 312 312 312 312 311 309 309 309 309 308 306 305 304 303 302 302 300 299 298 297 296 295 294 292 291 291 291 290 289 289 288